[[{"header":{"parameterUnit":"m.s-1","parameterCategory":1,"la1":31.0,"la2":29.5877,"lo1":-88.7671,"lo2":-86.6584,"dy":0.0162,"dx":0.0185,"nx":115,"ny":88,"refTime":"2025-12-21T00:00:00:Z","depth":0,"parameterNumber":2,"parameterNumberName":"U-component_of_WINDS"},"data":[0.0,0.0,0.0,0.0,0.0,0.0,0.0,0.0,0.0,0.0,0.0,0.0,0.0,0.0,0.0,0.0,0.0,0.0,0.0,0.0,0.0,0.0,0.0,0.0,0.0,0.0,0.0,0.0,0.0,0.0,0.0,0.0,0.0,0.0,0.0,0.0,0.0,0.0,0.0,0.0,0.0,0.0,0.0,0.0,0.0,0.0,0.0,0.0,0.0,0.0,0.0,0.0,0.0,0.0,0.0,0.0,0.0,0.0,0.0,0.0,0.0,0.0,0.0,0.0,0.0,0.0,0.0,0.0,0.0,0.0,0.0,0.0,0.0,0.0,0.0,0.0,0.0,0.0,0.0,0.0,0.0,0.0,0.0,0.0,0.0,0.0,0.0,0.0,0.0,0.0,0.0,0.0,0.0,0.0,0.0,0.0,0.0,0.0,0.0,0.0,0.0,0.0,0.0,0.0,0.0,0.0,0.0,0.0,0.0,0.0,0.0,0.0,0.0,0.0,0.0,0.0,0.0,0.0,0.0,0.0,0.0,0.0,0.0,0.0,0.0,0.0,0.0,0.0,0.0,0.0,0.0,0.0,0.0,0.0,0.0,0.0,0.0,0.0,0.0,0.0,0.0,0.0,0.0,0.0,0.0,0.0,0.0,0.0,0.0,0.0,0.0,0.0,0.0,0.0,0.0,0.0,0.0,0.0,0.0,0.0,0.0,0.0,0.0,0.0,0.0,0.0,0.0,0.0,0.0,0.0,0.0,0.0,0.0,0.0,0.0,0.0,0.0,0.0,0.0,0.0,0.0,0.0,0.0,0.0,0.0,0.0,0.0,0.0,0.0,0.0,0.0,0.0,0.0,0.0,0.0,0.0,0.0,0.0,0.0,0.0,0.0,0.0,0.0,0.0,0.0,0.0,0.0,0.0,0.0,0.0,0.0,0.0,0.0,0.0,0.0,0.0,0.0,0.0,0.0,0.0,0.0,0.0,0.0,0.0,0.0,0.0,0.0,0.0,0.0,0.0,0.0,0.0,0.0,0.0,0.0,0.0,0.0,0.0,0.0,0.0,0.0,0.0,0.0,0.0,0.0,0.0,0.0,0.0,0.0,0.0,0.0,0.0,0.0,0.0,0.0,0.0,0.0,0.0,0.0,0.0,0.0,0.0,0.0,0.0,0.0,0.0,0.0,0.0,0.0,0.0,0.0,0.0,0.0,0.0,0.0,0.0,0.0,0.0,0.0,0.0,0.0,0.0,0.0,0.0,0.0,0.0,0.0,0.0,0.0,0.0,0.0,0.0,0.0,0.0,0.0,0.0,0.0,0.0,0.0,0.0,0.0,0.0,0.0,0.0,0.0,0.0,0.0,0.0,0.0,0.0,0.0,0.0,0.0,0.0,0.0,0.0,0.0,0.0,0.0,0.0,0.0,0.0,0.0,0.0,0.0,0.0,0.0,0.0,0.0,0.0,0.0,0.0,0.0,0.0,0.0,0.0,0.0,0.0,0.0,0.0,0.0,0.0,0.0,0.0,0.0,0.0,0.0,0.0,0.0,0.0,0.0,0.0,0.0,0.0,0.0,0.0,0.0,0.0,0.0,0.0,0.0,0.0,0.0,0.0,0.0,0.0,0.0,0.0,0.0,0.0,0.0,0.0,0.0,0.0,0.0,0.0,0.0,0.0,0.0,0.0,0.0,0.0,0.0,0.0,0.0,0.0,0.0,0.0,0.0,0.0,0.0,0.0,0.0,0.0,0.0,0.0,0.0,0.0,0.0,0.0,0.0,0.0,0.0,0.0,0.0,0.0,0.0,0.0,0.0,0.0,0.0,0.0,0.0,0.0,0.0,0.0,0.0,0.0,0.0,0.0,0.0,0.0,0.0,0.0,0.0,0.0,0.0,0.0,0.0,0.0,0.0,0.0,0.0,0.0,0.0,0.0,0.0,0.0,0.0,0.0,0.0,0.0,0.0,0.0,0.0,0.0,0.0,0.0,0.0,0.0,0.0,0.0,0.0,0.0,0.0,0.0,0.0,0.0,0.0,0.0,0.0,0.0,0.0,0.0,0.0,0.0,0.0,0.0,0.0,0.0,0.0,0.0,0.0,0.0,0.0,0.0,0.0,0.0,0.0,0.0,0.0,0.0,0.0,0.0,0.0,0.0,0.0,0.0,0.0,0.0,0.0,0.0,0.0,0.0,0.0,0.0,0.0,0.0,0.0,0.0,0.0,0.0,0.0,0.0,0.0,0.0,0.0,0.0,0.0,0.0,0.0,0.0,0.0,0.0,0.0,0.0,0.0,0.0,0.0,0.0,0.0,0.0,0.0,0.0,0.0,0.0,0.0,0.0,0.0,0.0,0.0,0.0,0.0,0.0,0.0,0.0,0.0,0.0,0.0,0.0,0.0,0.0,0.0,0.0,0.0,0.0,0.0,0.0,0.0,0.0,0.0,0.0,0.0,0.0,0.0,0.0,0.0,0.0,0.0,0.0,0.0,0.0,0.0,0.0,0.0,0.0,0.0,0.0,0.0,0.0,0.0,0.0,0.0,0.0,0.0,0.0,0.0,0.0,0.0,0.0,0.0,0.0,0.0,0.0,0.0,0.0,0.0,0.0,0.0,0.0,0.0,0.0,0.0,0.0,0.0,0.0,0.0,0.0,0.0,0.0,0.0,0.0,0.0,0.0,0.0,0.0,0.0,0.0,0.0,0.0,0.0,0.0,0.0,0.0,0.0,0.0,0.0,0.0,0.0,0.0,0.0,0.0,0.0,0.0,0.0,0.0,0.0,0.0,0.0,0.0,0.0,0.0,0.0,0.0,0.0,0.0,0.0,0.0,0.0,0.0,0.0,0.0,0.0,0.0,0.0,0.0,0.0,0.0,0.0,0.0,0.0,0.0,0.0,0.0,0.0,0.0,0.0,0.0,0.0,0.0,0.0,0.0,0.0,0.0,0.0,0.0,0.0,0.0,0.0,0.0,0.0,0.0,0.0,0.0,0.0,0.0,0.0,0.0,0.0,0.0,0.0,0.0,0.0,0.0,0.0,0.0,0.0,0.0,0.0,0.0,0.0,0.0,0.0,0.0,0.0,0.0,0.0,0.0,0.0,0.0,0.0,0.0,0.0,0.0,0.0,0.0,0.0,0.0,0.0,0.0,0.0,0.0,0.0,0.0,0.0,0.0,0.0,0.0,0.0,0.0,0.0,0.0,0.0,0.0,0.0,0.0,0.0,0.0,0.0,0.0,0.0,0.0,0.0,0.0,0.0,0.0,0.0,0.0,0.0,0.0,0.0,0.0,0.0,0.0,0.0,0.0,0.0,0.0,0.0,0.0,0.0,0.0,0.0,0.0,0.0,0.0,0.0,0.0,0.0,0.0,0.0,0.0,0.0,0.0,0.0,0.0,0.0,0.0,0.0,0.0,0.0,0.0,0.0,0.0,0.0,0.0,0.0,0.0,0.0,0.0,0.0,0.0,0.0,0.0,0.0,0.0,0.0,0.0,0.0,0.0,0.0,0.0,0.0,0.0,0.0,0.0,0.0,0.0,0.0,0.0,0.0,0.0,0.0,0.0,0.0,0.0,0.0,0.0,0.0,0.0,0.0,0.0,0.0,0.0,0.0,0.0,0.0,0.0,0.0,0.0,0.0,0.0,0.0,0.0,0.0,0.0,0.0,0.0,0.0,0.0,0.0,0.0,0.0,0.0,0.0,0.0,0.0,0.0,0.0,0.0,0.0,0.0,0.0,0.0,0.0,0.0,0.0,0.0,0.0,0.0,0.0,0.0,0.0,0.0,0.0,0.0,0.0,0.0,0.0,0.0,0.0,0.0,0.0,0.0,0.0,0.0,0.0,0.0,0.0,0.0,0.0,0.0,0.0,0.0,0.0,0.0,0.0,0.0,0.0,0.0,0.0,0.0,0.0,0.0,0.0,0.0,0.0,0.0,0.0,0.0,0.0,0.0,0.0,0.0,0.0,0.0,0.0,0.0,0.0,0.0,0.0,0.0,0.0,0.0,0.0,0.0,0.0,0.0,0.0,0.0,0.0,0.0,0.0,0.0,0.0,0.0,0.0,0.0,0.0,0.0,0.0,0.0,0.0,0.0,0.0,0.0,0.0,0.0,0.0,0.0,0.0,0.0,0.0,0.0,0.0,0.0,0.0,0.0,0.0,0.0,0.0,0.0,0.0,0.0,0.0,0.0,0.0,0.0,0.0,0.0,0.0,0.0,0.0,0.0,0.0,0.0,0.0,0.0,0.0,0.0,0.0,0.0,0.0,0.0,0.0,0.0,-1.538,0.0,0.0,0.0,0.0,0.0,0.0,0.0,0.0,0.0,0.0,0.0,0.0,0.0,0.0,0.0,0.0,0.0,0.0,0.0,0.0,0.0,0.0,0.0,0.0,0.0,0.0,0.0,0.0,0.0,0.0,0.0,0.0,0.0,0.0,0.0,0.0,0.0,0.0,0.0,0.0,0.0,0.0,0.0,0.0,0.0,0.0,0.0,0.0,0.0,0.0,0.0,0.0,0.0,0.0,0.0,0.0,0.0,0.0,0.0,0.0,0.0,0.0,0.0,0.0,0.0,0.0,0.0,0.0,0.0,0.0,0.0,0.0,0.0,0.0,0.0,0.0,0.0,0.0,0.0,0.0,0.0,0.0,0.0,0.0,0.0,0.0,0.0,0.0,0.0,0.0,0.0,0.0,0.0,0.0,0.0,0.0,0.0,0.0,0.0,0.0,0.0,0.0,0.0,0.0,0.0,0.0,0.0,0.0,0.0,0.0,-1.5412,-1.5412,-1.541,-1.5416,-1.5402,0.0,0.0,0.0,0.0,0.0,0.0,0.0,0.0,0.0,0.0,0.0,0.0,0.0,0.0,0.0,0.0,0.0,0.0,0.0,0.0,0.0,0.0,0.0,0.0,0.0,0.0,0.0,0.0,0.0,0.0,0.0,0.0,0.0,0.0,0.0,0.0,0.0,0.0,0.0,0.0,0.0,0.0,0.0,0.0,0.0,0.0,0.0,0.0,0.0,0.0,0.0,0.0,0.0,0.0,0.0,0.0,0.0,0.0,0.0,0.0,0.0,0.0,0.0,0.0,0.0,0.0,0.0,0.0,0.0,0.0,0.0,0.0,0.0,0.0,0.0,0.0,0.0,0.0,0.0,0.0,0.0,0.0,0.0,0.0,0.0,0.0,0.0,0.0,0.0,0.0,0.0,0.0,0.0,0.0,0.0,0.0,0.0,0.0,0.0,0.0,0.0,0.0,0.0,0.0,0.0,0.0,0.0,0.0,0.0,0.0,0.0,0.0,-1.538,-1.5299,-1.5093,0.0,0.0,0.0,0.0,0.0,0.0,0.0,0.0,0.0,0.0,0.0,0.0,0.0,0.0,0.0,0.0,0.0,0.0,0.0,0.0,0.0,0.0,0.0,0.0,0.0,0.0,0.0,0.0,0.0,0.0,0.0,0.0,0.0,0.0,0.0,0.0,0.0,0.0,0.0,0.0,0.0,0.0,0.0,0.0,0.0,0.0,0.0,0.0,0.0,0.0,0.0,0.0,0.0,0.0,0.0,0.0,0.0,0.0,0.0,0.0,0.0,0.0,0.0,0.0,0.0,0.0,0.0,0.0,0.0,0.0,0.0,0.0,0.0,0.0,0.0,0.0,0.0,0.0,0.0,0.0,0.0,0.0,0.0,0.0,0.0,0.0,0.0,0.0,0.0,0.0,0.0,0.0,0.0,0.0,0.0,0.0,0.0,0.0,0.0,0.0,0.0,0.0,0.0,0.0,0.0,0.0,0.0,0.0,0.0,0.0,-1.5374,-1.53,-1.5371,0.0,-1.4282,0.0,0.0,0.0,0.0,0.0,0.0,0.0,0.0,0.0,0.0,0.0,0.0,0.0,0.0,0.0,0.0,0.0,0.0,0.0,0.0,0.0,0.0,0.0,0.0,0.0,0.0,0.0,0.0,0.0,0.0,0.0,0.0,0.0,0.0,0.0,0.0,0.0,0.0,0.0,0.0,0.0,0.0,0.0,0.0,0.0,0.0,0.0,0.0,0.0,0.0,0.0,0.0,0.0,0.0,0.0,0.0,0.0,0.0,0.0,0.0,0.0,0.0,0.0,0.0,0.0,0.0,0.0,0.0,0.0,0.0,0.0,0.0,0.0,0.0,0.0,0.0,0.0,0.0,0.0,0.0,0.0,0.0,0.0,0.0,0.0,0.0,0.0,0.0,0.0,0.0,0.0,0.0,0.0,0.0,0.0,0.0,0.0,0.0,0.0,0.0,0.0,0.0,0.0,0.0,0.0,0.0,0.0,0.0,0.0,0.0,0.0,-1.5289,-1.532,-1.4944,0.0,0.0,0.0,0.0,0.0,0.0,0.0,0.0,0.0,0.0,0.0,0.0,0.0,0.0,0.0,0.0,0.0,0.0,0.0,0.0,0.0,0.0,0.0,0.0,0.0,0.0,0.0,0.0,0.0,0.0,0.0,0.0,0.0,0.0,0.0,0.0,0.0,0.0,0.0,0.0,0.0,0.0,0.0,0.0,0.0,0.0,0.0,0.0,0.0,0.0,0.0,0.0,0.0,0.0,0.0,0.0,0.0,0.0,0.0,0.0,0.0,0.0,0.0,0.0,0.0,0.0,0.0,0.0,0.0,0.0,0.0,0.0,0.0,0.0,0.0,0.0,0.0,0.0,0.0,0.0,0.0,0.0,0.0,0.0,0.0,0.0,0.0,0.0,0.0,0.0,0.0,0.0,0.0,0.0,0.0,0.0,0.0,0.0,0.0,0.0,0.0,0.0,0.0,0.0,0.0,0.0,0.0,0.0,0.0,0.0,-1.5276,0.0,-1.5264,-1.5262,-1.4782,-1.3752,0.0,0.0,0.0,0.0,0.0,0.0,0.0,0.0,0.0,0.0,0.0,0.0,0.0,0.0,0.0,0.0,0.0,0.0,0.0,0.0,0.0,0.0,0.0,0.0,0.0,0.0,0.0,0.0,0.0,0.0,0.0,0.0,0.0,0.0,0.0,0.0,0.0,0.0,0.0,0.0,0.0,0.0,0.0,0.0,0.0,0.0,0.0,0.0,0.0,0.0,0.0,0.0,0.0,0.0,0.0,0.0,0.0,0.0,0.0,0.0,0.0,0.0,0.0,0.0,0.0,0.0,0.0,0.0,0.0,0.0,0.0,0.0,0.0,0.0,0.0,0.0,0.0,0.0,0.0,0.0,0.0,0.0,0.0,0.0,0.0,0.0,0.0,0.0,0.0,0.0,0.0,0.0,0.0,0.0,0.0,0.0,0.0,0.0,0.0,0.0,0.0,0.0,0.0,0.0,0.0,0.0,0.0,0.0,0.0,-1.52,-1.5175,-1.5083,-1.516,-1.4441,0.0,0.0,0.0,0.0,0.0,0.0,0.0,0.0,0.0,0.0,0.0,0.0,0.0,0.0,0.0,0.0,0.0,0.0,0.0,0.0,0.0,0.0,0.0,0.0,0.0,0.0,0.0,0.0,0.0,0.0,0.0,0.0,0.0,0.0,0.0,0.0,0.0,0.0,0.0,0.0,0.0,0.0,0.0,0.0,0.0,0.0,0.0,0.0,0.0,0.0,0.0,0.0,0.0,0.0,0.0,0.0,0.0,0.0,0.0,0.0,0.0,0.0,0.0,0.0,0.0,0.0,0.0,0.0,0.0,0.0,0.0,0.0,0.0,0.0,0.0,0.0,0.0,0.0,0.0,0.0,0.0,0.0,0.0,0.0,0.0,0.0,0.0,0.0,0.0,0.0,0.0,0.0,0.0,0.0,0.0,0.0,0.0,0.0,0.0,0.0,0.0,0.0,0.0,0.0,0.0,0.0,0.0,0.0,0.0,-1.5066,-1.5025,-1.4746,-1.423,-1.4219,-1.3456,0.0,0.0,0.0,0.0,0.0,0.0,0.0,0.0,0.0,0.0,0.0,0.0,0.0,0.0,0.0,0.0,0.0,0.0,0.0,0.0,0.0,0.0,0.0,0.0,0.0,0.0,0.0,0.0,0.0,0.0,0.0,0.0,0.0,0.0,0.0,0.0,0.0,0.0,0.0,0.0,0.0,0.0,0.0,0.0,0.0,0.0,0.0,0.0,0.0,0.0,0.0,0.0,0.0,0.0,0.0,0.0,0.0,0.0,0.0,0.0,0.0,0.0,0.0,0.0,0.0,0.0,0.0,0.0,0.0,0.0,0.0,0.0,0.0,0.0,0.0,0.0,0.0,0.0,0.0,0.0,0.0,0.0,0.0,0.0,0.0,0.0,0.0,0.0,0.0,0.0,0.0,0.0,0.0,0.0,0.0,0.0,0.0,0.0,0.0,0.0,0.0,0.0,0.0,0.0,0.0,0.0,0.0,0.0,0.0,-1.4085,0.0,-1.3748,0.0,-1.3227,-1.2607,0.0,0.0,0.0,0.0,0.0,0.0,0.0,0.0,0.0,0.0,0.0,0.0,0.0,0.0,0.0,0.0,0.0,0.0,0.0,0.0,0.0,0.0,0.0,0.0,0.0,0.0,0.0,0.0,0.0,0.0,0.0,0.0,0.0,0.0,0.0,0.0,0.0,0.0,0.0,0.0,0.0,0.0,0.0,0.0,0.0,0.0,0.0,0.0,0.0,0.0,0.0,0.0,0.0,0.0,0.0,0.0,0.0,0.0,0.0,0.0,0.0,0.0,0.0,0.0,0.0,0.0,0.0,0.0,0.0,0.0,0.0,0.0,0.0,0.0,0.0,0.0,0.0,0.0,0.0,0.0,0.0,0.0,0.0,0.0,0.0,0.0,0.0,0.0,0.0,0.0,0.0,0.0,0.0,0.0,0.0,0.0,0.0,0.0,0.0,0.0,0.0,0.0,0.0,0.0,0.0,0.0,0.0,0.0,-1.3072,-1.2178,-1.2153,-1.2206,-1.2188,-1.2243,-1.1938,0.0,0.0,0.0,0.0,0.0,0.0,0.0,0.0,0.0,0.0,0.0,0.0,0.0,0.0,0.0,0.0,0.0,0.0,0.0,0.0,0.0,0.0,0.0,0.0,0.0,0.0,0.0,0.0,0.0,0.0,0.0,0.0,0.0,0.0,0.0,0.0,0.0,0.0,0.0,0.0,0.0,0.0,0.0,0.0,0.0,0.0,0.0,0.0,0.0,0.0,0.0,0.0,0.0,0.0,0.0,0.0,0.0,0.0,0.0,0.0,0.0,0.0,0.0,0.0,0.0,0.0,0.0,0.0,0.0,0.0,0.0,0.0,0.0,0.0,0.0,0.0,0.0,0.0,0.0,0.0,0.0,0.0,0.0,0.0,0.0,0.0,0.0,0.0,0.0,0.0,0.0,0.0,0.0,0.0,0.0,0.0,0.0,0.0,0.0,0.0,0.0,0.0,0.0,0.0,0.0,0.0,0.0,0.0,0.0,-1.2059,-1.1966,-1.1637,-1.1132,-1.1159,-1.0844,0.0,0.0,0.0,0.0,0.0,0.0,0.0,0.0,0.0,0.0,0.0,0.0,0.0,0.0,0.0,0.0,0.0,0.0,0.0,0.0,0.0,0.0,0.0,0.0,0.0,0.0,0.0,0.0,0.0,0.0,0.0,0.0,0.0,0.0,0.0,0.0,0.0,0.0,0.0,0.0,0.0,0.0,0.0,0.0,0.0,0.0,0.0,0.0,0.0,0.0,0.0,0.0,0.0,0.0,0.0,0.0,0.0,0.0,0.0,0.0,0.0,0.0,0.0,0.0,0.0,0.0,0.0,0.0,0.0,0.0,0.0,0.0,0.0,0.0,0.0,0.0,0.0,0.0,0.0,0.0,0.0,0.0,0.0,0.0,0.0,0.0,0.0,0.0,0.0,0.0,0.0,0.0,0.0,0.0,0.0,0.0,0.0,0.0,0.0,0.0,0.0,0.0,0.0,0.0,0.0,0.0,0.0,0.0,0.0,-1.0355,-1.0575,-1.0463,-1.002,-1.0082,-0.9942,-0.9559,0.0,0.0,0.0,0.0,0.0,0.0,0.0,0.0,0.0,0.0,0.0,0.0,0.0,0.0,0.0,0.0,0.0,0.0,0.0,0.0,0.0,0.0,0.0,0.0,0.0,0.0,0.0,0.0,0.0,0.0,0.0,0.0,0.0,0.0,0.0,0.0,0.0,0.0,0.0,0.0,0.0,0.0,0.0,0.0,0.0,0.0,0.0,0.0,0.0,0.0,0.0,0.0,0.0,0.0,0.0,0.0,0.0,0.0,0.0,0.0,0.0,0.0,0.0,0.0,0.0,0.0,0.0,0.0,0.0,0.0,0.0,0.0,0.0,0.0,0.0,0.0,0.0,0.0,0.0,0.0,0.0,0.0,0.0,0.0,0.0,0.0,0.0,0.0,0.0,0.0,0.0,0.0,0.0,0.0,0.0,0.0,0.0,0.0,0.0,0.0,0.0,0.0,0.0,0.0,0.0,0.0,0.0,0.0,-0.7526,-0.8241,-0.8723,-0.8841,-0.9022,-0.9183,0.0,0.0,0.0,0.0,0.0,0.0,0.0,0.0,0.0,0.0,0.0,0.0,0.0,0.0,0.0,0.0,0.0,0.0,0.0,0.0,0.0,0.0,0.0,0.0,0.0,0.0,0.0,0.0,0.0,0.0,0.0,0.0,0.0,0.0,0.0,0.0,0.0,0.0,0.0,0.0,0.0,0.0,0.0,0.0,0.0,0.0,0.0,0.0,0.0,0.0,0.0,0.0,0.0,0.0,0.0,0.0,0.0,0.0,0.0,0.0,0.0,0.0,0.0,0.0,0.0,0.0,0.0,0.0,0.0,0.0,0.0,0.0,0.0,0.0,0.0,0.0,0.0,0.0,0.0,0.0,0.0,0.0,0.0,0.0,0.0,0.0,0.0,0.0,0.0,0.0,0.0,0.0,0.0,0.0,0.0,0.0,0.0,0.0,0.0,0.0,0.0,0.0,0.0,0.0,0.0,0.0,0.0,0.0,0.0,-0.7298,-0.7016,-0.6977,-0.7164,-0.7814,-0.8222,0.0,0.0,0.0,0.0,0.0,0.0,0.0,0.0,0.0,0.0,0.0,0.0,0.0,0.0,0.0,0.0,0.0,0.0,0.0,0.0,0.0,0.0,0.0,0.0,0.0,0.0,0.0,0.0,0.0,0.0,0.0,0.0,0.0,0.0,0.0,0.0,0.0,0.0,0.0,0.0,0.0,0.0,0.0,0.0,0.0,0.0,0.0,0.0,0.0,0.0,0.0,0.0,0.0,0.0,0.0,0.0,0.0,0.0,0.0,0.0,0.0,0.0,0.0,0.0,0.0,0.0,0.0,0.0,0.0,0.0,0.0,0.0,0.0,0.0,0.0,0.0,0.0,0.0,0.0,0.0,0.0,0.0,0.0,0.0,0.0,0.0,0.0,0.0,0.0,0.0,0.0,0.0,0.0,0.0,0.0,0.0,0.0,0.0,0.0,0.0,0.0,0.0,0.0,0.0,0.0,0.0,0.0,0.0,-0.7449,-0.655,-0.5871,-0.5473,-0.5363,-0.6814,-0.7691,0.0,0.0,0.0,0.0,0.0,0.0,0.0,0.0,0.0,0.0,0.0,0.0,0.0,0.0,0.0,0.0,0.0,0.0,0.0,0.0,0.0,0.0,0.0,0.0,0.0,0.0,0.0,0.0,0.0,0.0,0.0,0.0,0.0,0.0,0.0,0.0,0.0,0.0,0.0,0.0,0.0,0.0,0.0,0.0,0.0,0.0,0.0,0.0,0.0,0.0,0.0,0.0,0.0,0.0,0.0,0.0,0.0,0.0,0.0,0.0,0.0,0.0,0.0,0.0,0.0,0.0,0.0,0.0,0.0,0.0,0.0,0.0,0.0,0.0,0.0,0.0,0.0,0.0,0.0,0.0,0.0,0.0,0.0,0.0,0.0,0.0,0.0,0.0,0.0,0.0,0.0,0.0,0.0,0.0,0.0,0.0,0.0,0.0,0.0,0.0,0.0,0.0,0.0,0.0,0.0,0.0,0.0,0.0,-0.7197,-0.5514,-0.4827,-0.4269,-0.386,-0.5966,-0.7289,0.0,0.0,0.0,0.0,0.0,0.0,0.0,0.0,0.0,0.0,0.0,0.0,0.0,0.0,0.0,0.0,0.0,0.0,0.0,0.0,0.0,0.0,0.0,0.0,0.0,0.0,0.0,0.0,0.0,0.0,0.0,0.0,0.0,0.0,0.0,0.0,0.0,0.0,0.0,0.0,0.0,0.0,0.0,0.0,0.0,0.0,0.0,0.0,0.0,0.0,0.0,0.0,0.0,0.0,0.0,0.0,0.0,0.0,0.0,0.0,0.0,0.0,0.0,0.0,0.0,0.0,0.0,0.0,0.0,0.0,0.0,0.0,0.0,0.0,0.0,0.0,0.0,0.0,0.0,0.0,0.0,0.0,0.0,0.0,0.0,0.0,0.0,0.0,0.0,0.0,0.0,0.0,0.0,0.0,0.0,0.0,0.0,0.0,0.0,0.0,0.0,0.0,0.0,0.0,0.0,0.0,0.0,0.0,-0.5675,-0.469,-0.4066,-0.3689,-0.3583,-0.5275,-0.6351,0.0,0.0,0.0,0.0,0.0,0.0,0.0,0.0,0.0,0.0,0.0,0.0,0.0,0.0,0.0,0.0,0.0,0.0,0.0,0.0,0.0,0.0,0.0,0.0,0.0,0.0,0.0,0.0,0.0,0.0,0.0,0.0,0.0,0.0,0.0,0.0,0.0,0.0,0.0,0.0,0.0,0.0,0.0,0.0,0.0,0.0,0.0,0.0,-0.4785,0.0,0.0,0.0,0.0,0.0,0.0,0.0,0.0,0.0,0.0,0.0,0.0,0.0,0.0,0.0,0.0,0.0,0.0,0.0,0.0,0.0,0.0,0.0,0.0,0.0,0.0,0.0,0.0,0.0,0.0,0.0,0.0,0.0,0.0,0.0,0.0,0.0,0.0,0.0,0.0,0.0,0.0,0.0,0.0,0.0,0.0,0.0,0.0,0.0,0.0,0.0,0.0,0.0,0.0,0.0,0.0,0.0,0.0,0.0,-0.5504,-0.4423,-0.3785,-0.3465,-0.3544,-0.4604,-0.553,0.0,0.0,0.0,0.0,0.0,0.0,0.0,0.0,0.0,0.0,0.0,0.0,0.0,0.0,0.0,0.0,0.0,0.0,0.0,0.0,0.0,0.0,0.0,0.0,0.0,0.0,0.0,0.0,0.0,0.0,0.0,0.0,0.0,0.0,0.0,0.0,0.0,0.0,0.0,0.0,0.0,0.0,0.0,0.0,0.0,0.0,0.0,0.0,0.0,0.0,0.0,0.0,0.0,0.0,0.0,0.0,0.0,0.0,0.0,0.0,0.0,0.0,0.0,0.0,0.0,0.0,0.0,0.0,0.0,0.0,0.0,0.0,0.0,0.0,0.0,0.0,0.0,0.0,0.0,0.0,0.0,0.0,0.0,0.0,0.0,0.0,0.0,0.0,0.0,0.0,0.0,0.0,0.0,0.0,0.0,0.0,0.0,0.0,0.0,0.0,0.0,0.0,0.0,0.0,0.0,0.0,0.0,-0.6659,-0.5634,-0.4231,-0.3606,-0.3368,-0.3453,-0.401,-0.4846,-0.5925,0.0,0.0,0.0,0.0,0.0,0.0,0.0,0.0,0.0,0.0,0.0,0.0,0.0,0.0,0.0,0.0,0.0,0.0,0.0,0.0,0.0,0.0,0.0,0.0,0.0,0.0,0.0,0.0,0.0,0.0,0.0,0.0,0.0,0.0,0.0,0.0,0.0,0.0,-0.5271,-0.4811,0.0,0.0,0.0,0.0,0.0,0.0,0.0,0.0,-0.372,0.0,0.0,0.0,0.0,0.0,0.0,0.0,0.0,0.0,0.0,0.0,0.0,0.0,0.0,0.0,0.0,0.0,0.0,0.0,0.0,0.0,0.0,0.0,0.0,0.0,0.0,0.0,0.0,0.0,0.0,0.0,0.0,0.0,0.0,0.0,0.0,0.0,0.0,0.0,0.0,0.0,0.0,0.0,0.0,0.0,0.0,0.0,0.0,0.0,0.0,0.0,0.0,0.0,0.0,0.0,0.0,-0.634,-0.5829,-0.4804,-0.3198,-0.3038,-0.3044,-0.3167,-0.3699,-0.4435,-0.5402,0.0,0.0,0.0,0.0,0.0,0.0,0.0,0.0,0.0,0.0,0.0,0.0,0.0,0.0,0.0,0.0,0.0,0.0,0.0,0.0,0.0,0.0,0.0,0.0,0.0,0.0,0.0,0.0,0.0,0.0,0.0,0.0,0.0,0.0,0.0,0.0,0.0,0.0,0.0,-0.4197,-0.3947,0.0,0.0,0.0,0.0,0.0,0.0,0.0,0.0,-0.296,0.0,0.0,0.0,0.0,0.0,0.0,0.0,0.0,0.0,0.0,0.0,0.0,0.0,0.0,0.0,0.0,0.0,0.0,0.0,0.0,0.0,0.0,0.0,0.0,0.0,0.0,0.0,0.0,0.0,0.0,0.0,0.0,0.0,0.0,0.0,0.0,0.0,0.0,0.0,0.0,0.0,0.0,0.0,0.0,0.0,0.0,0.0,0.0,0.0,0.0,0.0,0.0,0.0,0.0,0.0,-0.6294,-0.5122,-0.3957,-0.2948,-0.29,-0.2934,-0.2995,-0.3513,-0.4232,0.0,0.0,0.0,0.0,0.0,0.0,0.0,0.0,0.0,0.0,0.0,0.0,0.0,0.0,0.0,0.0,0.0,0.0,0.0,0.0,0.0,0.0,0.0,0.0,0.0,0.0,0.0,0.0,0.0,0.0,0.0,0.0,0.0,0.0,0.0,0.0,0.0,0.0,0.0,0.0,-0.3715,-0.3426,-0.3431,0.0,0.0,0.0,0.0,0.0,0.0,-0.2729,-0.2662,0.0,0.0,0.0,0.0,0.0,0.0,0.0,0.0,0.0,0.0,0.0,0.0,0.0,0.0,0.0,0.0,0.0,0.0,0.0,0.0,0.0,0.0,0.0,0.0,0.0,0.0,0.0,0.0,0.0,0.0,0.0,0.0,0.0,0.0,0.0,0.0,0.0,0.0,0.0,0.0,0.0,0.0,0.0,0.0,0.0,0.0,0.0,0.0,0.0,0.0,0.0,0.0,0.0,0.0,0.0,-0.6401,-0.4656,-0.3429,-0.2846,-0.2816,-0.2838,-0.2896,-0.3463,-0.4189,0.0,0.0,0.0,0.0,0.0,0.0,0.0,0.0,0.0,0.0,0.0,0.0,0.0,0.0,0.0,0.0,0.0,0.0,0.0,0.0,0.0,0.0,0.0,0.0,0.0,0.0,0.0,0.0,0.0,0.0,0.0,0.0,0.0,0.0,0.0,0.0,0.0,0.0,0.0,0.0,0.0,-0.3052,-0.294,-0.2632,0.0,0.0,0.0,0.0,-0.2435,-0.2443,0.0,0.0,0.0,0.0,0.0,0.0,0.0,0.0,0.0,0.0,0.0,0.0,0.0,0.0,0.0,0.0,0.0,0.0,0.0,0.0,0.0,0.0,0.0,0.0,0.0,0.0,0.0,0.0,0.0,0.0,0.0,0.0,0.0,0.0,0.0,0.0,0.0,0.0,0.0,0.0,0.0,0.0,0.0,0.0,0.0,0.0,0.0,0.0,0.0,0.0,0.0,0.0,0.0,0.0,0.0,0.0,-0.602,-0.4787,-0.362,-0.2602,-0.2554,-0.2636,-0.2812,-0.3669,-0.4294,0.0,0.0,0.0,0.0,0.0,0.0,0.0,0.0,0.0,0.0,0.0,0.0,0.0,0.0,0.0,0.0,0.0,0.0,0.0,0.0,0.0,0.0,0.0,0.0,0.0,0.0,0.0,0.0,0.0,0.0,0.0,0.0,0.0,0.0,0.0,0.0,0.0,0.0,0.0,0.0,0.0,-0.3005,-0.2764,-0.2539,-0.2437,0.0,0.0,-0.2158,-0.2221,-0.2098,0.0,0.0,0.0,0.0,0.0,0.0,0.0,0.0,0.0,0.0,0.0,0.0,0.0,0.0,0.0,0.0,0.0,0.0,0.0,0.0,0.0,0.0,0.0,0.0,0.0,0.0,0.0,0.0,0.0,0.0,0.0,0.0,0.0,0.0,0.0,0.0,0.0,0.0,0.0,0.0,0.0,0.0,0.0,0.0,0.0,0.0,0.0,0.0,0.0,0.0,0.0,0.0,0.0,0.0,0.0,-0.5249,-0.5582,-0.4051,-0.2989,-0.2524,-0.25,-0.2539,-0.2631,-0.3529,-0.4158,0.0,0.0,0.0,0.0,0.0,0.0,0.0,0.0,0.0,0.0,0.0,0.0,0.0,0.0,0.0,0.0,0.0,0.0,0.0,0.0,0.0,0.0,0.0,0.0,0.0,0.0,0.0,0.0,0.0,0.0,0.0,0.0,0.0,0.0,0.0,0.0,0.0,0.0,0.0,0.0,0.0,0.0,-0.2487,-0.2346,0.0,0.0,0.0,-0.1988,-0.1966,0.0,0.0,0.0,0.0,0.0,0.0,0.0,0.0,0.0,0.0,0.0,0.0,0.0,0.0,0.0,0.0,0.0,0.0,0.0,0.0,0.0,0.0,0.0,0.0,0.0,0.0,0.0,0.0,0.0,0.0,0.0,0.0,0.0,0.0,0.0,0.0,0.0,0.0,0.0,0.0,0.0,0.0,0.0,0.0,0.0,0.0,0.0,0.0,0.0,0.0,0.0,0.0,0.0,0.0,0.0,0.0,0.0,-0.5201,-0.3426,-0.2476,-0.25,-0.25,-0.25,-0.2514,-0.3303,0.0,0.0,0.0,0.0,0.0,0.0,0.0,0.0,0.0,0.0,0.0,0.0,0.0,0.0,0.0,0.0,0.0,0.0,0.0,0.0,0.0,0.0,0.0,0.0,0.0,0.0,0.0,-0.3333,0.0,0.0,0.0,0.0,0.0,0.0,0.0,0.0,0.0,0.0,0.0,0.0,0.0,0.0,-0.217,-0.2214,-0.2094,-0.1982,0.0,0.0,-0.1846,-0.1795,-0.1679,-0.1636,0.0,0.0,0.0,0.0,0.0,0.0,0.0,0.0,0.0,0.0,0.0,0.0,0.0,0.0,0.0,0.0,0.0,0.0,0.0,0.0,0.0,0.0,0.0,0.0,0.0,0.0,0.0,0.0,0.0,0.0,0.0,0.0,0.0,0.0,0.0,0.0,0.0,0.0,0.0,0.0,0.0,0.0,0.0,0.0,0.0,0.0,0.0,0.0,0.0,0.0,0.0,0.0,0.0,0.0,0.0,-0.4852,-0.3266,-0.2427,-0.2495,-0.25,-0.25,-0.2505,-0.2977,-0.3457,0.0,0.0,0.0,0.0,0.0,0.0,0.0,0.0,0.0,0.0,0.0,0.0,0.0,0.0,0.0,0.0,0.0,0.0,0.0,0.0,0.0,0.0,0.0,0.0,0.0,0.0,0.0,0.0,0.0,0.0,0.0,0.0,0.0,0.0,0.0,0.0,0.0,0.0,0.0,0.0,0.0,-0.2221,-0.2065,-0.1855,-0.1707,0.0,0.0,-0.1782,-0.1706,-0.1497,-0.1406,-0.1669,0.0,0.0,0.0,0.0,0.0,0.0,0.0,0.0,0.0,0.0,0.0,0.0,0.0,0.0,0.0,0.0,0.0,0.0,0.0,0.0,0.0,0.0,0.0,0.0,0.0,0.0,0.0,0.0,0.0,0.0,0.0,0.0,0.0,0.0,0.0,0.0,0.0,0.0,0.0,0.0,0.0,0.0,0.0,0.0,0.0,0.0,0.0,0.0,0.0,0.0,0.0,0.0,0.0,-0.4241,-0.4692,-0.3023,-0.2158,-0.2197,-0.2232,-0.2252,-0.2246,-0.2699,-0.3126,0.0,0.0,0.0,0.0,0.0,0.0,0.0,0.0,0.0,0.0,0.0,0.0,0.0,0.0,0.0,0.0,0.0,0.0,0.0,0.0,0.0,0.0,0.0,0.0,0.0,0.0,0.0,0.0,-0.2266,-0.2271,-0.2299,0.0,0.0,0.0,0.0,0.0,0.0,0.0,0.0,0.0,0.0,-0.1847,-0.1665,-0.1745,0.0,0.0,-0.1644,-0.1745,-0.1756,-0.147,-0.1284,-0.1433,-0.1235,0.0,0.0,0.0,0.0,0.0,0.0,0.0,0.0,0.0,0.0,0.0,0.0,0.0,0.0,0.0,0.0,0.0,0.0,0.0,0.0,0.0,0.0,0.0,0.0,0.0,0.0,0.0,0.0,0.0,0.0,0.0,0.0,0.0,0.0,0.0,0.0,0.0,0.0,0.0,0.0,0.0,0.0,0.0,0.0,0.0,0.0,0.0,0.0,0.0,0.0,0.0,0.0,-0.4261,-0.457,-0.2962,-0.2122,-0.213,-0.2081,-0.2074,-0.2082,-0.241,-0.2806,0.0,0.0,0.0,0.0,0.0,0.0,0.0,0.0,0.0,0.0,0.0,0.0,0.0,0.0,0.0,0.0,0.0,0.0,0.0,0.0,0.0,0.0,0.0,0.0,0.0,0.0,0.0,0.0,-0.2046,-0.1953,-0.1944,0.0,0.0,0.0,0.0,0.0,0.0,0.0,0.0,0.0,0.0,-0.1537,-0.1471,-0.1598,-0.162,-0.1407,-0.1434,-0.1459,-0.1473,-0.1273,-0.1154,-0.1252,0.0,0.0,0.0,0.0,0.0,0.0,0.0,0.0,0.0,0.0,0.0,0.0,0.0,0.0,0.0,0.0,0.0,0.0,0.0,0.0,0.0,0.0,0.0,0.0,0.0,0.0,0.0,0.0,0.0,0.0,-0.9232,0.0,0.0,0.0,0.0,0.0,0.0,0.0,0.0,0.0,0.0,0.0,0.0,0.0,0.0,0.0,0.0,0.0,0.0,0.0,0.0,0.0,0.0,0.0,-0.448,-0.3095,-0.2394,-0.2383,-0.2143,-0.2017,-0.2016,-0.2066,-0.2451,-0.3174,0.0,0.0,0.0,0.0,0.0,0.0,0.0,0.0,0.0,0.0,0.0,0.0,0.0,0.0,0.0,0.0,0.0,0.0,0.0,0.0,0.0,0.0,0.0,0.0,0.0,0.0,-0.2667,-0.2335,-0.1998,0.0,0.0,0.0,0.0,0.0,0.0,0.0,0.0,0.0,0.0,-0.1478,-0.1384,-0.1553,-0.1368,-0.1199,-0.1113,-0.1,-0.0871,-0.0763,-0.0837,-0.0968,0.0,0.0,0.0,0.0,0.0,0.0,0.0,0.0,0.0,0.0,0.0,0.0,0.0,0.0,0.0,0.0,0.0,0.0,0.0,0.0,0.0,0.0,0.0,0.0,0.0,0.0,0.0,-0.6517,-0.7009,0.0,0.0,0.0,0.0,0.0,0.0,0.0,0.0,0.0,0.0,0.0,-0.5559,-0.5037,0.0,0.0,0.0,0.0,0.0,0.0,0.0,0.0,0.0,0.0,0.0,0.0,-0.4127,-0.3933,-0.2896,-0.2324,-0.2328,-0.2161,-0.2057,-0.2079,-0.193,-0.2058,-0.2515,0.0,0.0,0.0,0.0,0.0,0.0,0.0,0.0,0.0,0.0,0.0,0.0,0.0,0.0,0.0,0.0,0.0,0.0,0.0,0.0,0.0,0.0,0.0,0.0,0.0,-0.2635,0.0,0.0,0.0,0.0,0.0,0.0,0.0,0.0,0.0,0.0,0.0,-0.1384,-0.1427,-0.147,-0.1407,-0.1169,-0.1059,-0.0956,0.0,0.0,0.0,0.0,0.0,0.0,0.0,0.0,0.0,0.0,0.0,0.0,0.0,0.0,-0.1395,-0.114,-0.1314,-0.1324,-0.0758,0.0,0.0,0.0,0.0,0.0,0.0,0.0,0.0,0.0,0.0,0.0,0.0,0.0,0.0,-0.6187,0.0,-0.6625,0.0,0.0,0.0,0.0,0.0,0.0,0.0,0.0,-0.5268,-0.4708,-0.4473,-0.4122,-0.3957,0.0,-0.4086,-0.4234,0.0,0.0,0.0,0.0,0.0,0.0,0.0,0.0,-0.4049,-0.3739,-0.2862,-0.2398,-0.2398,-0.2239,-0.213,-0.2042,-0.1914,-0.1944,-0.2161,-0.2538,-0.2823,0.0,0.0,0.0,0.0,0.0,0.0,0.0,0.0,0.0,0.0,0.0,0.0,0.0,0.0,0.0,0.0,0.0,0.0,0.0,0.0,0.0,0.0,0.0,-0.2225,0.0,0.0,0.0,0.0,0.0,0.0,0.0,0.0,0.0,-0.1158,-0.1184,-0.118,-0.1198,-0.1291,-0.1256,-0.0981,0.0,0.0,0.0,0.0,0.0,0.0,0.0,-0.048,-0.0475,-0.0425,-0.0331,-0.0135,-0.0478,-0.0753,-0.0616,0.0,0.0,-0.097,-0.1102,-0.1079,-0.0596,-0.041,-0.0369,-0.0479,-0.0156,0.0145,0.0,0.0,0.0,0.0,0.0,0.0,0.0,0.0,-0.5769,-0.6134,0.0,-0.6446,0.0,0.0,0.0,0.0,0.0,0.0,0.0,0.0,-0.4325,-0.388,-0.371,-0.3676,-0.347,-0.3125,-0.3474,-0.3523,-0.3366,-0.4626,0.0,0.0,0.0,0.0,0.0,0.0,-0.4205,-0.3832,-0.3014,-0.2601,-0.2604,-0.241,-0.2184,-0.1936,-0.2032,-0.2098,-0.2121,-0.2413,-0.2699,-0.2961,-0.2926,0.0,0.0,0.0,0.0,0.0,0.0,0.0,0.0,0.0,0.0,0.0,0.0,0.0,0.0,0.0,0.0,0.0,0.0,0.0,0.0,-0.1743,0.0,0.0,0.0,0.0,0.0,0.0,0.0,0.0,0.0,0.0,-0.1029,-0.0922,-0.086,-0.095,0.0,0.0,0.0,0.0,-0.0602,-0.065,-0.0491,-0.0356,-0.0371,-0.0685,-0.0872,-0.0767,0.0,0.0,-0.0729,-0.1074,-0.1275,-0.1018,-0.1077,-0.1156,-0.0816,-0.0918,-0.0979,-0.072,-0.0476,-0.0481,-0.0719,-0.0327,-0.0017,-0.676,0.0,0.0,0.0,0.0,-0.6507,-0.6234,-0.6431,-0.5838,-0.5545,-0.5508,-0.5425,0.0,0.0,0.0,0.0,0.0,0.0,-0.4576,-0.4373,-0.3807,-0.3558,-0.3474,-0.3193,-0.2989,-0.2888,-0.2864,-0.2812,-0.2761,-0.329,-0.3755,-0.4152,0.0,0.0,0.0,0.0,-0.3542,-0.3131,-0.2821,-0.2696,-0.274,-0.2586,-0.2384,-0.2119,-0.2007,-0.2054,-0.2226,-0.2202,-0.2307,-0.2628,-0.276,0.0,0.0,0.0,0.0,0.0,0.0,0.0,0.0,0.0,0.0,0.0,0.0,0.0,0.0,0.0,0.0,0.0,0.0,0.0,-0.1462,-0.1537,-0.1642,0.0,0.0,0.0,0.0,0.0,0.0,0.0,0.0,0.0,-0.0599,-0.0788,-0.0875,0.0,0.0,-0.0919,-0.0181,-0.0155,-0.0168,0.0037,0.0,0.0,0.0,0.0075,0.0029,-0.0075,-0.0206,-0.0275,-0.0214,-0.0187,-0.0172,-0.0266,-0.031,-0.0261,-0.0169,-0.0489,-0.0655,-0.0295,-0.0075,0.0062,0.0177,0.0425,0.0594,-0.6276,-0.6598,-0.6631,-0.679,-0.7,-0.6201,-0.5965,-0.6029,-0.5248,-0.4935,-0.4989,-0.4686,-0.4653,-0.4793,-0.4537,0.0,0.0,0.0,-0.3797,-0.3598,-0.3391,-0.3221,-0.3101,-0.29,-0.2737,-0.2632,-0.2576,-0.2534,-0.2508,-0.2713,-0.3032,-0.3459,0.0,0.0,-0.3456,-0.3306,-0.3103,-0.2814,-0.2669,-0.2637,-0.2686,-0.2573,-0.2439,-0.228,-0.2116,-0.2059,-0.2136,-0.2021,-0.2057,-0.224,-0.2412,-0.2517,0.0,0.0,0.0,0.0,0.0,0.0,0.0,0.0,0.0,0.0,0.0,-0.1416,0.0,0.0,0.0,0.0,-0.152,-0.1553,-0.1195,-0.1274,0.0,0.0,0.0,0.0,0.0,0.0,0.0,-0.0471,-0.0399,-0.0349,-0.0329,-0.0568,-0.0624,-0.0306,-0.0449,-0.038,0.0204,0.0,0.0055,0.0248,0.0371,0.0382,0.021,0.0244,0.0269,0.0221,0.0178,0.0104,0.0015,0.0115,0.0142,0.0029,-0.0015,0.0015,0.0095,-0.0186,-0.0302,0.0076,0.0143,0.0214,0.0363,0.0443,0.0489,-0.5887,-0.565,-0.6129,-0.6175,-0.5924,-0.5591,-0.5262,-0.4939,-0.4314,-0.4386,-0.4877,-0.4204,-0.4255,-0.4805,-0.4201,0.0,0.0,-0.33,-0.3091,-0.2902,-0.3023,-0.296,-0.2721,-0.2772,-0.2649,-0.2443,-0.2527,-0.255,-0.2501,-0.2647,-0.2729,-0.2732,-0.295,-0.3098,-0.3171,-0.2955,-0.2823,-0.2777,-0.2613,-0.2526,-0.2503,-0.2411,-0.2377,-0.2384,-0.2234,-0.2093,-0.1949,-0.1894,-0.1894,-0.1893,-0.1967,-0.197,-0.1886,0.0,0.0,0.0,0.0,0.0,0.0,0.0,0.0,0.0,0.0,0.0,0.0,0.0,0.0,0.0,-0.154,0.0,-0.1085,-0.0992,0.0,0.0,0.0,-0.0456,-0.0431,-0.0403,-0.0309,-0.0114,0.0,0.0,0.0,0.0,-0.0209,0.009,0.0289,0.0407,0.0326,0.0213,0.0133,0.0165,0.0032,-0.003,0.0084,0.0028,0.0028,0.0098,0.0169,0.0115,0.0029,0.0029,0.0,-0.0015,-0.0077,-0.011,0.0,0.0017,0.0118,0.0418,0.028,0.0127,0.0183,0.0095,0.0099,-0.4784,-0.4718,-0.4846,-0.5179,-0.5563,-0.5138,-0.4921,-0.4832,-0.457,-0.4409,-0.4299,-0.4035,-0.3785,-0.3619,-0.3296,-0.3132,-0.3099,-0.3001,-0.2953,-0.2902,-0.2937,-0.2898,-0.2855,-0.2773,-0.2681,-0.2633,-0.2498,-0.2437,-0.2407,-0.2216,-0.212,-0.2104,-0.1877,-0.2194,-0.3016,-0.3077,-0.293,-0.258,-0.2665,-0.2653,-0.2513,-0.2235,-0.2137,-0.2236,-0.1972,-0.192,-0.2124,-0.1914,-0.1805,-0.1753,-0.1956,-0.1989,-0.1762,-0.1798,0.0,0.0,0.0,0.0,0.0,0.0,0.0,0.0,0.0,-0.1412,-0.1079,0.0,-0.1553,0.0,-0.1497,-0.1246,-0.0689,-0.0637,0.0,0.0,-0.0461,-0.0353,-0.0599,-0.0355,-0.0131,-0.0048,-0.005,-0.0067,-0.0065,0.0135,0.0286,0.0336,0.0017,-0.0018,0.0382,0.0337,0.0309,0.0443,0.0417,0.0371,0.034,0.0027,-0.0195,-0.0251,-0.0091,0.0016,-0.0048,0.029,0.0454,0.0115,0.0148,0.0199,0.0117,0.0235,0.0521,0.081,0.0492,0.0166,0.0421,0.0521,0.0642,-0.4458,-0.4212,-0.4285,-0.4513,-0.481,-0.4511,-0.4363,-0.4291,-0.4133,-0.3966,-0.3798,-0.3696,-0.3532,-0.3278,-0.3146,-0.3084,-0.3064,-0.2944,-0.2894,-0.2894,-0.2874,-0.2841,-0.2803,-0.2755,-0.2636,-0.2427,-0.253,-0.2415,-0.209,-0.202,-0.1923,-0.1765,-0.1542,-0.1758,-0.2338,-0.2367,-0.2263,-0.2116,-0.2208,-0.2234,-0.2183,-0.2127,-0.2101,-0.2111,-0.2045,-0.203,-0.2069,-0.1926,-0.1783,-0.1624,-0.1761,-0.1757,-0.163,-0.165,-0.1634,0.0,0.0,0.0,0.0,0.0,0.0,0.0,0.0,0.0,0.0,0.0,-0.1494,0.0,-0.1579,0.0,-0.0688,-0.0712,-0.0685,-0.0469,-0.0249,-0.0184,-0.0368,-0.0187,-0.0043,0.0,0.0,0.0,0.0,0.0153,0.0271,0.0231,-0.0029,0.0,0.0566,0.062,0.0599,0.0779,0.0741,0.0669,0.0652,0.039,0.0205,0.0232,0.034,0.0391,0.0217,0.0543,0.0701,0.0333,0.0445,0.0621,0.0567,0.0639,0.083,0.0783,0.0571,0.05,0.0836,0.0857,0.0887,-0.4425,-0.3958,-0.4077,-0.4048,-0.3906,-0.3869,-0.3811,-0.3719,-0.3515,-0.3421,-0.3423,-0.3383,-0.3392,-0.339,-0.331,-0.328,-0.3253,-0.3047,-0.2937,-0.2909,-0.285,-0.2745,-0.2641,-0.269,-0.245,-0.2029,-0.2414,-0.2279,-0.1689,-0.1874,-0.1811,-0.1537,-0.1489,-0.1475,-0.1487,-0.1307,-0.1343,-0.1628,-0.1588,-0.1605,-0.1771,-0.1963,-0.203,-0.1975,-0.2161,-0.2171,-0.1922,-0.1896,-0.1779,-0.1541,-0.1553,-0.1518,-0.1475,-0.1478,-0.1473,0.0,-0.1508,0.0,0.0,0.0,0.0,0.0,0.0,0.0,0.0,-0.1299,-0.1368,-0.1552,-0.166,-0.146,-0.0815,-0.0924,-0.0741,-0.0076,0.0,0.0,0.0,0.0,0.0,0.0,0.0,0.0,0.0,0.0,0.0,0.0,0.0,0.022,0.0802,0.0815,0.0785,0.1041,0.0971,0.0819,0.0731,0.0705,0.0722,0.0845,0.0859,0.0849,0.0566,0.0739,0.0817,0.0593,0.0697,0.0877,0.1035,0.1027,0.0957,0.0746,0.0681,0.0772,0.1059,0.0984,0.0853,-0.3776,-0.369,-0.3704,-0.3611,-0.3438,-0.3586,-0.3732,-0.3852,-0.3709,-0.3616,-0.3549,-0.3404,-0.3348,-0.3382,-0.3217,-0.3141,-0.3122,-0.3076,-0.3064,-0.3055,-0.2932,-0.2684,-0.2297,-0.2191,-0.1911,-0.1472,-0.154,-0.1573,-0.154,-0.1262,-0.114,-0.1174,-0.0859,-0.0793,-0.0941,0.0,0.0,0.0,-0.1426,-0.1337,-0.1614,-0.1464,-0.1492,-0.1681,-0.1617,0.0,-0.196,-0.1918,-0.1858,-0.1755,-0.1802,0.0,0.0,0.0,0.0,0.0,0.0,0.0,0.0,0.0,0.0,0.0,-0.1419,-0.1278,-0.1154,-0.1296,-0.1372,-0.1367,-0.1328,-0.1106,-0.062,-0.0539,-0.0361,0.0014,0.0041,0.0,0.0,0.0,0.0,0.0,0.0,0.0,0.0,0.0,0.0,0.0,0.0,0.0,0.0671,0.0655,0.0632,0.0809,0.0856,0.075,0.05,0.0495,0.0532,0.0457,0.0582,0.066,0.0678,0.0835,0.0899,0.0698,0.07,0.0762,0.0772,0.0791,0.0844,0.0972,0.0993,0.098,0.0911,0.0858,0.0896,-0.3214,0.0,-0.3212,-0.3169,0.0,-0.3326,-0.3507,-0.366,-0.3639,-0.3641,-0.3597,-0.3497,-0.3463,-0.3502,-0.3402,-0.3346,-0.3344,-0.3248,-0.3214,-0.3185,-0.2755,-0.2428,-0.2181,-0.1817,-0.1432,-0.1066,-0.122,-0.117,-0.0906,-0.0907,-0.0842,-0.0757,-0.0555,-0.0505,-0.0605,-0.0505,-0.0756,-0.1343,-0.1078,-0.1047,-0.1246,-0.1225,-0.1231,-0.1301,0.0,0.0,0.0,0.0,0.0,0.0,0.0,0.0,0.0,0.0,0.0,-0.1204,-0.1267,-0.1266,-0.1217,-0.123,-0.1305,-0.1402,-0.1371,-0.1306,-0.1239,-0.1215,-0.1183,-0.1108,-0.1019,-0.0772,-0.0361,-0.0319,-0.0213,0.0089,0.0114,0.0098,0.0056,0.004,0.0039,0.0,0.0,0.0,0.0,0.0,0.0,0.0,0.0,0.0138,0.0461,0.0575,0.0705,0.0982,0.1015,0.0941,0.0779,0.0715,0.0686,0.0708,0.0754,0.0756,0.0716,0.0903,0.0977,0.0769,0.0791,0.0892,0.0892,0.0892,0.0943,0.1061,0.1094,0.1078,0.1004,0.1021,0.1085,-0.287,-0.2869,-0.287,-0.2936,-0.3058,-0.3135,-0.3265,-0.3374,0.0,0.0,0.0,-0.3578,-0.3534,-0.3532,-0.3532,-0.3532,-0.3525,-0.3339,-0.3304,-0.3278,-0.2648,-0.2254,-0.2115,-0.1569,-0.1074,-0.0684,-0.094,-0.0775,-0.0294,-0.06,-0.0631,-0.0409,-0.0372,-0.0404,-0.0404,-0.0404,-0.0521,-0.074,-0.0774,-0.0822,-0.0894,-0.1049,-0.11,-0.1016,-0.1175,-0.1241,-0.1239,-0.124,-0.1255,-0.1237,-0.1245,-0.1271,-0.1284,-0.1284,-0.1346,-0.1449,-0.1372,-0.1313,-0.1304,-0.123,-0.1203,-0.1218,-0.1304,-0.1345,-0.1395,-0.113,-0.095,-0.0879,-0.0727,-0.0483,-0.0114,-0.0189,-0.0132,0.0204,0.0215,0.0178,0.0143,0.012,0.0102,0.0064,0.0,0.0,0.0,0.0,0.0,0.0,0.0,0.014,0.0441,0.0698,0.0959,0.1303,0.1346,0.1274,0.1211,0.1153,0.1136,0.1175,0.1106,0.1008,0.0892,0.0951,0.0982,0.0838,0.0976,0.1078,0.1111,0.1128,0.1145,0.1193,0.1194,0.121,0.1248,0.1331,0.1342,-0.3156,-0.3158,-0.3139,-0.3171,-0.319,-0.3188,-0.3197,-0.326,-0.3488,-0.3534,-0.3442,-0.3442,-0.3374,-0.326,-0.326,-0.326,-0.326,-0.3241,-0.3278,0.0,-0.3055,-0.2511,-0.1838,-0.1514,-0.0936,-0.0175,-0.0155,-0.0155,-0.0153,-0.0202,-0.0234,-0.0305,-0.031,-0.0354,-0.0404,-0.0471,-0.0505,-0.0538,-0.0673,-0.0754,-0.0798,-0.0898,-0.0994,-0.1082,-0.1046,-0.105,-0.1049,-0.1037,-0.1045,-0.1048,-0.109,-0.1145,-0.1214,-0.1267,-0.1318,-0.1315,-0.1315,-0.1311,-0.1311,-0.1227,-0.1218,-0.1293,-0.1396,-0.1423,-0.1307,-0.1007,-0.0823,-0.0805,-0.0566,-0.0304,0.0015,-0.0048,0.0033,0.0296,0.0273,0.0217,0.027,0.0219,0.0208,0.0246,0.0138,0.0095,0.0083,0.0042,0.0,0.0,0.0,0.0198,0.0706,0.1062,0.1346,0.1641,0.1736,0.1675,0.1584,0.1604,0.1554,0.1543,0.1405,0.1312,0.1216,0.1157,0.1127,0.1069,0.1111,0.1161,0.1246,0.1263,0.1329,0.1459,0.1476,0.1501,0.1504,0.1586,0.1625,-0.2978,-0.3038,-0.3043,-0.3041,-0.3043,-0.3059,-0.3146,-0.3214,-0.3328,-0.335,-0.3282,-0.3306,-0.326,-0.3214,-0.3214,-0.3214,-0.3214,-0.3214,-0.3236,-0.3257,-0.2826,-0.2431,-0.2057,-0.1596,-0.1042,-0.0408,-0.0366,-0.0261,-0.0059,-0.0096,-0.0133,-0.019,-0.0185,-0.0183,-0.0201,-0.0321,-0.0404,-0.0404,-0.0529,-0.0605,-0.0639,-0.0673,-0.073,-0.0835,-0.0828,-0.0833,-0.0835,-0.0867,-0.0908,-0.0894,-0.0922,-0.0936,-0.0992,-0.1049,-0.1118,-0.1189,-0.1217,-0.126,-0.1315,-0.1267,-0.1246,-0.1254,-0.141,-0.149,-0.1461,-0.1113,-0.0814,-0.0591,-0.0311,-0.0015,0.0277,0.0276,0.0282,0.0434,0.0397,0.0369,0.035,0.0336,0.0299,0.0294,0.0253,0.0214,0.0206,0.0118,0.006,0.0046,0.0016,0.0264,0.0929,0.1133,0.1344,0.1689,0.1798,0.1804,0.1767,0.1712,0.1691,0.1664,0.1581,0.1501,0.1473,0.139,0.1375,0.1367,0.1377,0.1393,0.146,0.1478,0.1511,0.1542,0.159,0.159,0.1618,0.1751,0.1883,-0.272,-0.2806,-0.2806,-0.2821,-0.2846,-0.2909,-0.3011,-0.3129,-0.3127,-0.3127,-0.3129,-0.3127,-0.3146,-0.3127,-0.3127,-0.3109,-0.3089,-0.3115,-0.3134,-0.3087,-0.2648,-0.239,-0.2256,-0.1768,-0.1297,-0.0918,-0.0851,-0.0669,-0.0345,-0.0381,-0.0317,-0.0236,-0.0157,-0.0079,-0.0039,-0.0208,-0.0313,-0.0309,-0.0403,-0.046,-0.0488,-0.0488,-0.0526,-0.0568,-0.062,-0.0662,-0.0645,-0.0691,-0.0715,-0.0714,-0.0714,-0.076,-0.0799,-0.0859,-0.0944,-0.1075,-0.1132,-0.1193,-0.1251,-0.1214,-0.1203,-0.1173,-0.132,-0.1459,-0.1503,-0.1242,-0.0864,-0.0459,-0.0046,0.0267,0.0428,0.049,0.0495,0.049,0.0496,0.0473,0.0429,0.0406,0.0406,0.0351,0.0338,0.0315,0.031,0.022,0.016,0.0149,0.0151,0.0454,0.0959,0.1111,0.1323,0.1576,0.178,0.1879,0.1852,0.1836,0.1808,0.1785,0.1722,0.1703,0.1674,0.1641,0.1607,0.1574,0.1574,0.1591,0.1641,0.1674,0.1692,0.1727,0.1781,0.179,0.1859,0.2052,0.2226,-0.2527,-0.2533,-0.2546,-0.2601,-0.2723,-0.2728,-0.2836,-0.2926,-0.2911,-0.2911,-0.2954,-0.2991,-0.2996,-0.2933,-0.2937,-0.2883,-0.2773,-0.2863,-0.2941,-0.2939,-0.2861,-0.2639,-0.2318,-0.2097,-0.1783,-0.1378,-0.1334,-0.1282,-0.1185,-0.1232,-0.1044,-0.0651,-0.0295,-0.0118,-0.0118,-0.0235,-0.0305,-0.031,-0.0308,-0.0371,-0.0489,-0.0488,-0.0486,-0.0517,-0.0507,-0.0522,-0.0534,-0.0449,-0.0437,-0.0436,-0.0492,-0.0604,-0.0788,-0.087,-0.0948,-0.1012,-0.106,-0.1118,-0.1093,-0.1014,-0.0988,-0.1094,-0.112,-0.1199,-0.1305,-0.1239,-0.0966,-0.0511,0.0099,0.0415,0.0483,0.0486,0.0486,0.0481,0.0493,0.0486,0.0486,0.0489,0.0483,0.0478,0.0425,0.0398,0.038,0.0315,0.0283,0.0285,0.0437,0.0656,0.0858,0.1061,0.1244,0.1422,0.1732,0.2007,0.2006,0.2064,0.1995,0.2011,0.1979,0.1878,0.1793,0.1726,0.1674,0.1691,0.1641,0.1691,0.181,0.1878,0.1897,0.1997,0.2107,0.225,0.237,0.2506,0.2605,-0.2486,-0.26,-0.2531,-0.2594,-0.2706,-0.2782,-0.2865,-0.2886,-0.2911,-0.2911,-0.2911,-0.293,-0.2948,-0.2974,-0.2975,-0.2924,-0.2885,-0.2928,-0.2891,-0.2784,-0.2802,-0.2693,-0.2562,-0.2477,-0.2224,-0.1829,-0.1811,-0.1677,-0.1429,-0.1408,-0.1297,-0.113,-0.0936,-0.0744,-0.0509,-0.0579,-0.05,-0.0191,-0.0259,-0.0319,-0.0372,-0.042,-0.0454,-0.0486,-0.0493,-0.0487,-0.0486,-0.0476,-0.0455,-0.0471,-0.0485,-0.0538,-0.0616,-0.0714,-0.0812,-0.0878,-0.103,-0.1066,-0.0927,-0.0909,-0.0892,-0.0942,-0.0958,-0.1052,-0.1158,-0.0943,-0.0723,-0.0605,-0.0235,0.0151,0.042,0.0488,0.0488,0.0486,0.0493,0.0491,0.0485,0.0494,0.0492,0.0486,0.0471,0.0454,0.0454,0.0404,0.037,0.0353,0.0471,0.0589,0.0808,0.0943,0.1078,0.1279,0.1514,0.1581,0.1615,0.1966,0.195,0.1681,0.1661,0.1742,0.1726,0.1691,0.1674,0.186,0.1878,0.1911,0.1996,0.2019,0.2045,0.22,0.2405,0.2565,0.269,0.2791,0.2888,-0.2361,-0.2516,-0.2454,-0.2504,-0.2664,-0.2787,-0.288,-0.2911,-0.2911,-0.2911,-0.2911,-0.2911,-0.2936,-0.299,-0.3001,-0.2986,-0.2961,-0.3041,-0.2941,-0.2758,-0.2787,-0.2767,-0.276,-0.2757,-0.2589,-0.2324,-0.2288,-0.2147,-0.1814,-0.1634,-0.1588,-0.1588,-0.1477,-0.1232,-0.0937,-0.0866,-0.0669,-0.034,-0.0286,-0.0272,-0.0311,-0.0372,-0.042,-0.0471,-0.0471,-0.0471,-0.0488,-0.0488,-0.0488,-0.0488,-0.0512,-0.0512,-0.0488,-0.0596,-0.0683,-0.0723,-0.0861,-0.0877,-0.0789,-0.0774,-0.0791,-0.0791,-0.0824,-0.0892,-0.0943,-0.074,-0.0627,-0.0637,-0.0498,-0.0154,0.0286,0.0454,0.0488,0.0488,0.0488,0.0488,0.0488,0.0488,0.0487,0.0488,0.0488,0.0488,0.0488,0.0454,0.042,0.0437,0.0387,0.042,0.0707,0.0757,0.0824,0.1044,0.1162,0.1247,0.1245,0.1565,0.1615,0.1429,0.136,0.1509,0.1574,0.1623,0.1776,0.2047,0.2132,0.2183,0.2165,0.2174,0.2255,0.2423,0.2626,0.281,0.2941,0.3003,0.3109,-0.2112,-0.2146,-0.2263,-0.2383,-0.2523,-0.2674,-0.2787,-0.2911,-0.2911,-0.2911,-0.2911,-0.2911,-0.2933,-0.2992,-0.2997,-0.2965,-0.2926,-0.311,-0.3073,-0.2894,-0.2929,-0.2937,-0.2886,-0.2903,-0.2821,-0.265,-0.2734,-0.2776,-0.2755,-0.2323,-0.2079,-0.2054,-0.1674,-0.141,-0.132,-0.1002,-0.0786,-0.0812,-0.042,-0.0229,-0.0381,-0.0397,-0.0405,-0.042,-0.0404,-0.0437,-0.0488,-0.0488,-0.0488,-0.0488,-0.0564,-0.0567,-0.051,-0.0564,-0.0582,-0.054,-0.0528,-0.0588,-0.0667,-0.0589,-0.0589,-0.0673,-0.071,-0.0725,-0.0815,-0.0768,-0.0714,-0.0615,-0.0581,-0.0357,0.0034,0.0273,0.0423,0.0456,0.0488,0.0471,0.0488,0.0488,0.0488,0.0488,0.0488,0.0488,0.0488,0.0488,0.0471,0.0488,0.0488,0.0505,0.0521,0.0521,0.0555,0.0656,0.0858,0.1111,0.1179,0.1413,0.1346,0.1161,0.1177,0.1345,0.1544,0.1759,0.1996,0.2197,0.2278,0.2312,0.2317,0.2397,0.2521,0.2678,0.2863,0.3024,0.3139,0.3163,0.3252,-0.2143,-0.2243,-0.2373,-0.251,-0.2627,-0.2772,-0.2871,-0.2909,-0.2911,-0.2911,-0.2911,-0.2911,-0.2915,-0.2936,-0.2991,-0.3041,-0.3072,-0.3157,-0.3068,-0.2905,-0.2832,-0.2792,-0.2779,-0.2772,-0.28,-0.2852,-0.2867,-0.2911,-0.2879,-0.2613,-0.2529,-0.2573,-0.235,-0.2109,-0.1869,-0.1697,-0.1488,-0.12,-0.0804,-0.0652,-0.068,-0.0465,-0.0349,-0.0404,-0.0454,-0.0471,-0.0488,-0.0488,-0.0488,-0.0488,-0.0567,-0.0569,-0.0526,-0.0531,-0.0533,-0.0505,-0.0494,-0.0526,-0.0553,-0.0521,-0.0521,-0.0556,-0.0608,-0.0656,-0.0677,-0.0694,-0.0695,-0.0686,-0.0555,-0.0397,-0.0317,-0.0163,-0.0018,0.0141,0.0224,0.0304,0.0454,0.0488,0.0488,0.0488,0.0488,0.0488,0.0488,0.0488,0.0488,0.0488,0.0488,0.0488,0.0488,0.0488,0.0506,0.0505,0.0622,0.0707,0.0673,0.1158,0.1342,0.1125,0.1109,0.1409,0.1658,0.1792,0.2013,0.2279,0.2391,0.245,0.2462,0.2643,0.2778,0.2881,0.307,0.3224,0.3315,0.3349,0.342,-0.2204,-0.236,-0.2454,-0.2588,-0.2717,-0.2838,-0.2911,-0.2911,-0.2911,-0.2911,-0.2911,-0.2911,-0.2911,-0.2911,-0.2948,-0.3039,-0.3139,-0.3172,-0.3087,-0.293,-0.2839,-0.2802,-0.2771,-0.2765,-0.2787,-0.2824,-0.2852,-0.2848,-0.29,-0.2805,-0.2812,-0.2876,-0.2824,-0.2628,-0.2381,-0.2187,-0.1959,-0.1652,-0.1292,-0.1072,-0.1086,-0.0848,-0.0698,-0.0744,-0.0722,-0.0622,-0.0505,-0.0488,-0.0488,-0.0491,-0.0567,-0.0574,-0.0537,-0.0526,-0.0488,-0.0488,-0.0487,-0.0488,-0.0506,-0.0529,-0.0518,-0.0537,-0.0562,-0.0617,-0.0619,-0.0617,-0.0651,-0.0679,-0.0664,-0.0585,-0.0609,-0.0611,-0.0457,-0.0187,-0.0072,0.0053,0.0294,0.0345,0.0394,0.0473,0.0488,0.0488,0.0488,0.0488,0.0488,0.0488,0.0488,0.0506,0.0516,0.0535,0.054,0.0528,0.0542,0.0557,0.0552,0.0873,0.0979,0.0792,0.1025,0.1375,0.1709,0.1843,0.2078,0.2343,0.2493,0.2565,0.2694,0.2872,0.2989,0.3091,0.3267,0.3426,0.3485,0.3532,0.3556,-0.2249,-0.2461,-0.2509,-0.2557,-0.2693,-0.282,-0.2887,-0.2887,-0.2911,-0.2911,-0.2911,-0.2911,-0.2911,-0.2912,-0.2956,-0.2996,-0.3038,-0.3114,-0.3106,-0.301,-0.2968,-0.2948,-0.2878,-0.2868,-0.2821,-0.2769,-0.2722,-0.278,-0.2907,-0.2864,-0.2886,-0.2907,-0.2867,-0.2834,-0.2865,-0.2413,-0.2186,-0.2122,-0.1716,-0.15,-0.1588,-0.1469,-0.1379,-0.1393,-0.1192,-0.0925,-0.0555,-0.0504,-0.0488,-0.0507,-0.0567,-0.0601,-0.0594,-0.0536,-0.0488,-0.0488,-0.0489,-0.0489,-0.0509,-0.0549,-0.0583,-0.0606,-0.0612,-0.0609,-0.0629,-0.0615,-0.0649,-0.069,-0.0781,-0.0855,-0.0856,-0.0902,-0.0761,-0.0396,-0.033,-0.0228,-0.0055,0.0018,0.0143,0.0426,0.0505,0.0521,0.0521,0.0521,0.0521,0.0505,0.0491,0.0517,0.0573,0.0597,0.0615,0.061,0.0599,0.0564,0.0554,0.056,0.0481,0.0456,0.0858,0.1243,0.166,0.1895,0.2229,0.2503,0.2692,0.2776,0.2906,0.3074,0.3182,0.3292,0.3482,0.3578,0.3578,0.3578,0.36,-0.2278,-0.2361,-0.2372,-0.2455,-0.2564,-0.2716,-0.2775,-0.2775,-0.2865,-0.2911,-0.2911,-0.2911,-0.2911,-0.2894,-0.291,-0.2926,-0.295,-0.2987,-0.3,-0.3002,-0.2963,-0.291,-0.2897,-0.2911,-0.2869,-0.2838,-0.2832,-0.2848,-0.2867,-0.2809,-0.2801,-0.286,-0.2804,-0.2812,-0.2886,-0.2728,-0.2632,-0.2532,-0.2193,-0.196,-0.1815,-0.1645,-0.1521,-0.1374,-0.1377,-0.1292,-0.1173,-0.0755,-0.0504,-0.0505,-0.0566,-0.062,-0.0595,-0.0537,-0.0488,-0.0506,-0.0541,-0.0587,-0.0572,-0.0578,-0.0614,-0.062,-0.0642,-0.0658,-0.0663,-0.0657,-0.0693,-0.0704,-0.0728,-0.0756,-0.0782,-0.0867,-0.0799,-0.0559,-0.0481,-0.0407,-0.0184,-0.0035,0.0223,0.0558,0.0639,0.0639,0.0639,0.0622,0.0589,0.0526,0.0537,0.0592,0.0602,0.0624,0.0615,0.0606,0.0614,0.0609,0.0597,0.059,0.0529,0.0619,0.0971,0.1284,0.1667,0.2002,0.2353,0.261,0.28,0.2975,0.3131,0.3229,0.3319,0.343,0.3548,0.3602,0.3602,0.3602,0.3602,-0.23,-0.2361,-0.234,-0.2376,-0.2502,-0.2593,-0.2616,-0.2639,-0.2729,-0.2729,-0.2752,-0.2751,-0.2751,-0.2775,-0.2797,-0.2819,-0.2843,-0.2887,-0.293,-0.2964,-0.2932,-0.2889,-0.2911,-0.2911,-0.2911,-0.2911,-0.2887,-0.2911,-0.2884,-0.2819,-0.2813,-0.2885,-0.2832,-0.2834,-0.2905,-0.2909,-0.2868,-0.2767,-0.2558,-0.2371,-0.222,-0.2062,-0.1921,-0.1801,-0.1781,-0.1778,-0.1724,-0.1229,-0.0876,-0.0733,-0.0627,-0.0566,-0.0565,-0.0514,-0.0509,-0.0539,-0.0571,-0.0606,-0.062,-0.0628,-0.0646,-0.0651,-0.0694,-0.069,-0.0694,-0.0712,-0.0696,-0.0697,-0.0696,-0.0697,-0.0719,-0.0764,-0.0754,-0.065,-0.0696,-0.0583,-0.036,-0.0125,0.0069,0.0305,0.042,0.0505,0.0538,0.0606,0.0612,0.0588,0.0607,0.0618,0.0629,0.0634,0.0645,0.0652,0.0651,0.0641,0.0644,0.062,0.0618,0.084,0.1152,0.1453,0.1768,0.2066,0.2396,0.2578,0.2766,0.306,0.3202,0.3291,0.3381,0.351,0.36,0.3602,0.3602,0.3602,0.36,-0.2308,-0.2462,-0.2347,-0.2343,-0.2461,-0.2483,-0.2481,-0.2481,-0.2525,-0.2525,-0.2525,-0.2526,-0.2525,-0.2549,-0.2639,-0.2684,-0.2707,-0.2819,-0.2869,-0.2879,-0.2889,-0.2911,-0.2911,-0.2911,-0.2911,-0.2911,-0.2911,-0.2911,-0.2911,-0.2878,-0.2911,-0.2884,-0.2879,-0.2908,-0.2911,-0.2911,-0.29,-0.2835,-0.2751,-0.268,-0.2624,-0.2614,-0.2524,-0.2502,-0.2319,-0.2197,-0.2155,-0.1826,-0.149,-0.114,-0.0795,-0.0609,-0.0547,-0.0509,-0.0527,-0.0585,-0.0606,-0.0607,-0.0631,-0.068,-0.0697,-0.07,-0.0699,-0.0697,-0.0694,-0.0694,-0.0697,-0.0697,-0.0697,-0.0697,-0.0697,-0.0719,-0.0696,-0.0718,-0.0852,-0.0796,-0.0535,-0.0317,-0.0123,-0.0017,0.005,0.0169,0.0341,0.0443,0.0541,0.0686,0.0663,0.0614,0.073,0.0753,0.0732,0.0732,0.0701,0.0657,0.0635,0.0661,0.0638,0.0754,0.1089,0.1375,0.1663,0.1957,0.2338,0.2518,0.2747,0.3046,0.33,0.3399,0.3462,0.3564,0.3599,0.36,0.3622,0.3643,0.3687,-0.2242,-0.2266,-0.2242,-0.2265,-0.2287,-0.2328,-0.2368,-0.2367,-0.2458,-0.2482,-0.2503,-0.2503,-0.2504,-0.2503,-0.2526,-0.2549,-0.2593,-0.2684,-0.2751,-0.2775,-0.2865,-0.2887,-0.2911,-0.2911,-0.2911,-0.2911,-0.2911,-0.2911,-0.2911,-0.2911,-0.2911,-0.2911,-0.2911,-0.2911,-0.2911,-0.2911,-0.2838,-0.2783,-0.2847,-0.2746,-0.2615,-0.2667,-0.2631,-0.2526,-0.2509,-0.2491,-0.2483,-0.2206,-0.1901,-0.1573,-0.1206,-0.1017,-0.0993,-0.0731,-0.0586,-0.0635,-0.0656,-0.0672,-0.0665,-0.0689,-0.0705,-0.0707,-0.0713,-0.0697,-0.0697,-0.0697,-0.0697,-0.0697,-0.0697,-0.0697,-0.0697,-0.0697,-0.0697,-0.0714,-0.0815,-0.0774,-0.0528,-0.0382,-0.0256,0.0,0.007,0.0195,0.0339,0.034,0.0401,0.0684,0.0697,0.0591,0.0753,0.0867,0.0863,0.0812,0.0778,0.0686,0.065,0.0658,0.0675,0.0696,0.0902,0.1177,0.1401,0.1628,0.2066,0.2449,0.2697,0.2993,0.3315,0.3539,0.3595,0.3639,0.3661,0.3683,0.3728,0.3748,0.3796,-0.2201,-0.2201,-0.2201,-0.2201,-0.22,-0.2262,-0.2262,-0.2261,-0.2352,-0.2373,-0.2374,-0.2374,-0.2375,-0.2397,-0.2416,-0.2413,-0.2435,-0.2571,-0.2639,-0.2707,-0.2843,-0.2911,-0.2911,-0.2911,-0.2911,-0.2911,-0.2911,-0.2911,-0.2911,-0.2911,-0.2911,-0.2911,-0.2911,-0.2911,-0.2911,-0.2886,-0.2857,-0.2809,-0.2876,-0.2811,-0.2695,-0.2745,-0.2746,-0.2686,-0.2697,-0.274,-0.2698,-0.2573,-0.2309,-0.19,-0.1447,-0.1235,-0.141,-0.0843,-0.0653,-0.0867,-0.081,-0.0699,-0.0694,-0.071,-0.0696,-0.0697,-0.0697,-0.0697,-0.0697,-0.0697,-0.0697,-0.0697,-0.0697,-0.0697,-0.0697,-0.0697,-0.0697,-0.0692,-0.074,-0.0664,-0.0493,-0.0536,-0.0456,-0.0287,-0.0182,-0.0094,0.0169,0.0075,0.0251,0.0479,0.0546,0.0603,0.0733,0.0862,0.0986,0.0955,0.0894,0.0819,0.0807,0.0814,0.0786,0.0788,0.0817,0.1044,0.1239,0.1421,0.1743,0.2179,0.2556,0.292,0.3242,0.3553,0.3751,0.3792,0.379,0.3768,0.379,0.3702,0.3792,-0.2201,-0.2201,-0.2201,-0.2201,-0.2201,-0.2201,-0.22,-0.2201,-0.2223,-0.2221,-0.2222,-0.2201,-0.2222,-0.2201,-0.2283,-0.2303,-0.2303,-0.2437,-0.2571,-0.2683,-0.2797,-0.2821,-0.2911,-0.2911,-0.2911,-0.2911,-0.2911,-0.2911,-0.2911,-0.2911,-0.2911,-0.2911,-0.2911,-0.2911,-0.2911,-0.2911,-0.2911,-0.2876,-0.29,-0.2879,-0.2845,-0.2882,-0.2875,-0.2848,-0.2843,-0.2869,-0.2878,-0.2834,-0.2673,-0.2291,-0.1551,-0.1525,-0.1781,-0.1039,-0.0874,-0.1174,-0.1022,-0.0823,-0.0712,-0.0695,-0.0697,-0.0697,-0.0697,-0.0697,-0.0697,-0.0697,-0.0697,-0.0697,-0.0697,-0.0697,-0.0697,-0.0697,-0.0697,-0.0693,-0.0692,-0.0667,-0.0646,-0.0716,-0.0769,-0.0695,-0.0577,-0.0512,-0.0376,-0.0258,-0.008,0.0376,0.0421,0.0467,0.0631,0.0822,0.0986,0.1118,0.107,0.0996,0.0971,0.0974,0.095,0.0932,0.0854,0.0977,0.1162,0.1333,0.1513,0.1808,0.2187,0.2636,0.3081,0.3391,0.3704,0.3858,0.379,0.3812,0.3814,0.3636,0.3615,-0.2201,-0.2201,-0.2201,-0.2201,-0.2201,-0.2201,-0.2201,-0.2201,-0.2201,-0.2201,-0.2201,-0.2201,-0.2201,-0.2201,-0.222,-0.2242,-0.222,-0.2327,-0.2458,-0.2683,-0.2593,-0.2729,-0.2843,-0.2887,-0.2911,-0.2911,-0.2911,-0.2911,-0.2911,-0.2911,-0.2911,-0.2911,-0.2911,-0.2911,-0.2911,-0.2911,-0.2911,-0.2911,-0.2911,-0.2911,-0.2911,-0.2911,-0.2911,-0.2911,-0.2911,-0.2911,-0.2911,-0.2911,-0.2861,-0.2671,-0.2321,-0.2089,-0.222,-0.1878,-0.1584,-0.1464,-0.1366,-0.111,-0.0807,-0.0742,-0.0697,-0.0697,-0.0697,-0.0697,-0.0697,-0.0697,-0.0697,-0.0697,-0.0697,-0.0697,-0.0697,-0.0697,-0.0697,-0.0694,-0.0712,-0.0696,-0.067,-0.0671,-0.0658,-0.0651,-0.0645,-0.0539,-0.0249,-0.0477,-0.0254,0.0174,0.0305,0.0324,0.0504,0.0737,0.0962,0.1119,0.1126,0.1051,0.1064,0.1051,0.1055,0.1035,0.0989,0.0939,0.1131,0.1168,0.1287,0.1522,0.1805,0.228,0.2811,0.3214,0.3505,0.366,0.3768,0.3678,0.359,0.348,0.3437,-0.2201,-0.2201,-0.2201,-0.2201,-0.2201,-0.2201,-0.2201,-0.2201,-0.2201,-0.2201,-0.2201,-0.2201,-0.2201,-0.2201,-0.2201,-0.2201,-0.2221,-0.2281,-0.2368,-0.2481,-0.2503,-0.2616,-0.2775,-0.2819,-0.2843,-0.2887,-0.2911,-0.2911,-0.2911,-0.2911,-0.2911,-0.2911,-0.2911,-0.2911,-0.2911,-0.2911,-0.2911,-0.2911,-0.2911,-0.2911,-0.2911,-0.2911,-0.2911,-0.2911,-0.2911,-0.2911,-0.2911,-0.2911,-0.2911,-0.2843,-0.2707,-0.2661,-0.266,-0.2277,-0.1966,-0.2076,-0.1811,-0.1523,-0.1166,-0.101,-0.0943,-0.0697,-0.0697,-0.0697,-0.0697,-0.0697,-0.0697,-0.0697,-0.0697,-0.0697,-0.0697,-0.0697,-0.0697,-0.0697,-0.0697,-0.0711,-0.0696,-0.068,-0.0643,-0.0641,-0.0677,-0.0604,-0.0565,-0.0626,-0.0587,-0.0244,0.0,0.0044,0.0221,0.0471,0.0828,0.1012,0.1094,0.1123,0.1122,0.1123,0.113,0.1115,0.109,0.1065,0.1107,0.1079,0.1031,0.133,0.1634,0.199,0.2499,0.2903,0.3238,0.3371,0.3434,0.3388,0.3298,0.3167,0.3168,-0.2186,-0.2201,-0.2201,-0.2201,-0.2201,-0.2201,-0.2201,-0.2201,-0.2201,-0.2201,-0.2201,-0.2201,-0.2201,-0.2201,-0.2201,-0.2201,-0.2198,-0.2239,-0.2305,-0.2345,-0.2395,-0.2506,-0.264,-0.2684,-0.2751,-0.2843,-0.2887,-0.2911,-0.2911,-0.2911,-0.2911,-0.2911,-0.2911,-0.2911,-0.2911,-0.2911,-0.2911,-0.2911,-0.2911,-0.2911,-0.2911,-0.2911,-0.2911,-0.2911,-0.2911,-0.2911,-0.2911,-0.2911,-0.2911,-0.2911,-0.2911,-0.2998,-0.2925,-0.2542,-0.2142,-0.2764,-0.2233,-0.1744,-0.1344,-0.121,-0.101,-0.0697,-0.0697,-0.0697,-0.0697,-0.0697,-0.0697,-0.0697,-0.0697,-0.0697,-0.0697,-0.0697,-0.0697,-0.0697,-0.0697,-0.0697,-0.0697,-0.0697,-0.068,-0.0691,-0.0696,-0.0641,-0.0646,-0.0689,-0.0694,-0.0652,-0.0427,-0.0202,-0.0022,0.0202,0.0515,0.0753,0.0796,0.0936,0.0968,0.1202,0.1211,0.1225,0.121,0.1187,0.1164,0.1159,0.1175,0.1268,0.1543,0.1876,0.2188,0.2546,0.2836,0.3036,0.3036,0.2923,0.2878,0.2833,0.2835,-0.2086,-0.2201,-0.2201,-0.2201,-0.2201,-0.2201,-0.2201,-0.2201,-0.2201,-0.2201,-0.2201,-0.2201,-0.2201,-0.2201,-0.2201,-0.2201,-0.2199,-0.222,-0.224,-0.2259,-0.2286,-0.2375,-0.2506,-0.2526,-0.2616,-0.2729,-0.2819,-0.2887,-0.2911,-0.2911,-0.2911,-0.2911,-0.2911,-0.2911,-0.2911,-0.2911,-0.2911,-0.2911,-0.2911,-0.2911,-0.2911,-0.2911,-0.2911,-0.2911,-0.2911,-0.2911,-0.2911,-0.2911,-0.2911,-0.2911,-0.2911,-0.2953,-0.2969,-0.2811,-0.2702,-0.2568,-0.2277,-0.1899,-0.1499,-0.1032,-0.0786,-0.0675,-0.0786,-0.0764,-0.0764,-0.0742,-0.0831,-0.0742,-0.0719,-0.0697,-0.0697,-0.0697,-0.0697,-0.0697,-0.0697,-0.0697,-0.0697,-0.0696,-0.0695,-0.0708,-0.0692,-0.0697,-0.0697,-0.0697,-0.0697,-0.0697,-0.0584,-0.0405,-0.0247,-0.009,0.0135,0.0309,0.043,0.0612,0.0776,0.1091,0.1296,0.1318,0.1321,0.1321,0.1321,0.1344,0.1366,0.1366,0.1433,0.1655,0.1967,0.2257,0.2479,0.2679,0.2591,0.2436,0.2392,0.2347,0.2302,-0.2071,-0.2199,-0.2201,-0.2201,-0.2201,-0.2201,-0.2201,-0.2201,-0.2201,-0.2201,-0.2201,-0.2201,-0.2201,-0.2201,-0.2201,-0.2201,-0.2201,-0.2201,-0.2221,-0.2219,-0.2221,-0.2263,-0.2394,-0.2392,-0.2525,-0.2661,-0.2775,-0.2843,-0.2911,-0.2911,-0.2911,-0.2911,-0.2911,-0.2911,-0.2911,-0.2911,-0.2911,-0.2911,-0.2911,-0.2911,-0.2911,-0.2911,-0.2911,-0.2911,-0.2911,-0.2911,-0.2911,-0.2911,-0.2911,-0.2911,-0.2911,-0.2933,-0.2954,-0.2951,-0.2929,-0.2793,-0.2589,-0.232,-0.2012,-0.1703,-0.1635,-0.1411,-0.1343,-0.1366,-0.1389,-0.1389,-0.1255,-0.1077,-0.0764,-0.0697,-0.0697,-0.0719,-0.0697,-0.0697,-0.0697,-0.0697,-0.0697,-0.0697,-0.0697,-0.0697,-0.0697,-0.0697,-0.0697,-0.0697,-0.0697,-0.0697,-0.0697,-0.0584,-0.045,-0.0292,-0.0135,0.0022,0.0196,0.0472,0.0659,0.0915,0.1219,0.1301,0.1344,0.1344,0.1412,0.1389,0.1389,0.1366,0.1456,0.1545,0.1657,0.1902,0.2124,0.2279,0.217,0.206,0.1948,0.1859,0.1858,-0.2046,-0.215,-0.2192,-0.2201,-0.2201,-0.2201,-0.2201,-0.2201,-0.2201,-0.2201,-0.2201,-0.2201,-0.2201,-0.2201,-0.2201,-0.2201,-0.2201,-0.2201,-0.22,-0.22,-0.2201,-0.2241,-0.2261,-0.2325,-0.2435,-0.2616,-0.2707,-0.2775,-0.2887,-0.2911,-0.2911,-0.2911,-0.2911,-0.2911,-0.2911,-0.2911,-0.2911,-0.2911,-0.2911,-0.2911,-0.2911,-0.2911,-0.2911,-0.2911,-0.2911,-0.2911,-0.2911,-0.2911,-0.2911,-0.2911,-0.2911,-0.2911,-0.2911,-0.2911,-0.2975,-0.3106,-0.3061,-0.2815,-0.2661,-0.2393,-0.2123,-0.1898,-0.1964,-0.1987,-0.1965,-0.1854,-0.1833,-0.1544,-0.1277,-0.1077,-0.1122,-0.0921,-0.0876,-0.0831,-0.0787,-0.0697,-0.0697,-0.0697,-0.0697,-0.0697,-0.0697,-0.0697,-0.0697,-0.0697,-0.0697,-0.0697,-0.0697,-0.0697,-0.0562,-0.0472,-0.0337,-0.0178,0.0022,0.0325,0.0539,0.0712,0.0979,0.1154,0.1209,0.1232,0.1321,0.1412,0.1389,0.1367,0.1389,0.1479,0.1524,0.1569,0.1724,0.1813,0.1748,0.1704,0.1658,0.1635,0.1635,-0.1971,-0.2042,-0.2144,-0.2201,-0.2201,-0.2201,-0.2201,-0.2201,-0.2201,-0.2201,-0.2201,-0.2201,-0.2201,-0.2201,-0.2201,-0.2201,-0.2201,-0.2201,-0.2201,-0.2201,-0.2201,-0.22,-0.2242,-0.2281,-0.237,-0.2526,-0.2639,-0.2775,-0.2865,-0.2887,-0.2911,-0.2911,-0.2911,-0.2911,-0.2911,-0.2911,-0.2911,-0.2911,-0.2911,-0.2891,-0.2898,-0.2901,-0.2901,-0.29,-0.2909,-0.2912,-0.2921,-0.2924,-0.2948,-0.2917,-0.2906,-0.2897,-0.2911,-0.2911,-0.2911,-0.2819,-0.2661,-0.2481,-0.2616,-0.2479,-0.2322,-0.2232,-0.2188,-0.2098,-0.2187,-0.2165,-0.2099,-0.1967,-0.1855,-0.1811,-0.1678,-0.1521,-0.1366,-0.1143,-0.0942,-0.0786,-0.0697,-0.0652,-0.0652,-0.0675,-0.0675,-0.0697,-0.0697,-0.0697,-0.0697,-0.0697,-0.0697,-0.0697,-0.0675,-0.0584,-0.0539,-0.0402,-0.0201,0.011,0.0328,0.0504,0.0704,0.0939,0.0984,0.103,0.1187,0.1277,0.1389,0.1389,0.1389,0.1412,0.1456,0.1456,0.1434,0.1479,0.1547,0.1524,0.1456,0.1434,0.1456,-0.1955,-0.2005,-0.2138,-0.2201,-0.2201,-0.2201,-0.2201,-0.2201,-0.2201,-0.2201,-0.2201,-0.2201,-0.2201,-0.2201,-0.2201,-0.2201,-0.2201,-0.2201,-0.2201,-0.2201,-0.2201,-0.2201,-0.2199,-0.2241,-0.2307,-0.2392,-0.2525,-0.2639,-0.2751,-0.2865,-0.2911,-0.2911,-0.2911,-0.2911,-0.2911,-0.2911,-0.2911,-0.2911,-0.2894,-0.2927,-0.2951,-0.297,-0.2971,-0.2972,-0.3025,-0.3021,-0.2994,-0.3042,-0.3061,-0.3066,-0.3066,-0.3068,-0.3066,-0.3062,-0.3071,-0.3058,-0.294,-0.2861,-0.285,-0.2726,-0.2678,-0.27,-0.2768,-0.2882,-0.2792,-0.2592,-0.2479,-0.2521,-0.2232,-0.2143,-0.2143,-0.19,-0.1611,-0.1366,-0.1187,-0.0875,-0.0719,-0.0607,-0.0584,-0.0607,-0.0652,-0.0652,-0.0675,-0.0675,-0.0675,-0.0697,-0.0697,-0.0697,-0.0697,-0.0675,-0.0652,-0.0651,-0.0404,-0.0134,0.0045,0.0245,0.0421,0.0604,0.0626,0.0716,0.0962,0.112,0.121,0.1344,0.1389,0.1412,0.1412,0.1412,0.1412,0.1412,0.1412,0.1412,0.1412,0.1412,0.1456,-0.1861,-0.1931,-0.2108,-0.2201,-0.2201,-0.2201,-0.2201,-0.2201,-0.2201,-0.2201,-0.2201,-0.2201,-0.2201,-0.2201,-0.2201,-0.2201,-0.2201,-0.2201,-0.2201,-0.2201,-0.2201,-0.2201,-0.22,-0.2222,-0.224,-0.23,-0.239,-0.2549,-0.2684,-0.2775,-0.2843,-0.2887,-0.2911,-0.2911,-0.2911,-0.2911,-0.2889,-0.2891,-0.2906,-0.2963,-0.3005,-0.305,-0.3037,-0.3065,-0.3107,-0.3156,-0.3096,-0.3129,-0.3177,-0.3176,-0.3194,-0.3183,-0.3162,-0.3118,-0.31,-0.3097,-0.3017,-0.3047,-0.3059,-0.308,-0.3192,-0.3236,-0.326,-0.3217,-0.3238,-0.3018,-0.2862,-0.2946,-0.2789,-0.2568,-0.2413,-0.2345,-0.2166,-0.1877,-0.1565,-0.1165,-0.0831,-0.0808,-0.0719,-0.0652,-0.0652,-0.0629,-0.0629,-0.0652,-0.0652,-0.0697,-0.0697,-0.0697,-0.0697,-0.0697,-0.0697,-0.0697,-0.0607,-0.0382,-0.0292,-0.009,0.0112,0.0246,0.0269,0.0403,0.0649,0.0873,0.103,0.1164,0.1321,0.1524,0.1591,0.1502,0.1412,0.1412,0.1412,0.1412,0.1412,0.1412,0.1501,-0.1667,-0.1764,-0.206,-0.2201,-0.2201,-0.2201,-0.2201,-0.2201,-0.2201,-0.2201,-0.2201,-0.2201,-0.2201,-0.2201,-0.2201,-0.2201,-0.2201,-0.2201,-0.2201,-0.2201,-0.2201,-0.2201,-0.2201,-0.22,-0.222,-0.2281,-0.2347,-0.2503,-0.2661,-0.2751,-0.2819,-0.2865,-0.2887,-0.2911,-0.2911,-0.2911,-0.2905,-0.2928,-0.2943,-0.2986,-0.3051,-0.3104,-0.3176,-0.3176,-0.3188,-0.3189,-0.3179,-0.3197,-0.324,-0.3241,-0.3219,-0.3271,-0.3267,-0.3186,-0.3154,-0.3118,-0.307,-0.3099,-0.3163,-0.317,-0.3192,-0.3214,-0.3214,-0.3236,-0.3238,-0.335,-0.3282,-0.3168,-0.3081,-0.3217,-0.3126,-0.3034,-0.27,-0.2388,-0.201,-0.1677,-0.1366,-0.1166,-0.1032,-0.0787,-0.0652,-0.0584,-0.0562,-0.0584,-0.0584,-0.0607,-0.0629,-0.0629,-0.0697,-0.0697,-0.0697,-0.0697,-0.0697,-0.0629,-0.0652,-0.0472,-0.0269,-0.0179,-0.0135,0.009,0.0336,0.056,0.0672,0.1008,0.1164,0.1479,0.1727,0.1637,0.1547,0.1434,0.1434,0.1502,0.1502,0.1502,0.1658,-0.1472,-0.1542,-0.1839,-0.2042,-0.2201,-0.2201,-0.2201,-0.2201,-0.2201,-0.2201,-0.2201,-0.2201,-0.2201,-0.2201,-0.2201,-0.2201,-0.2201,-0.2201,-0.2201,-0.2201,-0.2201,-0.2201,-0.2201,-0.22,-0.2198,-0.2262,-0.2349,-0.2458,-0.2571,-0.2729,-0.2843,-0.2887,-0.2911,-0.2911,-0.2911,-0.2894,-0.2926,-0.2968,-0.2985,-0.3051,-0.3238,-0.3264,-0.327,-0.3197,-0.3403,-0.3272,-0.313,-0.3245,-0.3308,-0.3323,-0.3316,-0.3362,-0.3405,-0.3352,-0.3287,-0.3227,-0.3165,-0.3179,-0.3204,-0.3214,-0.3238,-0.326,-0.3192,-0.3124,-0.3214,-0.326,-0.326,-0.326,-0.3282,-0.335,-0.326,-0.3146,-0.2968,-0.2722,-0.2456,-0.2166,-0.1877,-0.1656,-0.1366,-0.1121,-0.0763,-0.0494,-0.0494,-0.0494,-0.0494,-0.0494,-0.0539,-0.0584,-0.0652,-0.0697,-0.0697,-0.0697,-0.0697,-0.0697,-0.0697,-0.0675,-0.0652,-0.0562,-0.0472,-0.0247,0.0,0.0022,0.0202,0.0583,0.0985,0.1254,0.1479,0.1659,0.1704,0.1682,0.1659,0.1682,0.1659,0.1637,0.1815,-0.1316,-0.1408,-0.1709,-0.1975,-0.2133,-0.2178,-0.2201,-0.2201,-0.2201,-0.2201,-0.2201,-0.2201,-0.2201,-0.2201,-0.2201,-0.2201,-0.2201,-0.2201,-0.2201,-0.2201,-0.2201,-0.2201,-0.2201,-0.2201,-0.22,-0.2243,-0.2328,-0.2435,-0.2526,-0.2729,-0.2843,-0.2887,-0.2911,-0.2911,-0.2911,-0.2894,-0.2914,-0.2953,-0.3007,-0.3059,-0.3247,-0.3314,-0.3285,-0.321,-0.3361,-0.3335,-0.3179,-0.3246,-0.3332,-0.3372,-0.3405,-0.3466,-0.3513,-0.3556,-0.348,-0.3432,-0.3372,-0.3314,-0.3293,-0.3238,-0.326,-0.326,-0.3192,-0.3168,-0.3214,-0.3236,-0.3214,-0.3214,-0.3214,-0.3192,-0.3192,-0.3124,-0.3171,-0.2972,-0.2948,-0.2703,-0.2346,-0.2079,-0.1766,-0.1454,-0.1053,-0.0673,-0.0539,-0.0539,-0.0472,-0.0494,-0.0584,-0.0607,-0.0584,-0.0629,-0.0697,-0.0697,-0.0697,-0.0697,-0.0697,-0.0675,-0.0675,-0.0652,-0.0584,-0.0562,-0.0404,-0.0337,-0.0202,0.0157,0.056,0.0941,0.1232,0.1434,0.1704,0.1975,0.1929,0.1884,0.1885,0.1885,0.2084,-0.1239,-0.1353,-0.1777,-0.1975,-0.202,-0.2156,-0.2201,-0.2201,-0.2201,-0.2201,-0.2201,-0.2201,-0.2201,-0.2201,-0.2201,-0.2201,-0.2201,-0.2201,-0.2201,-0.2201,-0.2201,-0.2201,-0.2201,-0.2201,-0.22,-0.2221,-0.2328,-0.2435,-0.2525,-0.2707,-0.2819,-0.2887,-0.2911,-0.2911,-0.2911,-0.2911,-0.2893,-0.2917,-0.298,-0.3016,-0.3107,-0.3187,-0.32,-0.3187,-0.3227,-0.3214,-0.3159,-0.3153,-0.3249,-0.3302,-0.3325,-0.34,-0.3497,-0.3435,-0.3384,-0.3383,-0.3292,-0.3304,-0.3374,-0.3282,-0.326,-0.326,-0.3192,-0.3214,-0.3306,-0.3282,-0.3214,-0.3214,-0.3192,-0.3146,-0.3124,-0.3124,-0.3171,-0.3219,-0.3195,-0.3129,-0.2769,-0.2456,-0.2121,-0.1832,-0.1431,-0.103,-0.0784,-0.0605,-0.0472,-0.0494,-0.0629,-0.0629,-0.0562,-0.0607,-0.0675,-0.0675,-0.0675,-0.0697,-0.0697,-0.0697,-0.0697,-0.0697,-0.0675,-0.0629,-0.0562,-0.045,-0.0292,-0.0135,0.0247,0.0694,0.0962,0.1187,0.1568,0.195,0.2062,0.2062,0.2087,0.2154,0.2308,-0.0924,-0.113,-0.145,-0.1704,-0.1885,-0.211,-0.2201,-0.2201,-0.2201,-0.2201,-0.2201,-0.2201,-0.2201,-0.2201,-0.2201,-0.2201,-0.2201,-0.2201,-0.2201,-0.2201,-0.2201,-0.2201,-0.2201,-0.2222,-0.2242,-0.2283,-0.2368,-0.2503,-0.2639,-0.2752,-0.2843,-0.2889,-0.2911,-0.2911,-0.2911,-0.2897,-0.2919,-0.2976,-0.3015,-0.3036,-0.3127,-0.3161,-0.315,-0.3064,-0.3141,-0.3137,-0.3028,-0.3048,-0.3127,-0.3178,-0.3176,-0.3223,-0.3318,-0.3292,-0.3303,-0.3365,-0.3334,-0.3401,-0.3488,-0.3488,-0.342,-0.335,-0.3282,-0.326,-0.326,-0.3236,-0.3214,-0.3192,-0.3146,-0.3101,-0.3124,-0.3078,-0.3102,-0.3216,-0.3216,-0.3238,-0.3013,-0.2767,-0.2476,-0.2233,-0.1876,-0.141,-0.1074,-0.0829,-0.0673,-0.0516,-0.0607,-0.0584,-0.0517,-0.0607,-0.0675,-0.0629,-0.0607,-0.0675,-0.0697,-0.0675,-0.0675,-0.0675,-0.0697,-0.0697,-0.0607,-0.0539,-0.0517,-0.0427,0.0022,0.0448,0.0604,0.0851,0.1477,0.1857,0.1926,0.2173,0.2352,0.2418,0.2506,-0.0806,-0.1033,-0.1342,-0.1591,-0.1839,-0.2088,-0.2201,-0.2201,-0.2201,-0.2201,-0.2201,-0.2201,-0.2201,-0.2201,-0.2201,-0.2201,-0.2201,-0.2201,-0.2201,-0.2201,-0.2201,-0.2221,-0.2242,-0.2241,-0.2306,-0.2369,-0.2481,-0.2616,-0.2707,-0.2819,-0.2887,-0.2911,-0.2911,-0.2911,-0.2911,-0.29,-0.2919,-0.2952,-0.2952,-0.2998,-0.3048,-0.3072,-0.3029,-0.2999,-0.3024,-0.3023,-0.296,-0.2957,-0.2986,-0.2987,-0.3008,-0.3053,-0.3142,-0.3219,-0.3254,-0.3306,-0.3328,-0.3418,-0.3532,-0.351,-0.3464,-0.3488,-0.3374,-0.335,-0.3328,-0.3306,-0.3282,-0.3236,-0.3124,-0.3101,-0.3124,-0.3056,-0.3078,-0.317,-0.3192,-0.3192,-0.317,-0.29,-0.2788,-0.2566,-0.2277,-0.181,-0.1387,-0.1141,-0.0919,-0.074,-0.0583,-0.0539,-0.0517,-0.0607,-0.0675,-0.0629,-0.0562,-0.0607,-0.0629,-0.0607,-0.0607,-0.0629,-0.0652,-0.0675,-0.0697,-0.0629,-0.0675,-0.0675,-0.0292,0.0,0.0157,0.0493,0.1006,0.1409,0.1634,0.1992,0.2504,0.2616,0.2616,-0.0885,-0.1056,-0.1429,-0.1659,-0.1817,-0.2088,-0.2201,-0.2201,-0.2201,-0.2201,-0.2201,-0.2201,-0.2201,-0.2201,-0.2201,-0.2201,-0.2201,-0.2201,-0.2201,-0.22,-0.2221,-0.224,-0.2281,-0.2302,-0.2393,-0.2526,-0.2639,-0.2772,-0.2751,-0.2843,-0.2887,-0.2998,-0.3043,-0.3066,-0.3066,-0.3092,-0.3036,-0.2965,-0.2928,-0.2941,-0.2965,-0.2937,-0.2942,-0.2932,-0.2956,-0.2934,-0.2919,-0.2934,-0.2955,-0.2992,-0.3026,-0.309,-0.3154,-0.3195,-0.3214,-0.3301,-0.3367,-0.3505,-0.3619,-0.3595,-0.351,-0.3556,-0.3578,-0.3578,-0.3534,-0.3442,-0.3418,-0.3374,-0.3282,-0.3192,-0.3101,-0.3078,-0.3056,-0.3078,-0.3078,-0.3101,-0.3146,-0.3056,-0.3012,-0.2833,-0.2566,-0.2188,-0.1764,-0.1475,-0.1276,-0.1053,-0.0897,-0.0718,-0.0674,-0.0629,-0.0675,-0.0629,-0.0584,-0.0539,-0.0539,-0.0562,-0.0539,-0.0539,-0.0584,-0.0607,-0.0652,-0.0675,-0.0675,-0.0652,-0.0584,-0.0382,-0.0112,0.0134,0.0425,0.0805,0.1208,0.1611,0.208,0.2504,0.2593,-0.0786,-0.1013,-0.1319,-0.1591,-0.1817,-0.2088,-0.2201,-0.2201,-0.2201,-0.2201,-0.2201,-0.2201,-0.2201,-0.2201,-0.2201,-0.2201,-0.2201,-0.2201,-0.2201,-0.2222,-0.2262,-0.2283,-0.2347,-0.2458,-0.2526,-0.2728,-0.2884,-0.3018,-0.2909,-0.2933,-0.3263,-0.3529,-0.3352,-0.3398,-0.3508,-0.3619,-0.333,-0.3086,-0.3021,-0.2998,-0.2976,-0.2998,-0.2976,-0.3,-0.3041,-0.3019,-0.3022,-0.3086,-0.3106,-0.3018,-0.3103,-0.3146,-0.3056,-0.3449,-0.3798,-0.4282,-0.4178,-0.4032,-0.4012,-0.3755,-0.3634,-0.3732,-0.3703,-0.3602,-0.3578,-0.3605,-0.3559,-0.3486,-0.342,-0.3328,-0.326,-0.3214,-0.3146,-0.3124,-0.3101,-0.3101,-0.3124,-0.3103,-0.3058,-0.3012,-0.2745,-0.2545,-0.2144,-0.1942,-0.1721,-0.1477,-0.121,-0.0986,-0.0785,-0.0719,-0.0629,-0.0584,-0.0584,-0.0517,-0.0494,-0.0517,-0.0472,-0.045,-0.0494,-0.0539,-0.0562,-0.0584,-0.0629,-0.0607,-0.0562,-0.0427,-0.0247,-0.0022,0.0134,0.0448,0.085,0.1231,0.1634,0.2013,0.2325,-0.0772,-0.1032,-0.1315,-0.1632,-0.1949,-0.2133,-0.2201,-0.2201,-0.2201,-0.2201,-0.2201,-0.2201,-0.2201,-0.2201,-0.2201,-0.2201,-0.2201,-0.2222,-0.2287,-0.2505,-0.237,-0.2636,-0.2725,-0.2814,-0.2972,-0.3151,-0.3307,-0.344,-0.3309,-0.3331,-0.3595,-0.3794,-0.368,-0.381,-0.3922,-0.3944,-0.3838,-0.3593,-0.3394,-0.3307,-0.3287,-0.3285,-0.3309,-0.3285,-0.3325,-0.3306,-0.3307,-0.3437,-0.3417,-0.3439,-0.359,-0.3653,-0.367,-0.4113,-0.4455,-0.4844,-0.484,-0.4824,-0.4869,-0.4671,-0.4432,-0.4309,-0.4267,-0.4363,-0.4105,-0.4002,-0.3754,-0.3556,-0.351,-0.3464,-0.3418,-0.3374,-0.3282,-0.3192,-0.3146,-0.3124,-0.3103,-0.3083,-0.3081,-0.3078,-0.2946,-0.2792,-0.2568,-0.2389,-0.2145,-0.1834,-0.15,-0.1187,-0.0897,-0.0628,-0.0562,-0.0494,-0.0517,-0.0517,-0.0494,-0.045,-0.0427,-0.0405,-0.0427,-0.045,-0.0472,-0.0472,-0.0517,-0.0539,-0.0562,-0.0427,-0.0292,-0.027,-0.0112,0.0202,0.0403,0.0605,0.0986,0.1433,0.1678,-0.0825,-0.1039,-0.138,-0.1793,-0.2172,-0.2201,-0.2201,-0.2201,-0.2201,-0.2201,-0.2201,-0.2201,-0.2201,-0.2201,-0.2201,-0.2201,-0.2245,-0.2288,-0.2505,-0.2897,-0.2722,-0.2923,-0.33,-0.3432,-0.348,-0.3748,-0.397,-0.4034,-0.4014,-0.397,-0.3902,-0.3992,-0.4096,-0.4226,-0.4336,-0.4427,-0.4408,-0.4342,-0.4142,-0.4012,-0.3902,-0.3902,-0.3926,-0.3902,-0.39,-0.39,-0.3922,-0.3968,-0.4058,-0.421,-0.4316,-0.4336,-0.4622,-0.4911,-0.515,-0.5353,-0.5488,-0.5562,-0.5606,-0.5457,-0.5372,-0.5349,-0.5408,-0.5255,-0.4918,-0.4426,-0.4116,-0.3904,-0.387,-0.3631,-0.353,-0.3418,-0.3328,-0.3282,-0.3236,-0.3146,-0.3102,-0.3038,-0.2996,-0.2994,-0.295,-0.2818,-0.2796,-0.2571,-0.2481,-0.2169,-0.1857,-0.15,-0.1232,-0.0874,-0.0606,-0.0517,-0.0472,-0.0494,-0.0405,-0.036,-0.036,-0.036,-0.0359,-0.036,-0.036,-0.0382,-0.0405,-0.045,-0.0494,-0.0427,-0.0337,-0.0315,-0.0247,-0.0067,0.0067,0.0022,0.0,0.0,0.1119,-0.0827,-0.1049,-0.1525,-0.1919,-0.2173,-0.2201,-0.2201,-0.2201,-0.2201,-0.2201,-0.2201,-0.2201,-0.2201,-0.2201,-0.2244,-0.2244,-0.2266,-0.2509,-0.2704,-0.3033,-0.3098,-0.3364,-0.3739,-0.3893,-0.3963,-0.4118,-0.436,-0.467,-0.4716,-0.4539,-0.4493,-0.4845,-0.4799,-0.4709,-0.4884,-0.4975,-0.5,-0.4978,-0.4912,-0.464,-0.4389,-0.4262,-0.421,-0.4266,-0.4296,-0.4337,-0.4355,-0.4398,-0.437,-0.436,-0.4467,-0.477,-0.5255,-0.5625,-0.6028,-0.6321,-0.6288,-0.6341,-0.6278,-0.6135,-0.5976,-0.5834,-0.576,-0.5714,-0.5457,-0.4952,-0.4598,-0.4414,-0.4169,-0.3893,-0.3641,-0.3529,-0.3396,-0.335,-0.3304,-0.3192,-0.3101,-0.3016,-0.2909,-0.2911,-0.2911,-0.2887,-0.2865,-0.2821,-0.2751,-0.2505,-0.2191,-0.1901,-0.1745,-0.1433,-0.092,-0.0741,-0.0517,-0.045,-0.0427,-0.0449,-0.0539,-0.0359,-0.0269,-0.0269,-0.0247,-0.027,-0.0315,-0.0382,-0.0405,-0.0337,-0.0292,-0.0337,-0.027,-0.0135,-0.009,-0.0045,0.0,0.0,0.0,-0.0869,-0.1144,-0.1669,-0.2018,-0.2172,-0.2201,-0.2201,-0.2201,-0.2201,-0.2201,-0.2201,-0.2201,-0.2201,-0.2245,-0.2333,-0.2421,-0.2486,-0.2772,-0.3167,-0.3475,-0.3629,-0.3961,-0.418,-0.4375,-0.453,-0.4688,-0.4864,-0.5087,-0.5222,-0.5067,-0.5,-0.526,-0.5152,-0.5198,-0.5393,-0.5417,-0.5468,-0.5458,-0.5474,-0.5303,-0.4975,-0.4947,-0.4995,-0.5036,-0.5079,-0.505,-0.5066,-0.5143,-0.5154,-0.5239,-0.545,-0.5616,-0.6029,-0.6369,-0.676,-0.7023,-0.7113,-0.7073,-0.6957,-0.6809,-0.6566,-0.6496,-0.6558,-0.6679,-0.6618,-0.6127,-0.5458,-0.5216,-0.4743,-0.4451,-0.4032,-0.3854,-0.3593,-0.3483,-0.3372,-0.326,-0.3168,-0.3058,-0.2973,-0.2911,-0.2911,-0.2889,-0.2887,-0.2887,-0.2819,-0.2797,-0.2483,-0.2235,-0.2079,-0.2013,-0.1478,-0.1144,-0.101,-0.0943,-0.1032,-0.0964,-0.0897,-0.0628,-0.0337,-0.0247,-0.0247,-0.0202,-0.0225,0.0,0.0,-0.018,-0.018,0.0,0.0,-0.0045,-0.0045,-0.0067,0.0,0.0,0.0,-0.0981,-0.1319,-0.1788,-0.2076,-0.2178,-0.2201,-0.2201,-0.2201,-0.2201,-0.2201,-0.2222,-0.2266,-0.2267,-0.2378,-0.2532,-0.2687,-0.2884,-0.3195,-0.361,-0.3895,-0.3985,-0.4381,-0.4753,-0.4995,-0.5082,-0.5198,-0.5362,-0.5375,-0.5396,-0.5327,-0.5355,-0.5392,-0.5463,-0.5555,-0.5595,-0.5657,-0.5711,-0.5749,-0.5794,-0.5897,-0.587,-0.5879,-0.5807,-0.59,-0.6056,-0.6056,-0.6008,-0.6028,-0.6092,-0.6194,-0.6346,-0.645,-0.6626,-0.6907,-0.717,-0.7451,-0.7626,-0.7623,-0.7626,-0.7603,-0.7486,-0.7485,-0.7591,-0.755,-0.7435,-0.7054,-0.6361,-0.593,-0.548,-0.4876,-0.4478,-0.41,-0.384,-0.3595,-0.3461,-0.3328,-0.3236,-0.3124,-0.3038,-0.2932,-0.2908,-0.2908,-0.2911,-0.2911,-0.2911,-0.2911,-0.2797,-0.2571,-0.2392,-0.2348,-0.2104,-0.1904,-0.1816,-0.177,-0.1568,-0.1412,-0.1233,-0.1053,-0.0784,-0.0493,-0.0292,-0.0359,0.0,0.0,0.0,0.0,0.0,0.0,0.0,0.0,0.0,0.0,0.0,0.0,0.0,-0.1162,-0.162,-0.1884,-0.2065,-0.2193,-0.2201,-0.2201,-0.2201,-0.2201,-0.2201,-0.2289,-0.251,-0.2621,-0.2619,-0.2641,-0.2862,-0.3307,-0.3617,-0.3924,-0.4208,-0.4517,-0.4888,-0.5164,-0.5322,-0.5468,-0.5634,-0.5751,-0.5755,-0.5721,-0.5796,-0.5776,-0.5654,-0.5649,-0.5743,-0.5901,-0.5934,-0.594,-0.5995,-0.611,-0.6231,-0.6207,-0.6179,-0.6118,-0.6237,-0.6409,-0.6388,-0.6388,-0.6505,-0.6535,-0.6615,-0.6762,-0.688,-0.7032,-0.7236,-0.7482,-0.7633,-0.782,-0.7839,-0.7845,-0.7845,-0.7738,-0.7714,-0.7757,-0.7763,-0.7647,-0.7522,-0.7044,-0.6847,-0.6254,-0.5309,-0.4798,-0.4389,-0.4076,-0.3799,-0.3615,-0.3417,-0.3282,-0.3192,-0.3103,-0.3015,-0.2969,-0.295,-0.2911,-0.2911,-0.2911,-0.2911,-0.2911,-0.2707,-0.2684,-0.2663,-0.2642,-0.2553,-0.2464,-0.2038,-0.1612,-0.1658,-0.1546,-0.1389,-0.121,-0.0919,-0.0717,-0.0604,0.0,0.0,0.0,0.0,0.0,0.0,0.0,0.0,0.0,0.0,0.0,0.0,0.0]},{"header":{"parameterUnit":"m.s-1","parameterCategory":1,"la1":31.0,"la2":29.5877,"lo1":-88.7671,"lo2":-86.6584,"dy":0.0162,"dx":0.0185,"nx":115,"ny":88,"refTime":"2025-12-21T00:00:00:Z","depth":0,"parameterNumber":3,"parameterNumberName":"V-component_of_WINDS"},"data":[0.0,0.0,0.0,0.0,0.0,0.0,0.0,0.0,0.0,0.0,0.0,0.0,0.0,0.0,0.0,0.0,0.0,0.0,0.0,0.0,0.0,0.0,0.0,0.0,0.0,0.0,0.0,0.0,0.0,0.0,0.0,0.0,0.0,0.0,0.0,0.0,0.0,0.0,0.0,0.0,0.0,0.0,0.0,0.0,0.0,0.0,0.0,0.0,0.0,0.0,0.0,0.0,0.0,0.0,0.0,0.0,0.0,0.0,0.0,0.0,0.0,0.0,0.0,0.0,0.0,0.0,0.0,0.0,0.0,0.0,0.0,0.0,0.0,0.0,0.0,0.0,0.0,0.0,0.0,0.0,0.0,0.0,0.0,0.0,0.0,0.0,0.0,0.0,0.0,0.0,0.0,0.0,0.0,0.0,0.0,0.0,0.0,0.0,0.0,0.0,0.0,0.0,0.0,0.0,0.0,0.0,0.0,0.0,0.0,0.0,0.0,0.0,0.0,0.0,0.0,0.0,0.0,0.0,0.0,0.0,0.0,0.0,0.0,0.0,0.0,0.0,0.0,0.0,0.0,0.0,0.0,0.0,0.0,0.0,0.0,0.0,0.0,0.0,0.0,0.0,0.0,0.0,0.0,0.0,0.0,0.0,0.0,0.0,0.0,0.0,0.0,0.0,0.0,0.0,0.0,0.0,0.0,0.0,0.0,0.0,0.0,0.0,0.0,0.0,0.0,0.0,0.0,0.0,0.0,0.0,0.0,0.0,0.0,0.0,0.0,0.0,0.0,0.0,0.0,0.0,0.0,0.0,0.0,0.0,0.0,0.0,0.0,0.0,0.0,0.0,0.0,0.0,0.0,0.0,0.0,0.0,0.0,0.0,0.0,0.0,0.0,0.0,0.0,0.0,0.0,0.0,0.0,0.0,0.0,0.0,0.0,0.0,0.0,0.0,0.0,0.0,0.0,0.0,0.0,0.0,0.0,0.0,0.0,0.0,0.0,0.0,0.0,0.0,0.0,0.0,0.0,0.0,0.0,0.0,0.0,0.0,0.0,0.0,0.0,0.0,0.0,0.0,0.0,0.0,0.0,0.0,0.0,0.0,0.0,0.0,0.0,0.0,0.0,0.0,0.0,0.0,0.0,0.0,0.0,0.0,0.0,0.0,0.0,0.0,0.0,0.0,0.0,0.0,0.0,0.0,0.0,0.0,0.0,0.0,0.0,0.0,0.0,0.0,0.0,0.0,0.0,0.0,0.0,0.0,0.0,0.0,0.0,0.0,0.0,0.0,0.0,0.0,0.0,0.0,0.0,0.0,0.0,0.0,0.0,0.0,0.0,0.0,0.0,0.0,0.0,0.0,0.0,0.0,0.0,0.0,0.0,0.0,0.0,0.0,0.0,0.0,0.0,0.0,0.0,0.0,0.0,0.0,0.0,0.0,0.0,0.0,0.0,0.0,0.0,0.0,0.0,0.0,0.0,0.0,0.0,0.0,0.0,0.0,0.0,0.0,0.0,0.0,0.0,0.0,0.0,0.0,0.0,0.0,0.0,0.0,0.0,0.0,0.0,0.0,0.0,0.0,0.0,0.0,0.0,0.0,0.0,0.0,0.0,0.0,0.0,0.0,0.0,0.0,0.0,0.0,0.0,0.0,0.0,0.0,0.0,0.0,0.0,0.0,0.0,0.0,0.0,0.0,0.0,0.0,0.0,0.0,0.0,0.0,0.0,0.0,0.0,0.0,0.0,0.0,0.0,0.0,0.0,0.0,0.0,0.0,0.0,0.0,0.0,0.0,0.0,0.0,0.0,0.0,0.0,0.0,0.0,0.0,0.0,0.0,0.0,0.0,0.0,0.0,0.0,0.0,0.0,0.0,0.0,0.0,0.0,0.0,0.0,0.0,0.0,0.0,0.0,0.0,0.0,0.0,0.0,0.0,0.0,0.0,0.0,0.0,0.0,0.0,0.0,0.0,0.0,0.0,0.0,0.0,0.0,0.0,0.0,0.0,0.0,0.0,0.0,0.0,0.0,0.0,0.0,0.0,0.0,0.0,0.0,0.0,0.0,0.0,0.0,0.0,0.0,0.0,0.0,0.0,0.0,0.0,0.0,0.0,0.0,0.0,0.0,0.0,0.0,0.0,0.0,0.0,0.0,0.0,0.0,0.0,0.0,0.0,0.0,0.0,0.0,0.0,0.0,0.0,0.0,0.0,0.0,0.0,0.0,0.0,0.0,0.0,0.0,0.0,0.0,0.0,0.0,0.0,0.0,0.0,0.0,0.0,0.0,0.0,0.0,0.0,0.0,0.0,0.0,0.0,0.0,0.0,0.0,0.0,0.0,0.0,0.0,0.0,0.0,0.0,0.0,0.0,0.0,0.0,0.0,0.0,0.0,0.0,0.0,0.0,0.0,0.0,0.0,0.0,0.0,0.0,0.0,0.0,0.0,0.0,0.0,0.0,0.0,0.0,0.0,0.0,0.0,0.0,0.0,0.0,0.0,0.0,0.0,0.0,0.0,0.0,0.0,0.0,0.0,0.0,0.0,0.0,0.0,0.0,0.0,0.0,0.0,0.0,0.0,0.0,0.0,0.0,0.0,0.0,0.0,0.0,0.0,0.0,0.0,0.0,0.0,0.0,0.0,0.0,0.0,0.0,0.0,0.0,0.0,0.0,0.0,0.0,0.0,0.0,0.0,0.0,0.0,0.0,0.0,0.0,0.0,0.0,0.0,0.0,0.0,0.0,0.0,0.0,0.0,0.0,0.0,0.0,0.0,0.0,0.0,0.0,0.0,0.0,0.0,0.0,0.0,0.0,0.0,0.0,0.0,0.0,0.0,0.0,0.0,0.0,0.0,0.0,0.0,0.0,0.0,0.0,0.0,0.0,0.0,0.0,0.0,0.0,0.0,0.0,0.0,0.0,0.0,0.0,0.0,0.0,0.0,0.0,0.0,0.0,0.0,0.0,0.0,0.0,0.0,0.0,0.0,0.0,0.0,0.0,0.0,0.0,0.0,0.0,0.0,0.0,0.0,0.0,0.0,0.0,0.0,0.0,0.0,0.0,0.0,0.0,0.0,0.0,0.0,0.0,0.0,0.0,0.0,0.0,0.0,0.0,0.0,0.0,0.0,0.0,0.0,0.0,0.0,0.0,0.0,0.0,0.0,0.0,0.0,0.0,0.0,0.0,0.0,0.0,0.0,0.0,0.0,0.0,0.0,0.0,0.0,0.0,0.0,0.0,0.0,0.0,0.0,0.0,0.0,0.0,0.0,0.0,0.0,0.0,0.0,0.0,0.0,0.0,0.0,0.0,0.0,0.0,0.0,0.0,0.0,0.0,0.0,0.0,0.0,0.0,0.0,0.0,0.0,0.0,0.0,0.0,0.0,0.0,0.0,0.0,0.0,0.0,0.0,0.0,0.0,0.0,0.0,0.0,0.0,0.0,0.0,0.0,0.0,0.0,0.0,0.0,0.0,0.0,0.0,0.0,0.0,0.0,0.0,0.0,0.0,0.0,0.0,0.0,0.0,0.0,0.0,0.0,0.0,0.0,0.0,0.0,0.0,0.0,0.0,0.0,0.0,0.0,0.0,0.0,0.0,0.0,0.0,0.0,0.0,0.0,0.0,0.0,0.0,0.0,0.0,0.0,0.0,0.0,0.0,0.0,0.0,0.0,0.0,0.0,0.0,0.0,0.0,0.0,0.0,0.0,0.0,0.0,0.0,0.0,0.0,0.0,0.0,0.0,0.0,0.0,0.0,0.0,0.0,0.0,0.0,0.0,0.0,0.0,0.0,0.0,0.0,0.0,0.0,0.0,0.0,0.0,0.0,0.0,0.0,0.0,0.0,0.0,0.0,0.0,0.0,0.0,0.0,0.0,0.0,0.0,0.0,0.0,0.0,0.0,0.0,0.0,0.0,0.0,0.0,0.0,0.0,0.0,0.0,0.0,0.0,0.0,0.0,0.0,0.0,0.0,0.0,0.0,0.0,0.0,0.0,0.0,0.0,0.0,0.0,0.0,0.0,0.0,0.0,0.0,0.0,0.0,0.0,0.0,0.0,0.0,0.0,0.0,0.0,0.0,0.0,0.0,0.0,0.0,0.0,0.0,0.0,0.0,0.0,0.0,0.0,0.0,0.0,0.0,0.0,0.0,0.0,0.0,0.0,0.0,0.0,0.0,0.0,0.0,0.0,0.0,0.0,0.0,0.0,0.0,0.0,0.0,0.0,0.0,0.0,0.0,0.0,0.0,0.0,0.0,0.0,0.0,0.0,0.0,0.0,0.0,-0.0958,0.0,0.0,0.0,0.0,0.0,0.0,0.0,0.0,0.0,0.0,0.0,0.0,0.0,0.0,0.0,0.0,0.0,0.0,0.0,0.0,0.0,0.0,0.0,0.0,0.0,0.0,0.0,0.0,0.0,0.0,0.0,0.0,0.0,0.0,0.0,0.0,0.0,0.0,0.0,0.0,0.0,0.0,0.0,0.0,0.0,0.0,0.0,0.0,0.0,0.0,0.0,0.0,0.0,0.0,0.0,0.0,0.0,0.0,0.0,0.0,0.0,0.0,0.0,0.0,0.0,0.0,0.0,0.0,0.0,0.0,0.0,0.0,0.0,0.0,0.0,0.0,0.0,0.0,0.0,0.0,0.0,0.0,0.0,0.0,0.0,0.0,0.0,0.0,0.0,0.0,0.0,0.0,0.0,0.0,0.0,0.0,0.0,0.0,0.0,0.0,0.0,0.0,0.0,0.0,0.0,0.0,0.0,0.0,0.0,0.0,-0.0488,-0.0488,-0.0555,-0.0656,-0.074,0.0,0.0,0.0,0.0,0.0,0.0,0.0,0.0,0.0,0.0,0.0,0.0,0.0,0.0,0.0,0.0,0.0,0.0,0.0,0.0,0.0,0.0,0.0,0.0,0.0,0.0,0.0,0.0,0.0,0.0,0.0,0.0,0.0,0.0,0.0,0.0,0.0,0.0,0.0,0.0,0.0,0.0,0.0,0.0,0.0,0.0,0.0,0.0,0.0,0.0,0.0,0.0,0.0,0.0,0.0,0.0,0.0,0.0,0.0,0.0,0.0,0.0,0.0,0.0,0.0,0.0,0.0,0.0,0.0,0.0,0.0,0.0,0.0,0.0,0.0,0.0,0.0,0.0,0.0,0.0,0.0,0.0,0.0,0.0,0.0,0.0,0.0,0.0,0.0,0.0,0.0,0.0,0.0,0.0,0.0,0.0,0.0,0.0,0.0,0.0,0.0,0.0,0.0,0.0,0.0,0.0,0.0,0.0,0.0,0.0,0.0,0.0,-0.0201,-0.0317,-0.0362,0.0,0.0,0.0,0.0,0.0,0.0,0.0,0.0,0.0,0.0,0.0,0.0,0.0,0.0,0.0,0.0,0.0,0.0,0.0,0.0,0.0,0.0,0.0,0.0,0.0,0.0,0.0,0.0,0.0,0.0,0.0,0.0,0.0,0.0,0.0,0.0,0.0,0.0,0.0,0.0,0.0,0.0,0.0,0.0,0.0,0.0,0.0,0.0,0.0,0.0,0.0,0.0,0.0,0.0,0.0,0.0,0.0,0.0,0.0,0.0,0.0,0.0,0.0,0.0,0.0,0.0,0.0,0.0,0.0,0.0,0.0,0.0,0.0,0.0,0.0,0.0,0.0,0.0,0.0,0.0,0.0,0.0,0.0,0.0,0.0,0.0,0.0,0.0,0.0,0.0,0.0,0.0,0.0,0.0,0.0,0.0,0.0,0.0,0.0,0.0,0.0,0.0,0.0,0.0,0.0,0.0,0.0,0.0,0.0,0.0,0.0722,0.1372,0.1092,0.0,0.0655,0.0,0.0,0.0,0.0,0.0,0.0,0.0,0.0,0.0,0.0,0.0,0.0,0.0,0.0,0.0,0.0,0.0,0.0,0.0,0.0,0.0,0.0,0.0,0.0,0.0,0.0,0.0,0.0,0.0,0.0,0.0,0.0,0.0,0.0,0.0,0.0,0.0,0.0,0.0,0.0,0.0,0.0,0.0,0.0,0.0,0.0,0.0,0.0,0.0,0.0,0.0,0.0,0.0,0.0,0.0,0.0,0.0,0.0,0.0,0.0,0.0,0.0,0.0,0.0,0.0,0.0,0.0,0.0,0.0,0.0,0.0,0.0,0.0,0.0,0.0,0.0,0.0,0.0,0.0,0.0,0.0,0.0,0.0,0.0,0.0,0.0,0.0,0.0,0.0,0.0,0.0,0.0,0.0,0.0,0.0,0.0,0.0,0.0,0.0,0.0,0.0,0.0,0.0,0.0,0.0,0.0,0.0,0.0,0.0,0.0,0.0,0.159,0.1475,0.1291,0.0,0.0,0.0,0.0,0.0,0.0,0.0,0.0,0.0,0.0,0.0,0.0,0.0,0.0,0.0,0.0,0.0,0.0,0.0,0.0,0.0,0.0,0.0,0.0,0.0,0.0,0.0,0.0,0.0,0.0,0.0,0.0,0.0,0.0,0.0,0.0,0.0,0.0,0.0,0.0,0.0,0.0,0.0,0.0,0.0,0.0,0.0,0.0,0.0,0.0,0.0,0.0,0.0,0.0,0.0,0.0,0.0,0.0,0.0,0.0,0.0,0.0,0.0,0.0,0.0,0.0,0.0,0.0,0.0,0.0,0.0,0.0,0.0,0.0,0.0,0.0,0.0,0.0,0.0,0.0,0.0,0.0,0.0,0.0,0.0,0.0,0.0,0.0,0.0,0.0,0.0,0.0,0.0,0.0,0.0,0.0,0.0,0.0,0.0,0.0,0.0,0.0,0.0,0.0,0.0,0.0,0.0,0.0,0.0,0.0,0.1791,0.0,0.1891,0.1908,0.1733,0.1354,0.0,0.0,0.0,0.0,0.0,0.0,0.0,0.0,0.0,0.0,0.0,0.0,0.0,0.0,0.0,0.0,0.0,0.0,0.0,0.0,0.0,0.0,0.0,0.0,0.0,0.0,0.0,0.0,0.0,0.0,0.0,0.0,0.0,0.0,0.0,0.0,0.0,0.0,0.0,0.0,0.0,0.0,0.0,0.0,0.0,0.0,0.0,0.0,0.0,0.0,0.0,0.0,0.0,0.0,0.0,0.0,0.0,0.0,0.0,0.0,0.0,0.0,0.0,0.0,0.0,0.0,0.0,0.0,0.0,0.0,0.0,0.0,0.0,0.0,0.0,0.0,0.0,0.0,0.0,0.0,0.0,0.0,0.0,0.0,0.0,0.0,0.0,0.0,0.0,0.0,0.0,0.0,0.0,0.0,0.0,0.0,0.0,0.0,0.0,0.0,0.0,0.0,0.0,0.0,0.0,0.0,0.0,0.0,0.0,0.2289,0.2386,0.2643,0.2656,0.2336,0.0,0.0,0.0,0.0,0.0,0.0,0.0,0.0,0.0,0.0,0.0,0.0,0.0,0.0,0.0,0.0,0.0,0.0,0.0,0.0,0.0,0.0,0.0,0.0,0.0,0.0,0.0,0.0,0.0,0.0,0.0,0.0,0.0,0.0,0.0,0.0,0.0,0.0,0.0,0.0,0.0,0.0,0.0,0.0,0.0,0.0,0.0,0.0,0.0,0.0,0.0,0.0,0.0,0.0,0.0,0.0,0.0,0.0,0.0,0.0,0.0,0.0,0.0,0.0,0.0,0.0,0.0,0.0,0.0,0.0,0.0,0.0,0.0,0.0,0.0,0.0,0.0,0.0,0.0,0.0,0.0,0.0,0.0,0.0,0.0,0.0,0.0,0.0,0.0,0.0,0.0,0.0,0.0,0.0,0.0,0.0,0.0,0.0,0.0,0.0,0.0,0.0,0.0,0.0,0.0,0.0,0.0,0.0,0.0,0.3048,0.3245,0.3286,0.322,0.3136,0.2829,0.0,0.0,0.0,0.0,0.0,0.0,0.0,0.0,0.0,0.0,0.0,0.0,0.0,0.0,0.0,0.0,0.0,0.0,0.0,0.0,0.0,0.0,0.0,0.0,0.0,0.0,0.0,0.0,0.0,0.0,0.0,0.0,0.0,0.0,0.0,0.0,0.0,0.0,0.0,0.0,0.0,0.0,0.0,0.0,0.0,0.0,0.0,0.0,0.0,0.0,0.0,0.0,0.0,0.0,0.0,0.0,0.0,0.0,0.0,0.0,0.0,0.0,0.0,0.0,0.0,0.0,0.0,0.0,0.0,0.0,0.0,0.0,0.0,0.0,0.0,0.0,0.0,0.0,0.0,0.0,0.0,0.0,0.0,0.0,0.0,0.0,0.0,0.0,0.0,0.0,0.0,0.0,0.0,0.0,0.0,0.0,0.0,0.0,0.0,0.0,0.0,0.0,0.0,0.0,0.0,0.0,0.0,0.0,0.0,0.3692,0.0,0.378,0.0,0.3421,0.3085,0.0,0.0,0.0,0.0,0.0,0.0,0.0,0.0,0.0,0.0,0.0,0.0,0.0,0.0,0.0,0.0,0.0,0.0,0.0,0.0,0.0,0.0,0.0,0.0,0.0,0.0,0.0,0.0,0.0,0.0,0.0,0.0,0.0,0.0,0.0,0.0,0.0,0.0,0.0,0.0,0.0,0.0,0.0,0.0,0.0,0.0,0.0,0.0,0.0,0.0,0.0,0.0,0.0,0.0,0.0,0.0,0.0,0.0,0.0,0.0,0.0,0.0,0.0,0.0,0.0,0.0,0.0,0.0,0.0,0.0,0.0,0.0,0.0,0.0,0.0,0.0,0.0,0.0,0.0,0.0,0.0,0.0,0.0,0.0,0.0,0.0,0.0,0.0,0.0,0.0,0.0,0.0,0.0,0.0,0.0,0.0,0.0,0.0,0.0,0.0,0.0,0.0,0.0,0.0,0.0,0.0,0.0,0.0,0.3903,0.4075,0.3934,0.3863,0.3887,0.3539,0.3101,0.0,0.0,0.0,0.0,0.0,0.0,0.0,0.0,0.0,0.0,0.0,0.0,0.0,0.0,0.0,0.0,0.0,0.0,0.0,0.0,0.0,0.0,0.0,0.0,0.0,0.0,0.0,0.0,0.0,0.0,0.0,0.0,0.0,0.0,0.0,0.0,0.0,0.0,0.0,0.0,0.0,0.0,0.0,0.0,0.0,0.0,0.0,0.0,0.0,0.0,0.0,0.0,0.0,0.0,0.0,0.0,0.0,0.0,0.0,0.0,0.0,0.0,0.0,0.0,0.0,0.0,0.0,0.0,0.0,0.0,0.0,0.0,0.0,0.0,0.0,0.0,0.0,0.0,0.0,0.0,0.0,0.0,0.0,0.0,0.0,0.0,0.0,0.0,0.0,0.0,0.0,0.0,0.0,0.0,0.0,0.0,0.0,0.0,0.0,0.0,0.0,0.0,0.0,0.0,0.0,0.0,0.0,0.0,0.0,0.4182,0.4414,0.4482,0.4301,0.4061,0.3721,0.0,0.0,0.0,0.0,0.0,0.0,0.0,0.0,0.0,0.0,0.0,0.0,0.0,0.0,0.0,0.0,0.0,0.0,0.0,0.0,0.0,0.0,0.0,0.0,0.0,0.0,0.0,0.0,0.0,0.0,0.0,0.0,0.0,0.0,0.0,0.0,0.0,0.0,0.0,0.0,0.0,0.0,0.0,0.0,0.0,0.0,0.0,0.0,0.0,0.0,0.0,0.0,0.0,0.0,0.0,0.0,0.0,0.0,0.0,0.0,0.0,0.0,0.0,0.0,0.0,0.0,0.0,0.0,0.0,0.0,0.0,0.0,0.0,0.0,0.0,0.0,0.0,0.0,0.0,0.0,0.0,0.0,0.0,0.0,0.0,0.0,0.0,0.0,0.0,0.0,0.0,0.0,0.0,0.0,0.0,0.0,0.0,0.0,0.0,0.0,0.0,0.0,0.0,0.0,0.0,0.0,0.0,0.0,0.0,0.4422,0.4819,0.4921,0.4646,0.4462,0.4169,0.379,0.0,0.0,0.0,0.0,0.0,0.0,0.0,0.0,0.0,0.0,0.0,0.0,0.0,0.0,0.0,0.0,0.0,0.0,0.0,0.0,0.0,0.0,0.0,0.0,0.0,0.0,0.0,0.0,0.0,0.0,0.0,0.0,0.0,0.0,0.0,0.0,0.0,0.0,0.0,0.0,0.0,0.0,0.0,0.0,0.0,0.0,0.0,0.0,0.0,0.0,0.0,0.0,0.0,0.0,0.0,0.0,0.0,0.0,0.0,0.0,0.0,0.0,0.0,0.0,0.0,0.0,0.0,0.0,0.0,0.0,0.0,0.0,0.0,0.0,0.0,0.0,0.0,0.0,0.0,0.0,0.0,0.0,0.0,0.0,0.0,0.0,0.0,0.0,0.0,0.0,0.0,0.0,0.0,0.0,0.0,0.0,0.0,0.0,0.0,0.0,0.0,0.0,0.0,0.0,0.0,0.0,0.0,0.0,0.4726,0.5075,0.5125,0.4838,0.4684,0.4429,0.0,0.0,0.0,0.0,0.0,0.0,0.0,0.0,0.0,0.0,0.0,0.0,0.0,0.0,0.0,0.0,0.0,0.0,0.0,0.0,0.0,0.0,0.0,0.0,0.0,0.0,0.0,0.0,0.0,0.0,0.0,0.0,0.0,0.0,0.0,0.0,0.0,0.0,0.0,0.0,0.0,0.0,0.0,0.0,0.0,0.0,0.0,0.0,0.0,0.0,0.0,0.0,0.0,0.0,0.0,0.0,0.0,0.0,0.0,0.0,0.0,0.0,0.0,0.0,0.0,0.0,0.0,0.0,0.0,0.0,0.0,0.0,0.0,0.0,0.0,0.0,0.0,0.0,0.0,0.0,0.0,0.0,0.0,0.0,0.0,0.0,0.0,0.0,0.0,0.0,0.0,0.0,0.0,0.0,0.0,0.0,0.0,0.0,0.0,0.0,0.0,0.0,0.0,0.0,0.0,0.0,0.0,0.0,0.0,0.5122,0.4912,0.464,0.4326,0.4455,0.436,0.0,0.0,0.0,0.0,0.0,0.0,0.0,0.0,0.0,0.0,0.0,0.0,0.0,0.0,0.0,0.0,0.0,0.0,0.0,0.0,0.0,0.0,0.0,0.0,0.0,0.0,0.0,0.0,0.0,0.0,0.0,0.0,0.0,0.0,0.0,0.0,0.0,0.0,0.0,0.0,0.0,0.0,0.0,0.0,0.0,0.0,0.0,0.0,0.0,0.0,0.0,0.0,0.0,0.0,0.0,0.0,0.0,0.0,0.0,0.0,0.0,0.0,0.0,0.0,0.0,0.0,0.0,0.0,0.0,0.0,0.0,0.0,0.0,0.0,0.0,0.0,0.0,0.0,0.0,0.0,0.0,0.0,0.0,0.0,0.0,0.0,0.0,0.0,0.0,0.0,0.0,0.0,0.0,0.0,0.0,0.0,0.0,0.0,0.0,0.0,0.0,0.0,0.0,0.0,0.0,0.0,0.0,0.0,0.5264,0.5304,0.4807,0.4305,0.3816,0.4425,0.4587,0.0,0.0,0.0,0.0,0.0,0.0,0.0,0.0,0.0,0.0,0.0,0.0,0.0,0.0,0.0,0.0,0.0,0.0,0.0,0.0,0.0,0.0,0.0,0.0,0.0,0.0,0.0,0.0,0.0,0.0,0.0,0.0,0.0,0.0,0.0,0.0,0.0,0.0,0.0,0.0,0.0,0.0,0.0,0.0,0.0,0.0,0.0,0.0,0.0,0.0,0.0,0.0,0.0,0.0,0.0,0.0,0.0,0.0,0.0,0.0,0.0,0.0,0.0,0.0,0.0,0.0,0.0,0.0,0.0,0.0,0.0,0.0,0.0,0.0,0.0,0.0,0.0,0.0,0.0,0.0,0.0,0.0,0.0,0.0,0.0,0.0,0.0,0.0,0.0,0.0,0.0,0.0,0.0,0.0,0.0,0.0,0.0,0.0,0.0,0.0,0.0,0.0,0.0,0.0,0.0,0.0,0.0,0.0,0.5699,0.5255,0.4702,0.4113,0.3506,0.4496,0.4893,0.0,0.0,0.0,0.0,0.0,0.0,0.0,0.0,0.0,0.0,0.0,0.0,0.0,0.0,0.0,0.0,0.0,0.0,0.0,0.0,0.0,0.0,0.0,0.0,0.0,0.0,0.0,0.0,0.0,0.0,0.0,0.0,0.0,0.0,0.0,0.0,0.0,0.0,0.0,0.0,0.0,0.0,0.0,0.0,0.0,0.0,0.0,0.0,0.0,0.0,0.0,0.0,0.0,0.0,0.0,0.0,0.0,0.0,0.0,0.0,0.0,0.0,0.0,0.0,0.0,0.0,0.0,0.0,0.0,0.0,0.0,0.0,0.0,0.0,0.0,0.0,0.0,0.0,0.0,0.0,0.0,0.0,0.0,0.0,0.0,0.0,0.0,0.0,0.0,0.0,0.0,0.0,0.0,0.0,0.0,0.0,0.0,0.0,0.0,0.0,0.0,0.0,0.0,0.0,0.0,0.0,0.0,0.0,0.5154,0.4825,0.4192,0.3795,0.3654,0.4485,0.4732,0.0,0.0,0.0,0.0,0.0,0.0,0.0,0.0,0.0,0.0,0.0,0.0,0.0,0.0,0.0,0.0,0.0,0.0,0.0,0.0,0.0,0.0,0.0,0.0,0.0,0.0,0.0,0.0,0.0,0.0,0.0,0.0,0.0,0.0,0.0,0.0,0.0,0.0,0.0,0.0,0.0,0.0,0.0,0.0,0.0,0.0,0.0,0.0,0.9047,0.0,0.0,0.0,0.0,0.0,0.0,0.0,0.0,0.0,0.0,0.0,0.0,0.0,0.0,0.0,0.0,0.0,0.0,0.0,0.0,0.0,0.0,0.0,0.0,0.0,0.0,0.0,0.0,0.0,0.0,0.0,0.0,0.0,0.0,0.0,0.0,0.0,0.0,0.0,0.0,0.0,0.0,0.0,0.0,0.0,0.0,0.0,0.0,0.0,0.0,0.0,0.0,0.0,0.0,0.0,0.0,0.0,0.0,0.0,0.528,0.4702,0.4095,0.3765,0.3718,0.4427,0.4682,0.0,0.0,0.0,0.0,0.0,0.0,0.0,0.0,0.0,0.0,0.0,0.0,0.0,0.0,0.0,0.0,0.0,0.0,0.0,0.0,0.0,0.0,0.0,0.0,0.0,0.0,0.0,0.0,0.0,0.0,0.0,0.0,0.0,0.0,0.0,0.0,0.0,0.0,0.0,0.0,0.0,0.0,0.0,0.0,0.0,0.0,0.0,0.0,0.0,0.0,0.0,0.0,0.0,0.0,0.0,0.0,0.0,0.0,0.0,0.0,0.0,0.0,0.0,0.0,0.0,0.0,0.0,0.0,0.0,0.0,0.0,0.0,0.0,0.0,0.0,0.0,0.0,0.0,0.0,0.0,0.0,0.0,0.0,0.0,0.0,0.0,0.0,0.0,0.0,0.0,0.0,0.0,0.0,0.0,0.0,0.0,0.0,0.0,0.0,0.0,0.0,0.0,0.0,0.0,0.0,0.0,0.0,0.6459,0.5746,0.4679,0.4176,0.3891,0.3777,0.4405,0.4752,0.4756,0.0,0.0,0.0,0.0,0.0,0.0,0.0,0.0,0.0,0.0,0.0,0.0,0.0,0.0,0.0,0.0,0.0,0.0,0.0,0.0,0.0,0.0,0.0,0.0,0.0,0.0,0.0,0.0,0.0,0.0,0.0,0.0,0.0,0.0,0.0,0.0,0.0,0.0,0.8773,0.9,0.0,0.0,0.0,0.0,0.0,0.0,0.0,0.0,0.9534,0.0,0.0,0.0,0.0,0.0,0.0,0.0,0.0,0.0,0.0,0.0,0.0,0.0,0.0,0.0,0.0,0.0,0.0,0.0,0.0,0.0,0.0,0.0,0.0,0.0,0.0,0.0,0.0,0.0,0.0,0.0,0.0,0.0,0.0,0.0,0.0,0.0,0.0,0.0,0.0,0.0,0.0,0.0,0.0,0.0,0.0,0.0,0.0,0.0,0.0,0.0,0.0,0.0,0.0,0.0,0.0,0.6666,0.6901,0.6149,0.4412,0.4239,0.4113,0.4044,0.4682,0.5125,0.5343,0.0,0.0,0.0,0.0,0.0,0.0,0.0,0.0,0.0,0.0,0.0,0.0,0.0,0.0,0.0,0.0,0.0,0.0,0.0,0.0,0.0,0.0,0.0,0.0,0.0,0.0,0.0,0.0,0.0,0.0,0.0,0.0,0.0,0.0,0.0,0.0,0.0,0.0,0.0,0.9345,0.9442,0.0,0.0,0.0,0.0,0.0,0.0,0.0,0.0,0.9797,0.0,0.0,0.0,0.0,0.0,0.0,0.0,0.0,0.0,0.0,0.0,0.0,0.0,0.0,0.0,0.0,0.0,0.0,0.0,0.0,0.0,0.0,0.0,0.0,0.0,0.0,0.0,0.0,0.0,0.0,0.0,0.0,0.0,0.0,0.0,0.0,0.0,0.0,0.0,0.0,0.0,0.0,0.0,0.0,0.0,0.0,0.0,0.0,0.0,0.0,0.0,0.0,0.0,0.0,0.0,0.7209,0.6556,0.5586,0.4361,0.424,0.4181,0.4161,0.4835,0.5344,0.0,0.0,0.0,0.0,0.0,0.0,0.0,0.0,0.0,0.0,0.0,0.0,0.0,0.0,0.0,0.0,0.0,0.0,0.0,0.0,0.0,0.0,0.0,0.0,0.0,0.0,0.0,0.0,0.0,0.0,0.0,0.0,0.0,0.0,0.0,0.0,0.0,0.0,0.0,0.0,0.9137,0.9103,0.959,0.0,0.0,0.0,0.0,0.0,0.0,0.9884,0.9892,0.0,0.0,0.0,0.0,0.0,0.0,0.0,0.0,0.0,0.0,0.0,0.0,0.0,0.0,0.0,0.0,0.0,0.0,0.0,0.0,0.0,0.0,0.0,0.0,0.0,0.0,0.0,0.0,0.0,0.0,0.0,0.0,0.0,0.0,0.0,0.0,0.0,0.0,0.0,0.0,0.0,0.0,0.0,0.0,0.0,0.0,0.0,0.0,0.0,0.0,0.0,0.0,0.0,0.0,0.0,0.7835,0.6322,0.5144,0.4393,0.4296,0.4247,0.4243,0.5074,0.561,0.0,0.0,0.0,0.0,0.0,0.0,0.0,0.0,0.0,0.0,0.0,0.0,0.0,0.0,0.0,0.0,0.0,0.0,0.0,0.0,0.0,0.0,0.0,0.0,0.0,0.0,0.0,0.0,0.0,0.0,0.0,0.0,0.0,0.0,0.0,0.0,0.0,0.0,0.0,0.0,0.0,0.9153,0.9731,0.9333,0.0,0.0,0.0,0.0,1.0242,1.0079,0.0,0.0,0.0,0.0,0.0,0.0,0.0,0.0,0.0,0.0,0.0,0.0,0.0,0.0,0.0,0.0,0.0,0.0,0.0,0.0,0.0,0.0,0.0,0.0,0.0,0.0,0.0,0.0,0.0,0.0,0.0,0.0,0.0,0.0,0.0,0.0,0.0,0.0,0.0,0.0,0.0,0.0,0.0,0.0,0.0,0.0,0.0,0.0,0.0,0.0,0.0,0.0,0.0,0.0,0.0,0.0,0.8192,0.6948,0.5695,0.4553,0.4457,0.4409,0.431,0.5582,0.6233,0.0,0.0,0.0,0.0,0.0,0.0,0.0,0.0,0.0,0.0,0.0,0.0,0.0,0.0,0.0,0.0,0.0,0.0,0.0,0.0,0.0,0.0,0.0,0.0,0.0,0.0,0.0,0.0,0.0,0.0,0.0,0.0,0.0,0.0,0.0,0.0,0.0,0.0,0.0,0.0,0.0,1.0567,0.9966,0.9864,1.0151,0.0,0.0,1.0264,1.1039,1.0545,0.0,0.0,0.0,0.0,0.0,0.0,0.0,0.0,0.0,0.0,0.0,0.0,0.0,0.0,0.0,0.0,0.0,0.0,0.0,0.0,0.0,0.0,0.0,0.0,0.0,0.0,0.0,0.0,0.0,0.0,0.0,0.0,0.0,0.0,0.0,0.0,0.0,0.0,0.0,0.0,0.0,0.0,0.0,0.0,0.0,0.0,0.0,0.0,0.0,0.0,0.0,0.0,0.0,0.0,0.0,0.7638,0.8414,0.6405,0.5062,0.4519,0.4487,0.4476,0.4423,0.5786,0.6464,0.0,0.0,0.0,0.0,0.0,0.0,0.0,0.0,0.0,0.0,0.0,0.0,0.0,0.0,0.0,0.0,0.0,0.0,0.0,0.0,0.0,0.0,0.0,0.0,0.0,0.0,0.0,0.0,0.0,0.0,0.0,0.0,0.0,0.0,0.0,0.0,0.0,0.0,0.0,0.0,0.0,0.0,0.9928,1.0012,0.0,0.0,0.0,1.0924,1.1295,0.0,0.0,0.0,0.0,0.0,0.0,0.0,0.0,0.0,0.0,0.0,0.0,0.0,0.0,0.0,0.0,0.0,0.0,0.0,0.0,0.0,0.0,0.0,0.0,0.0,0.0,0.0,0.0,0.0,0.0,0.0,0.0,0.0,0.0,0.0,0.0,0.0,0.0,0.0,0.0,0.0,0.0,0.0,0.0,0.0,0.0,0.0,0.0,0.0,0.0,0.0,0.0,0.0,0.0,0.0,0.0,0.0,0.8678,0.5949,0.449,0.4487,0.4487,0.4487,0.4513,0.5693,0.0,0.0,0.0,0.0,0.0,0.0,0.0,0.0,0.0,0.0,0.0,0.0,0.0,0.0,0.0,0.0,0.0,0.0,0.0,0.0,0.0,0.0,0.0,0.0,0.0,0.0,0.0,0.6631,0.0,0.0,0.0,0.0,0.0,0.0,0.0,0.0,0.0,0.0,0.0,0.0,0.0,0.0,0.9591,1.0252,1.0407,1.0439,0.0,0.0,1.1414,1.1412,1.0679,1.0113,0.0,0.0,0.0,0.0,0.0,0.0,0.0,0.0,0.0,0.0,0.0,0.0,0.0,0.0,0.0,0.0,0.0,0.0,0.0,0.0,0.0,0.0,0.0,0.0,0.0,0.0,0.0,0.0,0.0,0.0,0.0,0.0,0.0,0.0,0.0,0.0,0.0,0.0,0.0,0.0,0.0,0.0,0.0,0.0,0.0,0.0,0.0,0.0,0.0,0.0,0.0,0.0,0.0,0.0,0.0,0.8822,0.6016,0.4494,0.449,0.4487,0.4487,0.4507,0.5261,0.5988,0.0,0.0,0.0,0.0,0.0,0.0,0.0,0.0,0.0,0.0,0.0,0.0,0.0,0.0,0.0,0.0,0.0,0.0,0.0,0.0,0.0,0.0,0.0,0.0,0.0,0.0,0.0,0.0,0.0,0.0,0.0,0.0,0.0,0.0,0.0,0.0,0.0,0.0,0.0,0.0,0.0,1.1168,1.1277,1.1314,1.1337,0.0,0.0,1.1414,1.1416,1.0736,1.0167,1.0107,0.0,0.0,0.0,0.0,0.0,0.0,0.0,0.0,0.0,0.0,0.0,0.0,0.0,0.0,0.0,0.0,0.0,0.0,0.0,0.0,0.0,0.0,0.0,0.0,0.0,0.0,0.0,0.0,0.0,0.0,0.0,0.0,0.0,0.0,0.0,0.0,0.0,0.0,0.0,0.0,0.0,0.0,0.0,0.0,0.0,0.0,0.0,0.0,0.0,0.0,0.0,0.0,0.0,0.7998,0.9062,0.6164,0.4629,0.4632,0.4627,0.4617,0.4631,0.5354,0.6069,0.0,0.0,0.0,0.0,0.0,0.0,0.0,0.0,0.0,0.0,0.0,0.0,0.0,0.0,0.0,0.0,0.0,0.0,0.0,0.0,0.0,0.0,0.0,0.0,0.0,0.0,0.0,0.0,0.6975,0.7546,0.8118,0.0,0.0,0.0,0.0,0.0,0.0,0.0,0.0,0.0,0.0,1.1186,1.0741,1.1094,0.0,0.0,1.108,1.1588,1.211,1.1075,1.036,1.0883,1.0533,0.0,0.0,0.0,0.0,0.0,0.0,0.0,0.0,0.0,0.0,0.0,0.0,0.0,0.0,0.0,0.0,0.0,0.0,0.0,0.0,0.0,0.0,0.0,0.0,0.0,0.0,0.0,0.0,0.0,0.0,0.0,0.0,0.0,0.0,0.0,0.0,0.0,0.0,0.0,0.0,0.0,0.0,0.0,0.0,0.0,0.0,0.0,0.0,0.0,0.0,0.0,0.0,0.8809,0.9581,0.6613,0.5061,0.5048,0.4814,0.4699,0.4717,0.5212,0.5932,0.0,0.0,0.0,0.0,0.0,0.0,0.0,0.0,0.0,0.0,0.0,0.0,0.0,0.0,0.0,0.0,0.0,0.0,0.0,0.0,0.0,0.0,0.0,0.0,0.0,0.0,0.0,0.0,0.757,0.8058,0.8722,0.0,0.0,0.0,0.0,0.0,0.0,0.0,0.0,0.0,0.0,1.1026,1.0986,1.1461,1.1616,1.1063,1.168,1.2326,1.2678,1.1738,1.1092,1.1436,0.0,0.0,0.0,0.0,0.0,0.0,0.0,0.0,0.0,0.0,0.0,0.0,0.0,0.0,0.0,0.0,0.0,0.0,0.0,0.0,0.0,0.0,0.0,0.0,0.0,0.0,0.0,0.0,0.0,0.0,1.2168,0.0,0.0,0.0,0.0,0.0,0.0,0.0,0.0,0.0,0.0,0.0,0.0,0.0,0.0,0.0,0.0,0.0,0.0,0.0,0.0,0.0,0.0,0.0,1.049,0.7449,0.5889,0.5862,0.5127,0.4724,0.4735,0.4724,0.544,0.6924,0.0,0.0,0.0,0.0,0.0,0.0,0.0,0.0,0.0,0.0,0.0,0.0,0.0,0.0,0.0,0.0,0.0,0.0,0.0,0.0,0.0,0.0,0.0,0.0,0.0,0.0,0.9739,0.911,0.8699,0.0,0.0,0.0,0.0,0.0,0.0,0.0,0.0,0.0,0.0,1.1822,1.0879,1.2531,1.2749,1.2746,1.2725,1.3459,1.3742,1.2936,1.2766,1.2472,0.0,0.0,0.0,0.0,0.0,0.0,0.0,0.0,0.0,0.0,0.0,0.0,0.0,0.0,0.0,0.0,0.0,0.0,0.0,0.0,0.0,0.0,0.0,0.0,0.0,0.0,0.0,1.1009,1.1636,0.0,0.0,0.0,0.0,0.0,0.0,0.0,0.0,0.0,0.0,0.0,1.1922,1.1248,0.0,0.0,0.0,0.0,0.0,0.0,0.0,0.0,0.0,0.0,0.0,0.0,1.015,0.9797,0.7904,0.6894,0.6883,0.6082,0.5632,0.5635,0.5127,0.5308,0.6304,0.0,0.0,0.0,0.0,0.0,0.0,0.0,0.0,0.0,0.0,0.0,0.0,0.0,0.0,0.0,0.0,0.0,0.0,0.0,0.0,0.0,0.0,0.0,0.0,0.0,0.992,0.0,0.0,0.0,0.0,0.0,0.0,0.0,0.0,0.0,0.0,0.0,1.2895,1.3165,1.3426,1.3825,1.4455,1.4042,1.3668,0.0,0.0,0.0,0.0,0.0,0.0,0.0,0.0,0.0,0.0,0.0,0.0,0.0,0.0,1.416,1.4486,1.3805,1.3294,1.3612,0.0,0.0,0.0,0.0,0.0,0.0,0.0,0.0,0.0,0.0,0.0,0.0,0.0,0.0,1.1917,0.0,1.2592,0.0,0.0,0.0,0.0,0.0,0.0,0.0,0.0,1.3417,1.2763,1.1964,1.1521,1.1134,0.0,1.1077,1.1439,0.0,0.0,0.0,0.0,0.0,0.0,0.0,0.0,1.0976,1.0414,0.8712,0.7814,0.7783,0.6994,0.6413,0.6103,0.56,0.5548,0.602,0.6787,0.7577,0.0,0.0,0.0,0.0,0.0,0.0,0.0,0.0,0.0,0.0,0.0,0.0,0.0,0.0,0.0,0.0,0.0,0.0,0.0,0.0,0.0,0.0,0.0,0.9589,0.0,0.0,0.0,0.0,0.0,0.0,0.0,0.0,0.0,1.1131,1.2581,1.366,1.3698,1.4395,1.5114,1.5751,0.0,0.0,0.0,0.0,0.0,0.0,0.0,1.3341,1.3605,1.2972,1.2134,1.1278,1.1826,1.2311,1.2006,0.0,0.0,1.4097,1.3627,1.3335,1.3649,1.392,1.4097,1.4152,1.4345,1.4736,0.0,0.0,0.0,0.0,0.0,0.0,0.0,0.0,1.1571,1.2404,0.0,1.3034,0.0,0.0,0.0,0.0,0.0,0.0,0.0,0.0,1.377,1.3099,1.2376,1.2264,1.1856,1.1173,1.1824,1.2186,1.2292,1.271,0.0,0.0,0.0,0.0,0.0,0.0,1.2082,1.2062,0.9821,0.8641,0.8619,0.7851,0.7032,0.6188,0.6117,0.6115,0.6159,0.6791,0.757,0.8389,0.7622,0.0,0.0,0.0,0.0,0.0,0.0,0.0,0.0,0.0,0.0,0.0,0.0,0.0,0.0,0.0,0.0,0.0,0.0,0.0,0.0,0.8913,0.0,0.0,0.0,0.0,0.0,0.0,0.0,0.0,0.0,0.0,1.2898,1.2985,1.3576,1.5263,0.0,0.0,0.0,0.0,1.577,1.654,1.6653,1.6314,1.5464,1.4603,1.3761,1.3005,0.0,0.0,1.059,1.2434,1.371,1.2938,1.3502,1.4103,1.4097,1.4013,1.4224,1.4983,1.4533,1.4699,1.6068,1.5768,1.5879,1.5227,0.0,0.0,0.0,0.0,1.4195,1.3879,1.4111,1.3711,1.3854,1.435,1.4131,0.0,0.0,0.0,0.0,0.0,0.0,1.4623,1.4644,1.3963,1.3514,1.3253,1.2075,1.1402,1.1166,1.0829,1.0681,1.0724,1.138,1.2188,1.3118,0.0,0.0,0.0,0.0,1.1723,1.0612,0.9879,0.9518,0.9516,0.8696,0.7859,0.7041,0.6463,0.6417,0.6927,0.6605,0.6797,0.7606,0.7932,0.0,0.0,0.0,0.0,0.0,0.0,0.0,0.0,0.0,0.0,0.0,0.0,0.0,0.0,0.0,0.0,0.0,0.0,0.0,0.9784,0.9772,1.0013,0.0,0.0,0.0,0.0,0.0,0.0,0.0,0.0,0.0,1.3717,1.5361,1.6696,0.0,0.0,1.7916,1.8417,1.7782,1.7128,1.6758,0.0,0.0,0.0,1.374,1.3301,1.3662,1.3504,1.3278,1.3055,1.3153,1.3143,1.2849,1.3522,1.4099,1.4061,1.3585,1.3324,1.3512,1.3818,1.4209,1.4735,1.557,1.6483,1.578,1.5266,1.507,1.5342,1.5815,1.5063,1.4811,1.4922,1.4323,1.4434,1.5075,1.4475,1.4537,1.5087,1.4839,0.0,0.0,0.0,1.4885,1.4914,1.4471,1.409,1.3706,1.2751,1.2097,1.175,1.1272,1.1031,1.1027,1.1521,1.2217,1.3136,0.0,0.0,1.2358,1.2075,1.1432,1.0458,1.0093,0.9929,0.9936,0.9086,0.8403,0.792,0.7114,0.6733,0.6853,0.6387,0.6355,0.6819,0.7287,0.755,0.0,0.0,0.0,0.0,0.0,0.0,0.0,0.0,0.0,0.0,0.0,0.5333,0.0,0.0,0.0,0.0,0.8845,1.0165,1.0194,1.047,0.0,0.0,0.0,0.0,0.0,0.0,0.0,1.3498,1.4047,1.4547,1.5094,1.6797,1.787,1.7527,1.7904,1.8336,1.8671,0.0,1.6777,1.6268,1.5445,1.4585,1.3719,1.3142,1.2985,1.3494,1.3583,1.3584,1.3574,1.3164,1.2978,1.3291,1.375,1.4199,1.455,1.4178,1.3844,1.3857,1.4531,1.5096,1.5123,1.6234,1.7229,1.6511,1.5901,1.6558,1.6406,1.5739,1.5787,1.5447,1.4762,1.4111,1.463,1.5889,1.4541,1.4659,1.5901,1.5212,0.0,0.0,1.5043,1.5107,1.5105,1.5111,1.4715,1.3996,1.3936,1.3472,1.2717,1.2631,1.2606,1.2576,1.2586,1.2568,1.2518,1.2528,1.2483,1.2373,1.1743,1.1374,1.1294,1.058,1.0179,1.0085,0.9241,0.8796,0.8784,0.7954,0.7151,0.645,0.6344,0.6243,0.612,0.6169,0.6178,0.6122,0.0,0.0,0.0,0.0,0.0,0.0,0.0,0.0,0.0,0.0,0.0,0.0,0.0,0.0,0.0,0.9327,0.0,1.0216,1.0932,0.0,0.0,0.0,1.128,1.0665,1.1907,1.2887,1.3085,0.0,0.0,0.0,0.0,1.744,1.6513,1.657,1.6948,1.7604,1.6307,1.5273,1.5165,1.4453,1.3623,1.2871,1.2744,1.2812,1.2861,1.2909,1.3144,1.3164,1.3135,1.3389,1.4062,1.4199,1.4443,1.5244,1.5303,1.541,1.5317,1.6033,1.666,1.6757,1.748,1.8095,1.7178,1.7014,1.7181,1.7073,1.6747,1.6872,1.6814,1.6647,1.6478,1.6673,1.7085,1.6727,1.6475,1.6242,1.5423,1.5059,1.5065,1.5085,1.5105,1.5105,1.5108,1.4996,1.4775,1.4185,1.3795,1.3545,1.2925,1.2608,1.2604,1.2649,1.2666,1.2658,1.2654,1.2603,1.2503,1.294,1.2884,1.2271,1.2023,1.1605,1.0996,1.0187,0.9739,0.9687,0.8895,0.8357,0.8105,0.7504,0.6886,0.6243,0.6764,0.6825,0.622,0.6798,0.0,0.0,0.0,0.0,0.0,0.0,0.0,0.0,0.0,0.7575,0.6117,0.0,0.8809,0.0,1.0568,1.0935,1.0338,1.042,0.0,0.0,1.1426,1.1997,1.3062,1.3013,1.3378,1.4668,1.5351,1.5459,1.4805,1.5468,1.5447,1.4,1.5439,1.6309,1.523,1.4713,1.4157,1.3518,1.2747,1.2133,1.1997,1.2422,1.2782,1.279,1.3867,1.4775,1.4766,1.4792,1.4856,1.5048,1.5097,1.5184,1.5351,1.5408,1.5411,1.5457,1.6096,1.6913,1.7544,1.8381,1.8973,1.6933,1.6361,1.7108,1.7373,1.7272,1.7363,1.7179,1.6895,1.7296,1.7526,1.7583,1.7575,1.7359,1.6962,1.647,1.6243,1.6237,1.5882,1.5712,1.5712,1.5319,1.5146,1.5123,1.4685,1.4489,1.4505,1.3992,1.3784,1.3778,1.3413,1.326,1.3292,1.328,1.3243,1.3173,1.3257,1.3087,1.2646,1.2601,1.22,1.1364,1.0878,1.0624,1.0612,1.0167,0.9921,0.9893,0.9464,0.8666,0.7482,0.7822,0.7883,0.7431,0.7846,0.8078,0.0,0.0,0.0,0.0,0.0,0.0,0.0,0.0,0.0,0.0,0.0,0.9235,0.0,1.1326,0.0,1.1454,1.2069,1.255,1.2648,1.2693,1.2958,1.3501,1.3172,1.3252,1.418,1.4277,1.4102,1.3633,1.3993,1.3796,1.2459,1.3516,1.4219,1.365,1.3208,1.2769,1.229,1.15,1.1142,1.1476,1.1927,1.2498,1.3279,1.4176,1.4946,1.5311,1.5068,1.4935,1.528,1.5091,1.4968,1.5292,1.5416,1.5515,1.5948,1.6347,1.6975,1.7812,1.8691,1.9345,1.6881,1.573,1.7229,1.7797,1.7709,1.7817,1.746,1.686,1.7671,1.8018,1.8028,1.7926,1.7864,1.7855,1.7751,1.7697,1.7662,1.6955,1.6657,1.6603,1.576,1.5372,1.537,1.5253,1.5254,1.5286,1.524,1.5251,1.5268,1.4479,1.4113,1.4175,1.417,1.4181,1.4151,1.3423,1.3056,1.3024,1.293,1.2505,1.1762,1.1573,1.1512,1.1571,1.1518,1.1506,1.156,1.1564,1.0851,0.9336,0.9216,0.9132,0.8932,0.901,0.9298,0.0,1.0014,0.0,0.0,0.0,0.0,0.0,0.0,0.0,0.0,0.9097,0.9511,1.0156,1.1719,1.269,1.265,1.4101,1.4757,1.4023,1.3838,1.3535,1.2978,1.2803,1.2783,1.29,1.291,1.2881,1.2764,1.2725,1.2412,1.1621,1.1523,1.1844,1.223,1.1847,1.1409,1.1329,1.0698,1.0554,1.1148,1.1531,1.2244,1.3567,1.4046,1.4399,1.5253,1.4708,1.4391,1.5105,1.4847,1.4603,1.5287,1.5415,1.5654,1.6262,1.6431,1.6847,1.7957,1.8773,1.9542,1.9541,1.9319,1.9624,1.9363,1.878,1.9467,1.9659,1.9476,1.9653,1.975,1.9752,1.9064,1.8746,1.8701,1.8016,1.7702,1.7705,1.7555,1.7487,1.7439,1.6628,1.6255,1.6215,1.5589,1.5291,1.5291,1.5294,1.529,1.5294,1.5182,1.5123,1.513,1.5132,1.5126,1.5117,0.0,0.0,0.0,1.4157,1.3724,1.3507,1.2847,1.2489,1.2455,1.2493,0.0,1.2464,1.2461,1.1986,1.1003,1.0917,0.0,0.0,0.0,0.0,0.0,0.0,0.0,0.0,0.0,0.0,0.0,1.1249,1.0223,0.9068,1.0191,1.0782,1.03,1.1771,1.249,1.1839,1.2664,1.3247,1.3115,1.251,1.2285,1.2773,1.2285,1.2109,1.2812,1.29,1.2617,1.2002,1.1846,1.1533,1.084,1.0557,1.0576,1.077,1.0712,1.0528,1.0428,1.0306,1.0246,1.0408,1.162,1.2508,1.3088,1.3669,1.4399,1.5141,1.4713,1.4435,1.5228,1.5267,1.5166,1.5371,1.5409,1.5465,1.5614,1.5672,1.6318,1.8542,1.917,1.954,1.9077,0.0,1.9067,1.9065,0.0,1.9484,1.9888,2.0238,2.0252,2.0261,2.0269,1.9831,1.9638,1.9612,1.9173,1.8975,1.8965,1.8536,1.8344,1.8299,1.7519,1.7143,1.7147,1.6757,1.6363,1.599,1.5949,1.5738,1.5364,1.5383,1.5416,1.5411,1.541,1.5412,1.5408,1.5412,1.5382,1.5351,1.4951,1.4523,1.4066,1.3656,1.3234,1.2776,0.0,0.0,0.0,0.0,0.0,0.0,0.0,0.0,0.0,0.0,0.0,1.0271,1.1011,1.111,1.028,1.0593,1.1233,1.2067,1.2149,1.1577,1.0277,1.0988,1.1139,1.0322,1.1792,1.2623,1.2241,1.3297,1.3914,1.3525,1.3095,1.289,1.2812,1.2119,1.1797,1.21,1.1875,1.1562,1.1602,1.1602,1.1641,1.1592,1.1582,1.1523,1.1416,1.0746,1.0249,1.0197,1.0194,1.0367,1.0802,1.1482,1.2559,1.3233,1.3808,1.4424,1.5257,1.5041,1.49,1.5322,1.5409,1.5414,1.5414,1.5414,1.5411,1.5413,1.541,1.5921,1.7686,1.8341,1.8748,1.8252,1.8243,1.8252,1.8667,1.931,1.9248,1.9643,2.0298,0.0,0.0,0.0,2.0292,2.03,2.0291,2.0291,2.0291,2.0252,1.9561,1.923,1.9205,1.8404,1.8033,1.804,1.7939,1.7555,1.6949,1.6878,1.6515,1.5866,1.5711,1.5632,1.562,1.5484,1.5415,1.5415,1.5415,1.5411,1.5412,1.541,1.5056,1.4357,1.4327,1.398,1.3281,1.3102,1.3037,1.3017,1.288,1.2466,1.1771,1.1721,1.1728,1.1727,1.1727,1.2044,1.272,1.2788,1.249,1.1784,1.1585,1.1568,1.1714,1.254,1.2663,1.1783,1.1733,1.1435,1.0716,1.2107,1.3018,1.3046,1.4432,1.5117,1.4403,1.4061,1.3632,1.3134,1.2197,1.1669,1.1719,1.1328,1.1035,1.1768,1.1865,1.2061,1.2695,1.2754,1.287,1.2639,1.162,1.0827,1.081,1.0864,1.0971,1.1519,1.1976,1.2517,1.3778,1.4058,1.4408,1.512,1.5283,1.5232,1.5358,1.5399,1.5412,1.5409,1.5408,1.5407,1.5374,1.5383,1.5588,1.631,1.7146,1.7801,1.9927,1.9937,1.996,2.0024,2.014,2.013,2.0188,2.0296,2.0298,2.03,2.0296,2.0296,2.0298,2.0296,2.0296,2.0296,2.0296,2.0181,2.0125,0.0,1.9291,1.8916,1.8875,1.8218,1.7866,1.7821,1.7802,1.7743,1.7558,1.6874,1.6522,1.6423,1.5768,1.5435,1.5415,1.5413,1.5412,1.541,1.5415,1.5343,1.5223,1.5227,1.5172,1.501,1.4288,1.3925,1.3916,1.3182,1.275,1.2613,1.2619,1.2614,1.2608,1.2583,1.2676,1.2784,1.2784,1.2745,1.2608,1.1929,1.1832,1.257,1.3424,1.3539,1.2706,1.2616,1.2561,1.2484,1.3298,1.3922,1.3994,1.4805,1.5332,1.5085,1.3913,1.3279,1.3747,1.2557,1.1912,1.2546,1.2636,1.249,1.2666,1.2715,1.2783,1.292,1.3174,1.2948,1.294,1.2612,1.2417,1.2362,1.2349,1.2407,1.2557,1.3184,1.3642,1.3948,1.411,1.4452,1.5244,1.4906,1.4732,1.5285,1.5399,1.5396,1.5399,1.5407,1.5382,1.5331,1.5329,1.5415,1.5621,1.628,1.7071,1.9925,2.0331,2.036,2.035,2.036,2.0318,2.0295,2.0294,2.0295,2.0292,2.0293,2.0299,2.0296,2.0294,2.0294,2.0294,2.0294,2.0294,2.029,2.0277,1.9947,1.9802,1.9776,1.9466,1.9083,1.8677,1.8639,1.8436,1.7988,1.7578,1.7392,1.7382,1.7001,1.6815,1.6776,1.6344,1.6108,1.6098,1.5636,1.5408,1.5416,1.5415,1.5188,1.4703,1.4302,1.3871,1.3412,1.3008,1.279,1.2791,1.2789,1.2788,1.2784,1.2789,1.2783,1.2787,1.2784,1.279,1.2784,1.2867,1.3085,1.3487,1.4315,1.4641,1.4202,1.3764,1.3305,1.2887,1.359,1.4102,1.4128,1.489,1.5202,1.473,1.3979,1.354,1.3374,1.2847,1.2477,1.2829,1.2908,1.3065,1.3504,1.3554,1.3779,1.4121,1.4258,1.4226,1.4179,1.4193,1.3802,1.2937,1.2695,1.2941,1.3311,1.3692,1.4157,1.4603,1.473,1.4905,1.53,1.4945,1.4966,1.5242,1.5349,1.5347,1.5341,1.5349,1.5346,1.5313,1.5289,1.5289,1.5394,1.5988,1.6858,1.9203,1.9812,1.9812,1.9918,2.0092,2.0064,2.0147,2.0327,2.0317,2.0317,2.0327,2.0317,2.0295,2.0317,2.0317,2.0202,2.0066,2.024,2.0217,2.0057,2.0287,2.0388,2.0393,2.0461,2.0124,1.9549,1.9483,1.9158,1.86,1.8375,1.8171,1.8026,1.8007,1.8008,1.7978,1.7333,1.6901,1.6667,1.605,1.5608,1.5412,1.5412,1.5069,1.4452,1.4205,1.3783,1.3138,1.2921,1.2832,1.2822,1.2822,1.2888,1.3071,1.3107,1.3091,1.311,1.3272,1.3296,1.3144,1.3706,1.4099,1.4111,1.4716,1.5154,1.5258,1.4752,1.4124,1.3576,1.4053,1.4421,1.4515,1.4982,1.5109,1.4474,1.4191,1.3976,1.3558,1.3304,1.3275,1.3394,1.3463,1.3756,1.4215,1.4403,1.4638,1.5165,1.5409,1.5413,1.541,1.5409,1.4755,1.3836,1.3299,1.3582,1.4186,1.4306,1.4595,1.5228,1.5264,1.5247,1.5289,1.5293,1.5287,1.53,1.53,1.5298,1.5293,1.5289,1.5297,1.5303,1.5484,1.5709,1.6006,1.671,1.7348,1.7978,1.8026,1.8113,1.8509,1.9222,1.9261,1.9709,2.0337,2.0389,2.0389,2.0373,2.0318,2.0347,2.0386,2.0415,2.0038,1.9422,2.0051,1.998,1.9378,2.0041,2.0387,2.0347,2.0381,2.0381,2.0344,2.0347,2.0233,2.0102,1.9453,1.874,1.8084,1.8005,1.8066,1.8017,1.7938,1.7497,1.6716,1.6618,1.6187,1.5451,1.5412,1.5373,1.5274,1.4513,1.4072,1.3974,1.3274,1.2913,1.2883,1.2891,1.3179,1.3874,1.3967,1.3991,1.4026,1.4698,1.4831,1.4088,1.4065,1.4135,1.4098,1.4233,1.4619,1.5306,1.5321,1.5253,1.5109,1.5185,1.5219,1.5266,1.5363,1.5344,1.5188,1.4581,1.4367,1.4846,1.4464,1.4279,1.51,1.4984,1.519,1.5161,1.5182,1.5261,1.5359,1.5414,1.5416,1.5416,1.5413,1.5379,1.5109,1.5057,1.4993,1.5112,1.5163,1.5152,1.5278,1.5292,1.5295,1.5296,1.5294,1.5289,1.5288,1.5293,1.5288,1.5294,1.5295,1.5313,1.5566,1.6004,1.6665,1.7418,1.8118,1.8686,1.7687,1.85,1.8007,1.8313,1.9106,1.9638,2.007,2.0373,2.0389,2.0389,2.0389,2.0366,2.065,2.1159,2.1169,2.0969,2.0688,2.0998,2.0411,1.9203,1.9477,1.963,1.9628,1.9639,1.9905,2.0397,2.0437,2.0449,2.0429,2.0136,1.9791,1.9518,1.9479,1.9488,1.9446,1.8966,1.8313,1.7489,1.6961,1.6266,1.5513,1.5414,1.5413,1.5363,1.505,1.4875,1.4846,1.4543,1.4378,1.4387,1.4347,1.4492,1.485,1.4856,1.488,1.4886,1.52,1.5246,1.4883,1.4865,1.4856,1.4872,1.4862,1.5041,1.5357,1.5411,1.5413,1.5408,1.5418,1.5409,1.5414,1.5412,1.5412,1.5363,1.506,1.5011,1.5324,1.509,1.5041,1.5363,1.5413,1.5413,1.5413,1.5415,1.5415,1.5416,1.5413,1.5409,1.5409,1.5411,1.5412,1.5396,1.5375,1.5368,1.5365,1.5324,1.5326,1.5348,1.532,1.5292,1.5294,1.5288,1.5289,1.5288,1.5295,1.5291,1.529,1.5336,1.5402,1.5903,1.6713,1.7558,1.8408,1.8817,1.9178,1.6936,1.79,1.7603,1.7961,1.8806,1.9677,2.0176,2.0389,2.0389,2.0389,2.0389,2.0389,2.0888,2.162,2.1698,2.1591,2.1407,2.181,2.1095,1.9622,1.9677,1.9689,1.9483,1.9464,1.9664,2.0012,2.0281,2.0425,2.0476,2.0472,2.0466,2.0466,2.0484,2.051,2.0437,1.9844,1.9158,1.8327,1.7488,1.6629,1.5856,1.5513,1.5414,1.5413,1.5413,1.5413,1.5412,1.5412,1.5412,1.5412,1.5626,1.5646,1.5422,1.5614,1.5649,1.5403,1.5161,1.516,1.538,1.541,1.5409,1.5409,1.5408,1.5414,1.5411,1.5412,1.5534,1.5778,1.5744,1.5722,1.5427,1.5413,1.5412,1.5412,1.5412,1.5412,1.5412,1.5412,1.5383,1.5412,1.5412,1.5412,1.5412,1.5413,1.5414,1.5414,1.5415,1.5414,1.5413,1.5411,1.5408,1.5414,1.5415,1.5409,1.5389,1.537,1.5365,1.5363,1.535,1.5326,1.53,1.5285,1.5288,1.5293,1.5291,1.5294,1.5287,1.5345,1.5797,1.671,1.7569,1.839,1.9249,1.9368,1.9628,1.5393,1.5644,1.6358,1.7229,1.7949,1.8874,1.9677,2.0389,2.0389,2.0389,2.0389,2.0389,2.0869,2.163,2.1669,2.1269,2.0821,2.2126,2.1865,2.0431,2.1008,2.1066,2.0373,2.0331,1.9918,1.9469,2.0088,2.0398,2.0411,2.0386,2.0422,2.0395,2.041,2.0479,2.0475,2.0395,1.9994,1.9084,1.8325,1.7489,1.6626,1.5815,1.5454,1.5414,1.5415,1.5414,1.5412,1.5412,1.5412,1.5412,1.6152,1.624,1.5568,1.6142,1.6171,1.545,1.4658,1.4568,1.5288,1.5409,1.5409,1.5425,1.5482,1.5452,1.5545,1.5635,1.5951,1.6571,1.664,1.6363,1.5723,1.5623,1.5522,1.5491,1.5422,1.5413,1.5412,1.5412,1.5412,1.5412,1.5412,1.5412,1.5412,1.5412,1.5413,1.5412,1.5412,1.5412,1.5411,1.5411,1.541,1.5416,1.5416,1.5409,1.5414,1.5375,1.539,1.5396,1.5385,1.5371,1.5333,1.529,1.529,1.5272,1.5241,1.5246,1.5274,1.5687,1.6379,1.7274,1.8332,1.9227,1.9821,2.0114,2.0248,1.5615,1.6213,1.7023,1.7862,1.8693,1.957,2.0109,2.0379,2.0389,2.0389,2.0389,2.0389,2.0576,2.0888,2.1453,2.181,2.2033,2.2642,2.2004,2.0508,2.0153,1.9863,1.9619,1.957,1.9764,1.9973,2.0237,2.0389,2.0324,1.9848,1.9879,2.0228,1.9852,1.9859,2.0344,2.0428,2.0023,1.9269,1.8889,1.8094,1.6832,1.638,1.5973,1.5434,1.5413,1.5413,1.5412,1.5412,1.5412,1.5412,1.624,1.6299,1.5548,1.5694,1.5743,1.5421,1.5099,1.5069,1.5351,1.5411,1.5411,1.5449,1.5926,1.6237,1.6334,1.6734,1.7212,1.7457,1.753,1.7329,1.7067,1.6581,1.624,1.6161,1.576,1.5475,1.5413,1.5412,1.5412,1.5412,1.5412,1.5412,1.5412,1.5412,1.5412,1.5412,1.5412,1.5422,1.5422,1.5422,1.547,1.5431,1.5407,1.5413,1.5415,1.5357,1.5342,1.5369,1.538,1.5336,1.5291,1.5286,1.5288,1.5251,1.5204,1.5471,1.5657,1.6805,1.7417,1.8063,1.911,1.9659,2.0218,2.0282,2.03,1.6464,1.7064,1.7889,1.8561,1.9183,2.0034,2.0389,2.0389,2.0389,2.0389,2.0389,2.0389,2.0389,2.0547,2.1311,2.1969,2.2517,2.2749,2.2139,2.085,2.0202,1.9783,1.9561,1.9522,1.9677,1.9938,1.9973,2.0102,2.0312,1.9802,1.9851,2.0305,1.978,1.9797,2.031,2.0381,2.011,1.9618,1.9077,1.8181,1.7143,1.6531,1.5981,1.548,1.5383,1.5407,1.5412,1.5412,1.5412,1.552,1.624,1.6435,1.588,1.5557,1.5412,1.5412,1.5402,1.5412,1.5451,1.5645,1.5822,1.587,1.6612,1.7128,1.7176,1.7665,1.8064,1.8308,1.8426,1.8477,1.8594,1.8056,1.7435,1.7138,1.6582,1.6123,1.5857,1.5826,1.5688,1.5471,1.5412,1.5412,1.5412,1.5412,1.5412,1.5412,1.5412,1.546,1.5753,1.5821,1.5977,1.6144,1.6036,1.5938,1.5811,1.5679,1.5448,1.5429,1.5386,1.5329,1.5295,1.529,1.5269,1.5221,1.5415,1.5749,1.654,1.7757,1.848,1.8978,1.9523,2.0071,2.0279,2.0291,2.0296,1.7837,1.7937,1.8739,1.9097,1.9315,2.0066,2.0382,2.0382,2.0389,2.0389,2.0389,2.0389,2.0389,2.0556,2.1201,2.1659,2.1791,2.2333,2.2275,2.1588,2.1456,2.0975,2.0315,2.0247,1.9918,1.9393,1.9212,1.9628,2.036,2.0218,2.0215,2.036,2.0237,2.0163,2.0386,2.0385,2.0371,1.9975,1.8897,1.8053,1.7702,1.638,1.5564,1.5347,1.5364,1.5402,1.541,1.5402,1.5412,1.549,1.623,1.6679,1.6493,1.585,1.5412,1.5422,1.5441,1.5461,1.5548,1.6241,1.6709,1.6825,1.7528,1.8017,1.8026,1.8183,1.8573,1.9157,1.934,1.9591,2.0118,1.9667,1.8852,1.8169,1.779,1.7381,1.6807,1.6621,1.6347,1.5609,1.5412,1.5411,1.5411,1.5411,1.5411,1.5412,1.552,1.5792,1.6396,1.6591,1.7069,1.746,1.7167,1.668,1.6368,1.6045,1.5735,1.5491,1.5416,1.536,1.5311,1.5293,1.5258,1.5265,1.5877,1.6259,1.7138,1.8249,1.8765,1.9282,1.9873,2.0292,2.0292,2.0292,2.0288,1.8719,1.8719,1.8973,1.9465,1.9983,2.0288,2.0388,2.0388,2.0386,2.0389,2.0389,2.0389,2.0389,2.0431,2.0705,2.0821,2.0827,2.1088,2.1343,2.153,2.1082,2.0705,2.045,2.0389,2.0257,2.0034,1.9996,2.0102,2.0237,1.9831,1.9773,2.0189,1.9793,1.9851,2.0373,2.0375,2.0161,1.9563,1.9624,1.8844,1.7268,1.7089,1.6551,1.5506,1.5349,1.5346,1.5326,1.5362,1.5402,1.5421,1.6221,1.6697,1.6532,1.588,1.5432,1.546,1.5987,1.6288,1.6386,1.708,1.7587,1.7743,1.8397,1.8846,1.8983,1.9422,1.9832,2.0154,2.0202,2.0367,2.0464,2.0372,1.9789,1.8986,1.8363,1.7749,1.6903,1.6221,1.5741,1.5498,1.5416,1.5416,1.5416,1.5407,1.5428,1.5538,1.588,1.6425,1.6727,1.7323,1.7606,1.791,1.7577,1.7441,1.7109,1.6904,1.672,1.6209,1.5878,1.566,1.5536,1.5467,1.5397,1.5702,1.6294,1.6978,1.7872,1.8549,1.9069,1.9575,2.0119,2.0298,2.0298,2.0298,2.0298,1.9612,1.9585,1.9587,1.9888,2.0374,2.0383,2.0389,2.0387,2.0385,2.0385,2.0391,2.0382,2.0382,2.0388,2.0385,2.0382,2.0389,2.0382,2.0682,2.1092,2.0701,2.0392,2.0389,2.0389,2.0389,2.0389,2.0382,2.0389,2.0363,1.9899,1.986,2.0205,1.9838,1.9848,2.035,2.0379,2.0089,1.9689,1.9767,1.9141,1.792,1.7752,1.7365,1.6445,1.626,1.6231,1.6237,1.6301,1.6041,1.5618,1.5954,1.6201,1.6172,1.5704,1.5539,1.5928,1.6357,1.6825,1.7206,1.7997,1.8485,1.8631,1.9284,1.9763,1.9871,2.0378,2.0584,2.0603,2.0574,2.0603,2.0593,2.0591,2.0328,1.9862,1.9333,1.8428,1.7389,1.6406,1.5752,1.5554,1.5414,1.5412,1.541,1.5418,1.5574,1.5858,1.6346,1.7147,1.7469,1.8153,1.8465,1.866,1.8641,1.8368,1.7889,1.7743,1.7704,1.7108,1.6473,1.6204,1.5986,1.5961,1.5914,1.6509,1.7102,1.7577,1.8395,1.8905,1.9425,1.9908,2.0288,2.0298,2.0298,2.0298,2.0288,2.0456,2.0418,2.0402,2.0364,2.0409,2.0406,2.0387,2.0387,2.0381,2.0381,2.0381,2.0391,2.0381,2.0388,2.0387,2.039,2.0387,2.0382,2.0415,2.0482,2.0392,2.0389,2.0389,2.0389,2.0389,2.0389,2.0389,2.0389,2.0389,2.0315,2.0389,2.0363,2.0324,2.037,2.0389,2.0389,2.0312,2.0015,1.9573,1.9218,1.8822,1.831,1.782,1.7665,1.7612,1.7578,1.7554,1.7561,1.7035,1.5809,1.5839,1.5936,1.5674,1.5558,1.6085,1.6748,1.6815,1.7372,1.8065,1.8884,1.9362,1.944,2.0017,2.0594,2.0516,2.0525,2.0603,2.0603,2.0603,2.0603,2.0603,2.0603,2.0564,2.0564,2.0011,1.9202,1.8156,1.7097,1.6132,1.5576,1.543,1.5507,1.5611,1.5599,1.5987,1.6548,1.6881,1.7577,1.8579,1.9175,1.9723,1.9723,1.946,1.8807,1.8182,1.8367,1.828,1.7718,1.7182,1.6995,1.6518,1.6378,1.6771,1.7367,1.7846,1.8323,1.8834,1.9402,1.9758,2.0087,2.0279,2.0288,2.0285,2.0271,2.0263,2.0473,2.048,2.0473,2.0471,2.0468,2.0434,2.039,2.0381,2.0389,2.0396,2.0384,2.0384,2.0394,2.0384,2.0391,2.0388,2.0383,2.039,2.0382,2.0388,2.0386,2.0382,2.0389,2.0389,2.0389,2.0389,2.0389,2.0389,2.0389,2.0389,2.0389,2.0389,2.0389,2.0389,2.0389,2.0389,2.0034,1.9648,1.9944,1.9386,1.8458,1.8678,1.8426,1.783,1.7852,1.7864,1.7806,1.7803,1.7711,1.7331,1.7243,1.7245,1.7149,1.7182,1.7314,1.7635,1.8221,1.866,1.9041,1.9724,2.0202,2.0251,2.0417,2.0594,2.0603,2.0603,2.0603,2.0603,2.0603,2.0603,2.0603,2.0603,2.0603,2.0446,1.9651,1.8666,1.7932,1.6685,1.5623,1.5488,1.5976,1.6288,1.6354,1.6412,1.6714,1.7408,1.775,1.8047,1.9175,1.9864,2.0265,2.0111,1.9789,1.905,1.8612,1.8836,1.8738,1.8229,1.7956,1.7959,1.7316,1.6718,1.7456,1.8294,1.8604,1.9034,1.9545,2.0071,2.026,2.0252,2.0248,2.0244,2.0236,2.0222,2.0233,2.0507,2.0507,2.0507,2.0507,2.0498,2.0451,2.0451,2.0442,2.0441,2.0429,2.0439,2.0439,2.0448,2.0446,2.0414,2.0385,2.0382,2.0385,2.0387,2.0387,2.0389,2.0389,2.0389,2.0389,2.0389,2.0389,2.0389,2.0389,2.0389,2.0389,2.0389,2.0389,2.0389,2.0389,2.0389,2.0373,2.017,1.9831,2.0147,1.9841,1.9029,1.9377,1.9386,1.8961,1.889,1.8894,1.89,1.8908,1.8637,1.8074,1.7891,1.7936,1.7913,1.7959,1.8142,1.8466,1.9026,1.9411,1.9861,2.0339,2.0564,2.0594,2.0603,2.0603,2.0603,2.0603,2.0603,2.0603,2.0603,2.0603,2.0603,2.0603,2.0603,2.0467,1.9371,1.8426,1.806,1.7531,1.6703,1.6433,1.6669,1.7246,1.7255,1.7256,1.7703,1.8275,1.8547,1.9053,1.9762,2.0255,2.0533,2.0349,1.997,1.924,1.8948,1.9123,1.9467,1.8988,1.8713,1.874,1.8298,1.757,1.8306,1.9124,1.9413,1.9687,2.0042,2.0277,2.0241,2.0214,2.0204,2.0208,2.0204,2.022,2.0214,2.0507,2.0507,2.0507,2.0507,2.0507,2.0507,2.0498,2.0507,2.0505,2.0485,2.0495,2.0507,2.0495,2.0507,2.0429,2.0408,2.0408,2.0402,2.0385,2.0381,2.0385,2.0392,2.0389,2.0389,2.0389,2.0389,2.0389,2.0389,2.0389,2.0389,2.0389,2.0389,2.0389,2.0389,2.0389,2.0389,2.0389,2.0305,2.0312,2.0324,2.0083,2.0186,2.0138,2.0102,2.0073,2.0099,2.0157,2.0163,1.9643,1.8167,1.8186,1.8355,1.8292,1.8291,1.8622,1.9202,1.9495,1.9846,2.0398,2.0535,2.0603,2.0603,2.0603,2.0603,2.0603,2.0603,2.0603,2.0603,2.0603,2.0603,2.0603,2.0603,2.0603,2.0496,1.9822,1.91,1.8504,1.8746,1.8548,1.7203,1.7627,1.804,1.8121,1.8191,1.8447,1.9166,1.9312,1.9438,1.9931,2.0354,2.0533,2.0477,1.9991,1.9408,1.9341,1.9399,1.9782,1.9861,1.9571,1.9458,1.935,1.9065,1.9502,1.9918,1.9968,2.0022,2.0166,2.0265,2.023,2.0201,2.0204,2.02,2.021,2.0233,2.0246,2.0507,2.0507,2.0507,2.0507,2.0507,2.0507,2.0507,2.0507,2.0507,2.0507,2.0507,2.0507,2.0507,2.0507,2.0476,2.0473,2.0476,2.0424,2.0389,2.0381,2.0383,2.0385,2.0389,2.0382,2.0389,2.0389,2.0389,2.0389,2.0389,2.0389,2.0389,2.0389,2.0389,2.0389,2.0389,2.0389,2.0389,2.0389,2.0389,2.0389,2.0389,2.0389,2.0389,2.0389,2.0389,2.0389,2.0389,2.0389,2.0199,1.9949,1.9796,1.9665,1.968,1.9725,1.9849,1.9995,2.0169,2.0331,2.0551,2.0602,2.0603,2.0603,2.0603,2.0603,2.0603,2.0603,2.0603,2.0603,2.0603,2.0603,2.0603,2.0603,2.0603,2.0525,2.0378,1.9929,1.9187,1.8621,1.8269,1.8064,1.8465,1.9016,1.9012,1.9017,1.9373,1.997,1.9988,1.9822,2.0091,2.0475,2.0505,2.0497,1.945,1.8867,1.9111,1.9258,1.9718,2.0178,2.0132,2.0007,1.9909,1.9809,1.9968,2.0177,2.0379,2.041,2.0324,2.0294,2.0265,2.0238,2.0208,2.0215,2.0231,2.025,2.0267,2.0507,2.0507,2.0507,2.0507,2.0507,2.0507,2.0507,2.0507,2.0507,2.0507,2.0507,2.0507,2.0507,2.0507,2.0507,2.0507,2.0485,2.042,2.039,2.0387,2.0384,2.0389,2.0388,2.0382,2.0389,2.0382,2.0389,2.0389,2.0389,2.0389,2.0389,2.0389,2.0389,2.0389,2.0389,2.0389,2.0389,2.0389,2.0389,2.0389,2.0389,2.0389,2.0389,2.0389,2.0389,2.0389,2.0389,2.0389,2.0389,2.0389,2.0387,2.0384,2.0374,2.0381,2.0413,2.0393,2.0447,2.049,2.0533,2.0561,2.0574,2.0603,2.0603,2.0603,2.0603,2.0603,2.0603,2.0603,2.0603,2.0603,2.0603,2.0603,2.0603,2.0603,2.0603,2.0368,1.9939,1.9471,1.9013,1.8934,1.9373,1.9766,1.9904,1.9795,1.9913,2.034,2.0361,2.0215,2.0223,2.0541,2.0511,2.016,1.8904,1.8354,1.8687,1.9039,1.9528,2.0018,2.0381,2.0324,2.0282,2.0176,2.0091,2.0288,2.0472,2.0431,2.0355,2.0331,2.03,2.0278,2.0248,2.0246,2.0251,2.0282,2.0291,2.0371,2.0507,2.0507,2.0507,2.0507,2.0507,2.0507,2.0507,2.0507,2.0507,2.0507,2.0507,2.0507,2.0507,2.0507,2.0507,2.0478,2.0444,2.0427,2.0383,2.0426,2.0413,2.0396,2.039,2.0382,2.0389,2.0382,2.0389,2.0389,2.0389,2.0389,2.0389,2.0389,2.0389,2.0389,2.0389,2.0389,2.0389,2.0389,2.0389,2.0389,2.0389,2.0389,2.0389,2.0389,2.0389,2.0389,2.0389,2.0389,2.0389,2.0389,2.0366,2.0328,2.034,2.0376,2.0311,2.0386,2.0453,2.0503,2.0521,2.0551,2.0603,2.0603,2.0603,2.0603,2.0603,2.0603,2.0603,2.0603,2.0603,2.0603,2.0603,2.0603,2.0603,2.0603,2.0603,2.0603,2.0594,2.0106,1.9783,1.9939,2.0263,2.04,2.0379,2.0516,2.0605,2.0601,2.0595,2.0576,2.0565,2.054,2.0298,1.9202,1.8629,1.8872,1.8976,1.9445,2.0021,2.0511,2.0512,2.0504,2.0407,2.0298,2.0361,2.0459,2.0422,2.0391,2.0369,2.034,2.0311,2.0311,2.0318,2.0315,2.0321,2.0331,1.9852,2.0507,2.0507,2.0507,2.0507,2.0507,2.0507,2.0507,2.0507,2.0507,2.0507,2.0507,2.0507,2.0507,2.0507,2.0507,2.0488,2.0476,2.0454,2.0422,2.0459,2.0448,2.0413,2.0391,2.0389,2.0385,2.0382,2.0382,2.0389,2.0389,2.0389,2.0389,2.0389,2.0389,2.0389,2.0389,2.0389,2.0389,2.0389,2.0389,2.0389,2.0389,2.0389,2.0389,2.0389,2.0389,2.0389,2.0389,2.0389,2.0389,2.0389,2.0363,2.0321,2.0324,2.0349,2.0366,2.0381,2.042,2.0472,2.055,2.0581,2.0604,2.0581,2.0581,2.0581,2.0592,2.0579,2.0602,2.0603,2.0603,2.0603,2.0603,2.0603,2.0603,2.0603,2.0603,2.0603,2.0584,2.0555,2.0281,2.0467,2.0603,2.0603,2.0603,2.0603,2.0603,2.0597,2.0601,2.0594,2.0576,2.0556,2.0222,1.9712,1.9356,1.9223,1.9217,1.9449,2.0103,2.0504,2.0504,2.0504,2.0503,2.0501,2.0492,2.0487,2.046,2.0433,2.0403,2.0377,2.0352,2.0363,2.0392,2.0397,2.0402,2.0398,1.9706,2.0488,2.0507,2.0507,2.0507,2.0507,2.0507,2.0507,2.0507,2.0507,2.0507,2.0507,2.0507,2.0507,2.0507,2.0507,2.0507,2.0507,2.0485,2.0466,2.0485,2.0461,2.0417,2.0397,2.0381,2.0384,2.0388,2.0389,2.0389,2.0389,2.0389,2.0389,2.0389,2.0389,2.0389,2.0389,2.0389,2.0389,2.0389,2.0389,2.0389,2.0389,2.0389,2.0389,2.0389,2.0389,2.0389,2.0389,2.0389,2.0389,2.0389,2.0386,2.0373,2.0354,2.0357,2.0356,2.0353,2.0366,2.0428,2.0496,2.0491,2.0498,2.0493,2.0492,2.05,2.05,2.0518,2.0548,2.0601,2.0603,2.0603,2.0593,2.0603,2.0603,2.0603,2.0603,2.0603,2.0603,2.0603,2.0603,2.0603,2.0603,2.0603,2.0603,2.0603,2.0603,2.0603,2.0597,2.0601,2.0594,2.0576,2.0322,1.995,1.9672,1.9491,1.949,1.9581,2.0183,2.0513,2.0513,2.0508,2.051,2.051,2.0501,2.0495,2.0489,2.048,2.0459,2.0427,2.04,2.0432,2.0453,2.0464,2.0472,2.0463,1.9463,2.0247,2.043,2.0507,2.0507,2.0507,2.0507,2.0507,2.0507,2.0507,2.0507,2.0507,2.0507,2.0507,2.0507,2.0507,2.0507,2.0507,2.0498,2.0498,2.0507,2.0464,2.0442,2.0405,2.0382,2.0389,2.0387,2.0388,2.0382,2.0389,2.0389,2.0389,2.0389,2.0389,2.0389,2.0389,2.0389,2.0389,2.0389,2.0389,2.0389,2.0389,2.0389,2.0389,2.0389,2.0389,2.0389,2.0389,2.0389,2.0389,2.0389,2.0389,2.0389,2.0389,2.036,2.033,2.0327,2.0353,2.0384,2.0407,2.0417,2.041,2.0394,2.0401,2.0404,2.0424,2.0436,2.0479,2.0517,2.0548,2.0546,2.0575,2.0567,2.0579,2.059,2.0603,2.0603,2.0603,2.0603,2.0603,2.0603,2.0603,2.0603,2.0603,2.0603,2.0603,2.0603,2.0603,2.0598,2.06,2.0564,2.0439,2.0176,1.988,1.9748,1.9772,1.9937,2.0319,2.0501,2.051,2.0504,2.0508,2.051,2.0511,2.051,2.0503,2.051,2.0506,2.0474,2.0467,2.0492,2.0505,2.0499,2.0491,2.0491,1.8558,1.9424,2.0189,2.0507,2.0507,2.0507,2.0507,2.0507,2.0507,2.0507,2.0507,2.0507,2.0507,2.0507,2.0507,2.0507,2.0507,2.0507,2.0507,2.0507,2.0507,2.0498,2.0473,2.042,2.041,2.0391,2.0387,2.0388,2.0386,2.0382,2.0389,2.0389,2.0389,2.0389,2.0389,2.0389,2.0389,2.0389,2.0389,2.0411,2.046,2.0479,2.0479,2.0469,2.0537,2.0556,2.0624,2.0643,2.065,2.0595,2.0518,2.045,2.0389,2.0389,2.0389,2.0382,2.0384,2.0387,2.0389,2.0377,2.0376,2.0376,2.0391,2.039,2.0381,2.0383,2.04,2.0423,2.0433,2.0437,2.0459,2.0471,2.0492,2.0525,2.0555,2.0581,2.0603,2.0595,2.0595,2.0604,2.0604,2.0603,2.0603,2.0603,2.0603,2.0603,2.0603,2.0603,2.0604,2.0597,2.0598,2.0494,2.0448,2.0185,2.0056,2.0072,2.0163,2.0476,2.0494,2.0511,2.0503,2.0507,2.051,2.051,2.051,2.0508,2.0505,2.0505,2.0507,2.0503,2.0508,2.051,2.0505,2.0507,2.0505,1.8412,1.9281,2.0131,2.0507,2.0507,2.0507,2.0507,2.0507,2.0507,2.0507,2.0507,2.0507,2.0507,2.0507,2.0507,2.0507,2.0507,2.0507,2.0507,2.0507,2.0507,2.0507,2.0488,2.0464,2.0446,2.0397,2.0381,2.0387,2.0382,2.0386,2.0389,2.0389,2.0389,2.0389,2.0389,2.0389,2.0389,2.0389,2.0431,2.0663,2.0995,2.113,2.114,2.115,2.1527,2.1498,2.1304,2.1643,2.1778,2.1817,2.1817,2.1826,2.1817,2.1788,2.1678,2.1088,2.1085,2.085,2.0437,2.0365,2.0342,2.0339,2.034,2.0344,2.0346,2.0373,2.0377,2.0352,2.0376,2.0386,2.0386,2.0429,2.0464,2.0492,2.0512,2.0558,2.0593,2.0596,2.0597,2.0596,2.0595,2.0605,2.0604,2.0604,2.0604,2.0603,2.0603,2.0603,2.0603,2.0604,2.0595,2.0585,2.0562,2.0507,2.042,2.0389,2.0318,2.0499,2.0498,2.0505,2.0505,2.0507,2.0511,2.0513,2.051,2.0508,2.0508,2.0508,2.0508,2.0508,2.0508,2.0508,2.0508,2.0508,2.0505,1.8284,1.8964,2.0055,2.0507,2.0507,2.0507,2.0507,2.0507,2.0507,2.0507,2.0507,2.0507,2.0507,2.0507,2.0507,2.0507,2.0507,2.0507,2.0507,2.0507,2.0507,2.0507,2.0498,2.0495,2.0454,2.0388,2.0388,2.0388,2.039,2.0388,2.0389,2.0382,2.0389,2.0389,2.0389,2.0389,2.0392,2.0411,2.0676,2.1082,2.1549,2.1878,2.1959,2.2162,2.2462,2.2633,2.2207,2.2439,2.2787,2.2778,2.2726,2.2648,2.2681,2.2362,2.2059,2.1526,2.1301,2.0853,2.0466,2.0305,2.0297,2.029,2.0296,2.0313,2.03,2.0344,2.0366,2.0315,2.0327,2.0366,2.0385,2.0383,2.0393,2.0431,2.0458,2.0524,2.0569,2.057,2.0583,2.0595,2.0605,2.0596,2.0596,2.0595,2.0605,2.0603,2.0603,2.0603,2.0603,2.0603,2.0603,2.0603,2.0596,2.0602,2.0584,2.0547,2.0527,2.0516,2.0516,2.0514,2.0517,2.0509,2.0511,2.0504,2.0504,2.051,2.0505,2.0511,2.0508,2.0508,2.0508,2.0508,2.0508,2.0508,2.0502,1.793,1.8117,1.9805,2.0507,2.0507,2.0507,2.0507,2.0507,2.0507,2.0507,2.0507,2.0507,2.0507,2.0507,2.0507,2.0507,2.0507,2.0507,2.0507,2.0507,2.0507,2.0507,2.0507,2.0498,2.0476,2.042,2.0402,2.0384,2.0384,2.0382,2.0382,2.0386,2.0382,2.0389,2.0389,2.0389,2.0508,2.0672,2.1104,2.1591,2.2056,2.2443,2.2778,2.2778,2.2865,2.2874,2.2797,2.2932,2.3055,2.3064,2.3087,2.309,2.3061,2.2668,2.2268,2.1671,2.1175,2.0736,2.0401,2.0301,2.0297,2.0294,2.0294,2.029,2.03,2.0292,2.0293,2.0291,2.0314,2.0313,2.0308,2.0302,2.0339,2.0368,2.0409,2.0449,2.0501,2.0533,2.055,2.059,2.0605,2.0597,2.0598,2.0597,2.0597,2.0596,2.0596,2.0596,2.0603,2.0603,2.0603,2.0603,2.0603,2.0596,2.0595,2.058,2.0565,2.0566,2.0566,2.0547,2.0534,2.0529,2.0526,2.0512,2.0504,2.0503,2.0513,2.0511,2.0508,2.0507,2.0507,2.0511,2.0511,2.0511,2.0499,1.7948,1.8079,1.9778,2.0504,2.0507,2.0507,2.0507,2.0507,2.0507,2.0507,2.0507,2.0507,2.0507,2.0507,2.0507,2.0507,2.0507,2.0507,2.0507,2.0507,2.0507,2.0507,2.0507,2.0498,2.0478,2.0451,2.0422,2.0389,2.0385,2.0385,2.0389,2.0382,2.0389,2.0389,2.0389,2.0431,2.0653,2.1121,2.1582,2.2056,2.3223,2.3406,2.3455,2.2932,2.4215,2.3464,2.2626,2.3271,2.3538,2.3645,2.3596,2.355,2.3485,2.3118,2.2495,2.1754,2.1181,2.0803,2.0375,2.0294,2.03,2.0296,2.0297,2.0298,2.0294,2.0296,2.0296,2.0296,2.0293,2.0292,2.0296,2.0295,2.0312,2.0336,2.037,2.0393,2.0431,2.047,2.0501,2.0526,2.0572,2.0599,2.0599,2.0599,2.0599,2.0599,2.0598,2.0597,2.0595,2.0603,2.0603,2.0603,2.0603,2.0603,2.0603,2.0604,2.0595,2.0598,2.06,2.0584,2.0557,2.0566,2.0565,2.0539,2.0513,2.0509,2.0503,2.0509,2.0505,2.0507,2.0509,2.0507,2.0509,2.0511,2.0486,1.7979,1.8139,1.978,2.0511,2.0505,2.051,2.0507,2.0507,2.0507,2.0507,2.0507,2.0507,2.0507,2.0507,2.0507,2.0507,2.0507,2.0507,2.0507,2.0507,2.0507,2.0507,2.0507,2.0507,2.0498,2.0483,2.0434,2.0382,2.0391,2.0385,2.0389,2.0382,2.0389,2.0389,2.0389,2.0431,2.0734,2.1182,2.1736,2.2114,2.329,2.3577,2.3561,2.3019,2.3915,2.3732,2.2797,2.3093,2.3525,2.3618,2.3663,2.3723,2.3686,2.3443,2.2773,2.198,2.1287,2.0921,2.0499,2.03,2.0296,2.0296,2.0297,2.0291,2.0294,2.029,2.0294,2.0294,2.0294,2.0297,2.0297,2.0298,2.031,2.0341,2.0334,2.0358,2.0393,2.0422,2.0441,2.0466,2.052,2.0565,2.0579,2.0579,2.06,2.0599,2.0597,2.0596,2.0597,2.0596,2.0603,2.0603,2.0603,2.0603,2.0603,2.0604,2.0604,2.0605,2.0597,2.0598,2.0592,2.0603,2.0595,2.0566,2.0539,2.0516,2.051,2.0507,2.0505,2.0511,2.0505,2.05,2.0509,2.0509,2.047,1.8004,1.8211,1.9813,2.0511,2.0506,2.0512,2.0507,2.0507,2.0507,2.0507,2.0507,2.0507,2.0507,2.0507,2.0507,2.0507,2.0507,2.0507,2.0507,2.0507,2.0507,2.0507,2.0507,2.0507,2.0498,2.0485,2.0434,2.0382,2.0381,2.0387,2.0382,2.0382,2.0389,2.0389,2.0389,2.0389,2.0421,2.0595,2.1375,2.1804,2.2284,2.2855,2.2952,2.2855,2.3145,2.3048,2.2474,2.2613,2.2935,2.2947,2.2934,2.2923,2.2889,2.2315,2.1829,2.1513,2.0786,2.0428,2.0298,2.0293,2.0296,2.0296,2.0297,2.0294,2.0299,2.0293,2.0294,2.0294,2.0297,2.0295,2.0298,2.0298,2.031,2.0323,2.0317,2.0327,2.0349,2.037,2.0398,2.0426,2.0468,2.0511,2.0532,2.0548,2.059,2.0599,2.0596,2.0596,2.0598,2.0596,2.0604,2.0604,2.0604,2.0603,2.0603,2.0603,2.0603,2.0603,2.0604,2.0596,2.0598,2.0601,2.0594,2.0576,2.0545,2.0516,2.0505,2.0512,2.0497,2.0484,2.0482,2.0482,2.0499,2.0493,2.0456,1.8004,1.8148,1.98,2.0505,2.0509,2.0507,2.0507,2.0507,2.0507,2.0507,2.0507,2.0507,2.0507,2.0507,2.0507,2.0507,2.0507,2.0507,2.0507,2.0507,2.0507,2.0507,2.0507,2.0495,2.0473,2.0429,2.039,2.0384,2.0387,2.0391,2.0389,2.0392,2.0389,2.0389,2.0389,2.045,2.0605,2.1179,2.1627,2.1949,2.2429,2.2671,2.2594,2.2152,2.2526,2.232,2.1546,2.1859,2.2074,2.2087,2.2077,2.2061,2.2037,2.1547,2.1308,2.0952,2.0334,2.0323,2.0298,2.0298,2.03,2.0292,2.0293,2.0296,2.0296,2.029,2.0294,2.0297,2.0295,2.0292,2.0298,2.0295,2.0301,2.0304,2.0304,2.03,2.0315,2.033,2.0348,2.0386,2.0422,2.0479,2.0499,2.052,2.0555,2.0579,2.0587,2.0597,2.0599,2.0596,2.0604,2.0596,2.0596,2.0604,2.0603,2.0604,2.0604,2.0604,2.0603,2.0603,2.0596,2.0598,2.0599,2.0591,2.0547,2.0513,2.0518,2.051,2.0474,2.0453,2.0466,2.0461,2.0441,2.0433,2.0413,1.8009,1.8193,1.9818,2.0505,2.0504,2.0509,2.0507,2.0507,2.0507,2.0507,2.0507,2.0507,2.0507,2.0507,2.0507,2.0507,2.0507,2.0507,2.0507,2.0507,2.0507,2.0485,2.0473,2.0464,2.0437,2.04,2.0387,2.0389,2.0387,2.0382,2.0382,2.0389,2.0389,2.0389,2.0389,2.0469,2.0605,2.1004,2.1172,2.1333,2.1691,2.1855,2.1723,2.1511,2.1517,2.1507,2.0895,2.0876,2.1246,2.1256,2.1233,2.1217,2.1184,2.1064,2.0841,2.0437,2.0295,2.029,2.0291,2.0294,2.0292,2.0298,2.0298,2.0292,2.0295,2.0299,2.0293,2.029,2.0298,2.0292,2.0298,2.0299,2.0295,2.0301,2.0297,2.0297,2.0301,2.0312,2.0317,2.0347,2.0381,2.0428,2.0471,2.0496,2.0526,2.0543,2.0568,2.0579,2.0599,2.0596,2.0604,2.0596,2.0598,2.0596,2.0596,2.0596,2.0596,2.0596,2.0605,2.0604,2.0603,2.0596,2.0604,2.0604,2.0574,2.0547,2.0536,2.0521,2.0483,2.0469,2.0472,2.045,2.0394,2.0389,2.0389,1.8006,1.8241,1.9812,2.0509,2.0506,2.0509,2.0507,2.0507,2.0507,2.0507,2.0507,2.0507,2.0507,2.0507,2.0507,2.0507,2.0507,2.0507,2.0507,2.0498,2.0485,2.0454,2.042,2.0398,2.0407,2.0391,2.0387,2.0369,2.0382,2.0389,2.0382,2.0366,2.036,2.0366,2.0366,2.0382,2.0469,2.0608,2.0672,2.076,2.0934,2.073,2.0769,2.0701,2.0708,2.0711,2.0447,2.0553,2.054,2.0476,2.0402,2.0372,2.0343,2.0317,2.0294,2.027,2.0259,2.0265,2.0265,2.026,2.0294,2.0296,2.0292,2.0292,2.03,2.0296,2.029,2.0298,2.0293,2.0297,2.0292,2.0295,2.0299,2.0295,2.0295,2.0292,2.0295,2.0299,2.0305,2.0321,2.0347,2.0391,2.0422,2.0455,2.0488,2.052,2.0547,2.0554,2.0575,2.0596,2.0604,2.0596,2.0597,2.0598,2.0598,2.0598,2.0598,2.0598,2.0597,2.0596,2.0605,2.0604,2.0604,2.0595,2.0597,2.0592,2.0566,2.0546,2.0513,2.0492,2.0492,2.0474,2.0431,2.0394,2.0383,1.801,1.8185,1.98,2.0505,2.0506,2.0509,2.0507,2.0507,2.0507,2.0507,2.0507,2.0507,2.0507,2.0507,2.0507,2.0507,2.0507,2.0507,2.0507,2.0495,2.0451,2.0429,2.0402,2.0389,2.0391,2.0375,2.0363,2.0344,2.0379,2.0386,2.0316,2.0271,2.0301,2.0304,2.0285,2.0265,2.0305,2.0343,2.0363,2.0366,2.037,2.0366,2.037,2.0376,2.035,2.0353,2.0373,2.0343,2.033,2.0344,2.0311,2.0295,2.0299,2.0206,2.0123,2.0036,2.0088,2.0157,2.0171,2.026,2.0352,2.0384,2.0349,2.0298,2.0292,2.0317,2.0316,2.0289,2.03,2.0295,2.0296,2.0294,2.0295,2.0298,2.0292,2.0292,2.0298,2.0311,2.0308,2.0305,2.0333,2.0359,2.0395,2.0406,2.0445,2.0484,2.0511,2.0533,2.0551,2.0583,2.0596,2.0597,2.0597,2.0599,2.0599,2.0599,2.06,2.0601,2.0599,2.0598,2.0598,2.0597,2.0596,2.0596,2.0598,2.0601,2.0594,2.0566,2.0546,2.0513,2.05,2.049,2.0472,2.0438,2.0405,1.7688,1.8174,1.9418,2.0168,2.0474,2.0505,2.0507,2.0507,2.0507,2.0507,2.0507,2.0507,2.0507,2.0507,2.0507,2.0507,2.0507,2.0495,2.0468,2.0403,2.041,2.0367,2.0355,2.0343,2.0341,2.0324,2.0309,2.0286,2.0318,2.0315,2.026,2.0223,2.0225,2.019,2.0179,2.0175,2.0215,2.025,2.0284,2.0309,2.0322,2.0312,2.0318,2.0312,2.0276,2.0299,2.0309,2.0267,2.0281,2.0277,2.0231,2.02,2.0296,2.033,2.0518,2.057,2.0962,2.1106,2.1196,2.118,2.0962,2.0719,2.0628,2.0638,2.0521,2.0472,2.038,2.0296,2.0294,2.0292,2.029,2.0298,2.0293,2.0297,2.0295,2.0298,2.0311,2.0324,2.0314,2.0295,2.0315,2.0346,2.0366,2.0378,2.0405,2.0445,2.0492,2.0512,2.0537,2.0567,2.0588,2.0599,2.0599,2.0599,2.0599,2.0601,2.0601,2.0601,2.0601,2.0601,2.06,2.06,2.0599,2.0598,2.0598,2.0601,2.0603,2.0604,2.0576,2.0556,2.0533,2.0538,2.0523,2.0487,2.0459,1.7177,1.7948,1.8846,1.9753,2.0451,2.0507,2.0507,2.0507,2.0507,2.0507,2.0507,2.0507,2.0507,2.0507,2.0507,2.0507,2.0502,2.0478,2.0403,2.0292,2.0336,2.0318,2.026,2.0238,2.025,2.0222,2.0189,2.0167,2.0181,2.0189,2.0193,2.0185,2.0134,2.0098,2.0074,2.0074,2.0089,2.0103,2.0135,2.0171,2.0193,2.0193,2.0198,2.0193,2.0183,2.0183,2.0179,2.018,2.0172,2.0131,2.0088,2.0074,2.0221,2.0655,2.0948,2.127,2.1609,2.1902,2.1972,2.1989,2.1749,2.1453,2.1196,2.1275,2.1195,2.0494,2.023,2.0441,2.0507,2.0333,2.0281,2.029,2.0295,2.0293,2.029,2.0295,2.0301,2.0331,2.0347,2.0337,2.0344,2.0372,2.0375,2.0385,2.0387,2.0422,2.0453,2.0482,2.051,2.0538,2.0577,2.0589,2.06,2.0599,2.0601,2.0602,2.0602,2.0602,2.0593,2.0602,2.0602,2.0602,2.0601,2.0601,2.0599,2.0601,2.0603,2.0603,2.0604,2.0586,2.0576,2.0596,2.0576,2.0537,2.0497,1.6835,1.7155,1.86,1.9702,2.0461,2.0507,2.0507,2.0507,2.0507,2.0507,2.0507,2.0507,2.0507,2.0507,2.0493,2.0493,2.048,2.0432,2.0368,2.0292,2.0272,2.024,2.0174,2.0145,2.0151,2.013,2.0079,2.0029,2.0028,2.0059,2.006,1.9988,1.9989,2.0,1.9958,1.9955,1.9959,1.9965,1.9981,2.0096,2.0213,2.016,2.0131,2.0179,2.0212,2.0294,2.027,2.0151,2.0127,2.0079,2.0045,1.9965,1.9873,2.0634,2.0937,2.1085,2.1929,2.2391,2.2541,2.26,2.24,2.2256,2.2073,2.2095,2.1687,2.0625,2.0216,2.0547,2.0608,2.0383,2.0261,2.0271,2.0294,2.0292,2.0289,2.0297,2.0292,2.0334,2.0379,2.0389,2.0389,2.0382,2.0386,2.0392,2.0382,2.0403,2.042,2.0439,2.0463,2.0487,2.0546,2.0563,2.0599,2.0601,2.0591,2.0591,2.0579,2.0583,2.0584,2.0584,2.0594,2.0604,2.0603,2.0602,2.0601,2.0603,2.0603,2.0603,2.0604,2.0595,2.0595,2.0596,2.0596,2.0566,2.0537,1.6579,1.7453,1.9077,2.0045,2.0451,2.0507,2.0507,2.0507,2.0507,2.0507,2.0507,2.0507,2.0507,2.0502,2.0473,2.0453,2.0435,2.0369,2.0282,2.0221,2.0194,2.0142,2.0097,2.0046,2.0021,2.0005,1.9973,1.9937,1.9923,1.9952,1.9959,1.9892,1.9921,1.9919,1.9867,1.987,1.9887,1.9849,1.9906,2.0144,2.0428,2.0505,2.0805,2.0876,2.1056,2.1033,2.0899,2.082,2.0767,2.0725,2.0701,2.0424,2.0519,2.108,2.1604,2.2105,2.2731,2.3224,2.3208,2.3171,2.3088,2.2936,2.2776,2.273,2.2433,2.1457,2.0638,2.0822,2.0343,2.0079,2.0157,2.0182,2.025,2.0269,2.0288,2.0296,2.0291,2.0308,2.035,2.0389,2.0389,2.0392,2.0382,2.0382,2.0382,2.0385,2.0406,2.0405,2.0422,2.0438,2.0494,2.0535,2.0551,2.0564,2.055,2.0544,2.0547,2.0557,2.0564,2.0575,2.0584,2.0595,2.0604,2.0596,2.0596,2.0605,2.0605,2.0596,2.0596,2.0596,2.0596,2.0596,2.0596,2.0596,2.0576,1.6631,1.8292,1.9694,2.0393,2.051,2.0507,2.0507,2.0507,2.0507,2.0507,2.0495,2.048,2.049,2.0478,2.0439,2.041,2.0363,2.0317,2.0217,2.0154,2.0147,2.0074,1.999,1.9941,1.9919,2.001,2.0098,1.9973,1.9876,2.0056,2.016,1.9948,1.9868,1.9863,1.9923,1.9976,2.0083,2.0214,2.0374,2.0649,2.09,2.1111,2.1485,2.1925,2.2308,2.2308,2.2037,2.1829,2.169,2.16,2.1424,2.1178,2.1257,2.1742,2.2314,2.2931,2.3644,2.4086,2.428,2.4205,2.3924,2.3648,2.345,2.3238,2.2967,2.2371,2.1562,2.1025,2.0541,2.002,2.0093,2.0153,2.0225,2.026,2.0273,2.0295,2.029,2.0298,2.0331,2.0376,2.037,2.037,2.0389,2.0389,2.0389,2.0389,2.0385,2.0385,2.0397,2.0412,2.0449,2.0478,2.0496,2.049,2.0497,2.0508,2.052,2.053,2.0532,2.0551,2.0564,2.0563,2.0576,2.0596,2.0596,2.0596,2.0596,2.0596,2.0596,2.0596,2.0596,2.0596,2.0596,2.0596,2.0596,1.7432,1.8993,1.9342,1.9854,2.0439,2.0507,2.0507,2.0507,2.0507,2.0507,2.0488,2.0442,2.0428,2.0409,2.0406,2.0366,2.0309,2.0256,2.0188,2.0121,2.0064,1.9977,1.9968,2.0038,1.9887,2.0145,2.0477,2.0405,2.0455,2.0637,2.048,2.0048,1.9948,2.0195,2.0749,2.0781,2.0799,2.0906,2.1309,2.1732,2.1647,2.1726,2.1602,2.1933,2.226,2.2276,2.2185,2.2049,2.206,2.2067,2.2032,2.1904,2.205,2.2436,2.2942,2.3406,2.4156,2.4397,2.4507,2.4507,2.4173,2.419,2.4053,2.4072,2.371,2.3237,2.2599,2.2221,2.1542,2.0344,2.018,2.0213,2.0258,2.0252,2.0246,2.0281,2.0293,2.0297,2.0311,2.0324,2.0321,2.0344,2.0389,2.0389,2.0389,2.0389,2.0389,2.0387,2.039,2.0403,2.0416,2.0427,2.0438,2.0465,2.0483,2.049,2.0498,2.05,2.0511,2.0526,2.0534,2.0518,2.0537,2.0566,2.0586,2.0596,2.0596,2.0596,2.0596,2.0596,2.0596,2.0596,2.0596,2.0596,2.0596]}]]